[[{"header":{"parameterUnit":"m.s-1","parameterCategory":1,"la1":30.6,"la2":29.2853,"lo1":-89.7004,"lo2":-87.6739,"dy":0.0162,"dx":0.0183,"nx":112,"ny":82,"refTime":"2023-10-06T06:00:00:Z","depth":0,"parameterNumber":2,"parameterNumberName":"U-component_of_WINDS"},"data":[0.0,0.0,0.0,0.0,0.0,0.0,0.0,0.0,0.0,0.0,0.0,0.0,0.0,0.0,0.0,0.0,0.0,0.0,0.0,0.0,0.0,0.0,0.0,0.0,0.0,0.0,0.0,0.0,0.0,0.0,0.0,0.0,0.0,0.0,0.0,0.0,0.0,0.0,0.0,0.0,0.0,0.0,0.0,0.0,0.0,0.0,0.0,0.0,0.0,0.0,0.0,0.0,0.0,0.0,0.0,0.0,0.0,0.0,0.0,0.0,0.0,0.0,0.0,0.0,0.0,0.0,0.0,0.0,0.0,0.0,0.0,0.0,0.0,0.0,0.0,0.0,0.0,0.0,0.0,0.0,0.0,0.0,0.0,0.0,0.0,0.0,0.0,0.0,0.0,0.0,0.9466,0.953,0.9901,1.0148,1.0212,1.0667,1.0926,1.0989,0.0,0.0,0.0,0.0,0.0,0.0,0.0,0.0,0.0,0.0,0.0,0.0,0.0,0.0,0.0,0.0,0.0,0.0,0.0,0.0,0.0,0.0,0.0,0.0,0.0,0.0,0.0,0.0,0.0,0.0,0.0,0.0,0.0,0.0,0.0,0.0,0.0,0.0,0.0,0.0,0.0,0.0,0.0,0.0,0.0,0.0,0.0,0.0,0.0,0.0,0.0,0.0,0.0,0.0,0.0,0.0,0.0,0.0,0.0,0.0,0.0,0.0,0.0,0.0,0.0,0.0,0.0,0.0,0.0,0.0,0.0,0.0,0.0,0.0,0.0,0.0,0.0,0.0,0.0,0.0,0.0,0.0,0.0,0.0,0.0,0.0,0.0,0.0,0.0,0.0,0.0,0.0,0.0,0.0,0.0,0.0,0.0,0.0,0.0,0.0,0.0,0.0,0.0,0.0,1.0091,1.0548,1.0611,1.0863,1.1303,1.1435,1.1622,1.1872,0.0,0.0,0.0,0.0,0.0,0.0,0.0,0.0,0.0,0.0,0.0,0.0,0.0,0.0,0.0,0.0,0.0,0.0,0.0,0.0,0.0,0.0,0.0,0.0,0.0,0.0,0.0,0.0,0.0,0.0,0.0,0.0,0.0,0.0,0.0,0.0,0.0,0.0,0.0,0.0,0.0,0.0,0.0,0.0,0.0,0.0,0.0,0.0,0.0,0.0,0.0,0.0,0.0,0.0,0.0,0.0,0.0,0.0,0.0,0.0,0.0,0.0,0.0,0.0,0.0,0.0,0.0,0.0,0.0,0.0,0.0,0.0,0.0,0.0,0.0,0.0,0.0,0.0,0.0,0.0,0.0,0.0,0.0,0.0,0.0,0.0,0.0,0.0,0.0,0.0,0.0,0.0,0.0,0.0,0.0,0.0,0.0,0.0,0.0,0.0,0.0,0.0,0.0,1.0288,1.0667,1.1185,1.1373,1.1622,1.1872,1.1988,1.2182,1.2305,1.2027,0.0,0.0,0.0,0.0,0.0,0.0,0.0,0.0,0.0,0.0,0.0,0.0,0.0,0.0,0.0,0.0,0.0,0.0,0.0,0.0,0.0,0.0,0.0,0.0,0.0,0.0,0.0,0.0,0.0,0.0,0.0,0.0,0.0,0.0,0.0,0.0,0.0,0.0,0.0,0.0,0.0,0.0,0.0,0.0,0.0,0.0,0.0,0.0,0.0,0.0,0.0,0.0,0.0,0.0,0.0,0.0,0.0,0.0,0.0,0.0,0.0,0.0,0.0,0.0,0.0,0.0,0.0,0.0,0.0,0.0,0.0,0.0,0.0,0.0,0.0,0.0,0.0,0.0,0.0,0.0,0.0,0.0,0.0,0.0,0.0,0.0,0.0,0.0,0.0,0.0,0.0,0.0,0.0,0.0,0.0,0.0,0.0,0.0,0.0,0.0,0.0,0.0,1.0996,1.1122,1.156,1.1809,1.1996,1.2058,1.2227,1.2395,1.2605,1.2525,0.0,0.0,0.0,0.0,0.0,0.0,0.0,0.0,0.0,0.0,0.0,0.0,0.0,0.0,0.0,0.0,0.0,0.0,0.0,0.0,0.0,0.0,0.0,0.0,0.0,0.0,0.0,0.0,0.0,0.0,0.0,0.0,0.0,0.0,0.0,0.0,0.0,0.0,0.0,0.0,0.0,0.0,0.0,0.0,0.0,0.0,0.0,0.0,0.0,0.0,0.0,0.0,0.0,0.0,0.0,0.0,0.0,0.0,0.0,0.0,0.0,0.0,0.0,0.0,0.0,0.0,0.0,0.0,0.0,0.0,0.0,0.0,0.0,0.0,0.0,0.0,0.0,0.0,0.0,0.0,0.0,0.0,0.0,0.0,0.0,0.0,0.0,0.0,0.0,0.0,0.0,0.0,0.0,0.0,0.0,0.0,0.0,0.0,0.0,0.0,0.0,0.0,1.156,1.156,1.1622,1.1622,1.1747,1.2058,1.176,1.1955,1.2903,1.266,0.0,0.0,0.0,0.0,0.0,0.0,0.0,0.0,0.0,0.0,0.0,0.0,0.0,0.0,0.0,0.0,0.0,0.0,0.0,0.0,0.0,0.0,0.0,0.0,0.0,0.0,0.0,0.0,0.0,0.0,0.0,0.0,0.0,0.0,0.0,0.0,0.0,0.0,0.0,0.0,0.0,0.0,0.0,0.0,0.0,0.0,0.0,0.0,0.0,0.0,0.0,0.0,0.0,0.0,0.0,0.0,0.0,0.0,0.0,0.0,0.0,0.0,0.0,0.0,0.0,0.0,0.0,0.0,0.0,0.0,0.0,0.0,0.0,0.0,0.0,0.0,0.0,0.0,0.0,0.0,0.0,0.0,0.0,0.0,0.0,0.0,0.0,0.0,0.0,0.0,0.0,0.0,0.0,0.0,0.0,0.0,0.0,0.0,0.0,0.0,0.0,0.0,1.2158,1.2343,1.272,1.2964,1.3208,1.3381,1.2974,1.2889,1.3395,0.0,0.0,0.0,0.0,0.0,0.0,0.0,0.0,0.0,0.0,0.0,0.0,0.0,0.0,0.0,0.0,0.0,0.0,0.0,0.0,0.0,0.0,0.0,0.0,0.0,0.0,0.0,0.0,0.0,0.0,0.0,0.0,0.0,0.0,0.0,0.0,0.0,0.0,0.0,0.0,0.0,0.0,0.0,0.0,0.0,0.0,0.0,0.0,0.0,0.0,0.0,0.0,0.0,0.0,0.0,0.0,0.0,0.0,0.0,0.0,0.0,0.0,0.0,0.0,0.0,0.0,0.0,0.0,0.0,0.0,0.0,0.0,0.0,0.0,0.0,0.0,0.0,0.0,0.0,0.0,0.0,0.0,0.0,0.0,0.0,0.0,0.0,0.0,0.0,0.0,0.0,0.0,0.0,0.0,0.0,0.0,0.0,0.0,0.0,0.0,0.0,0.0,1.2757,1.2818,1.3009,1.345,1.3752,1.3983,1.4103,1.3794,1.3633,1.3776,0.0,0.0,0.0,0.0,0.0,0.0,0.0,0.0,0.0,0.0,0.0,0.0,0.0,0.0,0.0,0.0,0.0,0.0,0.0,0.0,0.0,0.0,0.0,0.0,0.0,0.0,0.0,0.0,0.0,0.0,0.0,0.0,0.0,0.0,0.0,0.0,0.0,0.0,0.0,0.0,0.0,0.0,0.0,0.0,0.0,0.0,0.0,0.0,0.0,0.0,0.0,0.0,0.0,0.0,0.0,0.0,0.0,0.0,0.0,0.0,0.0,0.0,0.0,0.0,0.0,0.0,0.0,0.0,0.0,0.0,0.0,0.0,0.0,0.0,0.0,0.0,0.0,0.0,0.0,0.0,0.0,0.0,0.0,0.0,0.0,0.0,0.0,0.0,0.0,0.0,0.0,0.0,0.0,0.0,0.0,0.0,0.0,0.0,0.0,0.0,0.0,0.0,1.3502,1.3502,1.3502,1.3511,1.3666,1.3786,1.401,1.3968,1.3962,0.0,0.0,0.0,0.0,0.0,0.0,0.0,0.0,0.0,0.0,0.0,0.0,0.0,0.0,0.0,0.0,0.0,0.0,0.0,0.0,0.0,0.0,0.0,0.0,0.0,0.0,0.0,0.0,0.0,0.0,0.0,0.0,0.0,0.0,0.0,0.0,0.0,0.0,0.0,0.0,0.0,0.0,0.0,0.0,0.0,0.0,0.0,0.0,0.0,0.0,0.0,0.0,0.0,0.0,0.0,0.0,0.0,0.0,0.0,0.0,0.0,0.0,0.0,0.0,0.0,0.0,0.0,0.0,0.0,0.0,0.0,0.0,0.0,0.0,0.0,0.0,0.0,0.0,0.0,0.0,0.0,0.0,0.0,0.0,0.0,0.0,0.0,0.0,0.0,0.0,0.0,0.0,0.0,0.0,0.0,0.0,0.0,0.0,0.0,0.0,0.0,0.0,0.0,1.4291,1.4291,1.435,1.4815,1.4874,1.4991,1.5313,1.4744,1.4487,1.4781,0.0,0.0,0.0,0.0,0.0,0.0,0.0,0.0,0.0,0.0,0.0,0.0,0.0,0.0,0.0,0.0,0.0,0.0,0.0,0.0,0.0,0.0,0.0,0.0,0.0,0.0,0.0,0.0,0.0,0.0,0.0,0.0,0.0,0.0,0.0,0.0,0.0,0.0,0.0,0.0,0.0,0.0,0.0,0.0,0.0,0.0,0.0,0.0,0.0,0.0,0.0,0.0,0.0,0.0,0.0,0.0,0.0,0.0,0.0,0.0,0.0,0.0,0.0,0.0,0.0,0.0,0.0,0.0,0.0,0.0,0.0,0.0,0.0,0.0,0.0,0.0,0.0,0.0,0.0,0.0,0.0,0.0,0.0,0.0,0.0,0.0,0.0,0.0,0.0,0.0,0.0,0.0,0.0,0.0,0.0,0.0,0.0,0.0,0.0,0.0,0.0,0.0,1.5069,1.4951,1.5001,1.5352,1.5478,1.5546,1.5662,1.5414,1.5199,1.5143,0.0,0.0,0.0,0.0,0.0,0.0,0.0,0.0,0.0,0.0,0.0,0.0,0.0,0.0,0.0,0.0,0.0,0.0,0.0,0.0,0.0,0.0,0.0,0.0,0.0,0.0,0.0,0.0,0.0,0.0,0.0,0.0,0.0,0.0,0.0,0.0,0.0,0.0,0.0,0.0,0.0,0.0,0.0,0.0,0.0,0.0,0.0,0.0,0.0,0.0,0.0,0.0,0.0,0.0,0.0,0.0,0.0,0.0,0.0,0.0,0.0,0.0,0.0,0.0,0.0,0.0,0.0,0.0,0.0,0.0,0.0,0.0,0.0,0.0,0.0,0.0,0.0,0.0,0.0,0.0,0.0,0.0,0.0,0.0,0.0,0.0,0.0,0.0,0.0,0.0,0.0,0.0,0.0,0.0,0.0,0.0,0.0,0.0,0.0,0.0,0.0,0.0,1.586,1.5723,1.5586,1.5537,1.5664,1.5733,1.5537,1.5906,1.5876,1.541,0.0,0.0,0.0,0.0,0.0,0.0,0.0,0.0,0.0,0.0,0.0,0.0,0.0,0.0,0.0,0.0,0.0,0.0,0.0,0.0,0.0,0.0,0.0,0.0,0.0,0.0,0.0,0.0,0.0,0.0,0.0,0.0,0.0,0.0,0.0,0.0,0.0,0.0,0.0,0.0,0.0,0.0,0.0,0.0,0.0,0.0,0.0,0.0,0.0,0.0,0.0,0.0,0.0,0.0,0.0,0.0,0.0,0.0,0.0,0.0,0.9369,0.9382,0.0,0.0,0.0,0.0,0.0,0.0,0.0,0.0,0.0,0.0,0.0,0.0,0.0,0.0,0.0,0.0,0.0,0.0,0.0,0.0,0.0,0.0,0.0,0.0,0.0,0.0,0.0,0.0,0.0,0.0,0.0,0.0,0.0,0.0,0.0,0.0,0.0,0.0,0.0,0.0,1.695,1.7226,1.7155,1.6507,1.6455,1.6517,1.6631,1.6437,1.6287,1.6466,1.61,0.0,0.0,0.0,0.0,0.0,0.0,0.0,0.0,0.0,0.0,0.0,0.0,0.0,0.0,0.0,0.0,0.0,0.0,0.0,0.0,0.0,0.0,0.0,0.0,0.0,0.0,0.0,0.0,0.0,0.0,0.0,0.0,0.0,0.0,0.0,0.0,0.0,0.0,0.0,0.0,0.0,0.0,0.0,0.0,0.0,0.0,0.0,0.0,0.0,0.0,0.0,0.0,0.0,0.0,0.0,0.0,0.0,0.0,0.0,0.9962,0.9724,0.0,0.0,0.0,0.0,0.0,0.0,0.0,0.0,0.0,0.0,0.0,0.0,0.0,0.0,0.0,0.0,0.0,0.0,0.0,0.0,0.0,0.0,0.0,0.0,0.0,0.0,0.0,0.0,0.0,0.0,0.0,0.0,0.0,0.0,0.0,0.0,0.0,0.0,0.0,0.0,1.7647,1.8068,1.8068,1.7284,1.7523,1.776,1.7883,1.7714,1.7507,1.7407,1.7334,0.0,0.0,0.0,0.0,0.0,0.0,0.0,0.0,0.0,0.0,0.0,0.0,0.0,0.0,0.0,0.0,0.0,0.0,0.0,0.0,0.0,0.0,0.0,0.0,0.0,0.0,0.0,0.0,0.0,0.0,0.0,0.0,0.0,0.0,0.0,0.0,0.0,0.0,0.0,0.0,0.0,0.0,0.0,0.0,0.0,0.0,0.0,0.0,0.0,0.0,0.0,0.0,0.0,1.069,1.0894,1.115,1.169,1.1874,1.1722,1.083,1.0331,1.0217,1.0383,0.0,0.0,0.0,0.0,0.0,0.0,0.0,0.0,0.0,0.0,0.0,0.0,0.0,0.0,0.0,0.0,0.0,0.0,0.0,0.0,0.0,0.0,1.8808,1.9017,1.94,1.9721,1.9647,0.0,0.0,0.0,0.0,0.0,0.0,0.0,0.0,0.0,0.0,0.0,1.8486,1.8916,1.8988,1.8259,1.8682,1.905,1.905,1.9072,1.8835,1.8358,1.8467,1.8112,0.0,0.0,0.0,0.0,0.0,0.0,0.0,0.0,0.0,0.0,0.0,0.0,0.0,0.0,0.0,0.0,0.0,0.0,0.0,0.0,0.0,0.0,0.0,0.0,0.0,0.0,0.0,0.0,0.0,0.0,0.0,0.0,0.8984,0.8784,0.0,0.0,0.0,0.0,0.0,0.0,0.0,0.0,0.0,0.0,0.0,0.0,0.0,1.0654,1.0713,1.1404,1.179,1.179,1.2945,1.3459,1.3382,1.3434,1.3509,1.366,1.2315,0.0,1.221,1.3013,0.0,0.0,0.0,0.0,0.0,0.0,0.0,0.0,0.0,0.0,0.0,0.0,0.0,0.0,0.0,0.0,0.0,0.0,0.0,0.0,0.0,0.0,2.0123,2.1127,2.1425,2.163,2.2104,2.0686,1.9358,1.9227,1.9227,1.9227,0.0,0.0,0.0,0.0,0.0,0.0,2.0167,2.0676,2.0739,1.991,1.9846,1.991,1.991,1.958,1.9401,1.9463,1.9132,1.8736,1.8278,1.8362,0.0,0.0,0.0,0.0,0.0,0.0,0.0,0.0,0.0,0.0,0.0,0.0,0.0,0.0,0.0,0.0,0.0,0.0,0.0,0.0,0.0,0.0,0.0,0.0,0.0,0.0,0.0,0.0,0.0,1.052,1.0611,1.0234,1.0578,1.0825,0.0,0.0,0.0,0.0,0.0,0.0,0.0,0.0,0.0,1.2822,1.2397,1.2185,1.2358,1.2387,1.2405,1.2274,1.2887,1.3247,1.3393,1.3757,1.3962,1.4053,1.4053,1.4089,1.3937,1.3071,1.301,1.355,0.0,0.0,0.0,0.0,1.5426,1.5737,1.615,1.6572,1.7035,1.7035,0.0,0.0,0.0,0.0,0.0,0.0,0.0,1.9997,1.9974,2.0396,2.0944,2.1436,2.1813,2.208,2.2384,2.1629,2.0871,2.0653,2.0592,2.0469,2.0172,2.0228,0.0,0.0,0.0,2.1313,2.0869,2.14,2.1526,2.0741,2.1008,2.1273,2.1273,2.1065,2.0802,2.054,2.0392,2.0024,1.9197,1.8999,1.877,0.0,0.0,0.0,0.0,0.0,0.0,0.0,0.0,0.0,0.0,0.0,0.0,0.0,0.0,0.0,0.0,0.0,0.0,0.0,0.0,0.0,0.0,0.0,0.0,0.0,0.0,0.0,0.0,1.1825,1.2059,1.1614,1.1826,1.1985,0.0,0.0,0.0,0.0,0.0,0.0,1.3091,1.3288,1.3614,1.4034,1.3554,1.3373,1.3381,1.3222,1.3087,1.2894,1.317,1.3492,1.3766,1.4268,1.4547,1.4646,1.5313,1.5498,1.5239,1.3593,1.3367,1.4047,1.4203,1.4656,1.534,1.5803,1.6307,1.6825,1.7321,1.7677,1.8008,1.8202,1.8405,1.8664,1.9507,0.0,0.0,0.0,0.0,2.0967,2.0764,2.1146,2.1588,2.1588,2.1925,2.2197,2.2197,2.2197,2.2111,2.1827,2.1753,2.1639,2.1146,2.1019,0.0,2.1588,2.1651,2.1526,2.14,2.1862,2.1987,2.1463,2.1862,2.2197,2.2197,2.2197,2.1987,2.14,2.1495,2.1162,2.0193,1.9889,1.9537,1.9055,0.0,0.0,0.0,0.0,0.0,0.0,0.0,0.0,0.0,0.0,0.0,0.0,0.0,0.0,0.0,0.0,0.0,0.0,0.0,0.0,0.0,0.0,0.0,0.0,0.0,0.0,0.0,0.0,0.0,1.2338,1.2795,0.0,0.0,0.0,0.0,1.3184,1.3097,1.3295,1.3923,1.3777,1.3666,1.3571,1.3468,1.3158,1.2573,1.3534,1.4024,1.4033,1.5051,1.557,1.5588,1.5588,1.5825,1.6151,1.5528,1.5455,1.5817,1.6211,1.6466,1.6637,1.7107,1.7335,1.7335,1.7404,1.7472,1.7609,1.7677,1.7842,1.8076,1.8721,1.9441,2.0096,2.0805,2.106,0.0,0.0,2.16,2.1937,2.1262,2.1588,2.2135,2.2135,2.2185,2.2197,2.2197,2.2197,2.2185,2.2185,2.2185,2.2185,2.2297,0.0,2.2185,2.2359,2.2235,2.2135,2.2123,2.2185,2.2197,2.2123,2.2185,2.2197,2.2197,2.2197,2.2185,2.2123,2.2161,2.1933,2.1356,2.1403,2.1001,1.9927,1.967,0.0,0.0,0.0,0.0,0.0,0.0,0.0,0.0,0.0,0.0,0.0,0.0,0.0,0.0,0.0,0.0,0.0,0.0,0.0,0.0,0.0,0.0,0.0,0.0,0.0,0.0,0.0,0.0,1.3932,1.3864,0.0,1.3635,1.4114,1.4344,1.4195,1.4914,1.5216,1.5059,1.4932,1.4746,1.4291,1.4475,1.4487,1.418,1.4818,1.5141,1.5141,1.5551,1.5835,1.6092,1.6092,1.6312,1.6697,1.6414,1.6356,1.6533,1.6674,1.6542,1.6207,1.6349,1.6751,1.7314,1.7314,1.7382,1.7598,1.7598,1.7598,1.7803,1.8643,1.9628,2.07,2.1008,2.1463,2.18,2.18,2.1999,2.2123,2.1862,2.1999,2.2197,2.2197,2.2197,2.2197,2.2197,2.2197,2.2197,2.2197,2.2197,2.2185,2.2247,2.2247,2.2359,2.275,2.2811,2.2932,2.3339,2.3339,2.3339,2.3339,2.298,2.275,2.275,2.242,2.2197,2.2197,2.2197,2.2101,2.1921,2.1644,2.1494,2.1618,2.0477,1.9849,0.0,0.0,0.0,0.0,0.0,0.0,0.0,0.0,0.0,0.0,0.0,0.0,0.0,0.0,0.0,0.0,0.0,0.0,0.0,0.0,0.0,0.0,0.0,0.0,0.0,1.4656,1.4773,1.4839,1.4606,1.446,1.4401,1.4805,1.5031,1.4737,1.5633,1.5931,1.5362,1.5791,1.5694,1.4861,1.5689,1.5847,1.5304,1.5698,1.59,1.59,1.6037,1.6248,1.6514,1.6514,1.6661,1.6908,1.6908,1.6908,1.6908,1.6908,1.6621,1.6193,1.6193,1.6542,1.7107,1.7107,1.7245,1.7392,1.747,1.7794,1.8317,1.89,2.0031,2.1158,2.1285,2.1675,2.2123,2.2123,2.2123,2.2197,2.2197,2.2197,2.2197,2.2197,2.2197,2.2197,2.2197,2.2197,2.2197,2.2197,2.2197,2.2197,2.2197,2.2197,2.2359,2.275,2.2811,2.2932,2.3339,2.3327,2.3267,2.3267,2.2919,2.2628,2.2677,2.2347,2.2123,2.2197,2.2197,2.2197,2.2197,2.1861,2.1727,2.1873,2.0471,2.0035,2.0749,0.0,0.0,0.0,0.0,0.0,0.0,0.0,0.0,0.0,0.0,0.0,0.0,0.0,0.0,0.0,0.0,0.0,0.0,0.0,0.0,0.0,0.0,0.0,1.497,1.497,1.497,1.497,1.497,1.4902,1.4775,1.5235,1.5362,1.4784,1.5196,1.5264,1.4803,1.6267,1.6507,1.5182,1.6743,1.7024,1.5707,1.6129,1.6331,1.634,1.6725,1.6908,1.6908,1.6908,1.6908,1.6908,1.6908,1.6908,1.6908,1.6908,1.6908,1.6908,1.6908,1.6908,1.6908,1.6908,1.7038,1.7235,1.7461,1.8452,1.9562,1.9628,2.056,2.1698,2.1698,2.1812,2.1862,2.1862,2.2061,2.2185,2.2185,2.2197,2.2197,2.2197,2.2197,2.2197,2.2197,2.2197,2.2185,2.2185,2.2185,2.2197,2.2197,2.2197,2.2197,2.2197,2.2185,0.0,2.2247,2.2049,2.1925,2.1987,2.1812,2.1812,2.1925,2.1925,2.1987,2.2185,2.2197,2.2185,2.2185,2.2197,2.1704,2.0658,1.9734,1.9899,2.1158,0.0,0.0,0.0,0.0,0.0,0.0,0.0,0.0,0.0,0.0,0.0,0.0,0.0,0.0,0.0,0.0,0.0,0.0,0.0,0.0,0.0,1.3563,1.3743,1.4852,1.4843,1.4843,1.497,1.4843,1.4951,1.5303,1.541,1.5703,1.6237,1.6435,1.6357,1.609,1.6527,1.6345,1.5587,1.6308,1.6534,1.6147,1.6541,1.6743,1.6743,1.6853,1.6908,1.6908,1.6908,1.6908,1.6908,1.6908,1.6908,1.6908,1.6908,1.6908,1.6908,1.6908,1.6908,1.6908,1.6908,1.6908,1.7038,1.7638,1.8442,1.9309,1.9966,2.0752,2.1537,2.1624,2.1761,2.1761,2.1761,2.1824,2.1824,2.1824,2.1874,2.1999,2.1999,2.1999,2.1999,2.1999,2.1874,2.1824,2.1824,2.1824,2.1886,2.1999,2.1999,2.2111,2.2445,2.2494,2.2677,2.3088,2.3075,2.3148,2.3267,2.2859,2.2628,2.2738,2.2211,2.1925,2.1999,2.1886,2.1824,2.1824,2.1937,2.175,2.1199,2.1453,2.1348,0.0,0.0,0.0,0.0,0.0,0.0,0.0,0.0,0.0,0.0,0.0,0.0,0.0,0.0,0.0,0.0,0.0,0.0,0.0,0.0,0.0,0.0,1.3856,1.4285,1.5176,1.4888,1.4731,1.5027,1.4925,1.5042,1.5575,1.5776,1.6045,1.6402,1.6606,1.6602,1.6246,1.6683,1.6651,1.5955,1.6541,1.6754,1.6415,1.6573,1.6691,1.676,1.676,1.6921,1.7156,1.7156,1.7248,1.7413,1.7413,1.7312,1.7156,1.7156,1.7055,1.6908,0.0,0.0,0.0,0.0,1.7107,1.7442,1.7833,1.8633,1.9573,2.0096,2.0752,2.1348,2.1434,2.1561,2.1549,2.1549,2.1624,2.1698,2.1698,2.1761,2.1812,2.1812,2.1812,2.1812,2.1812,2.1761,2.1698,2.1698,2.1698,0.0,2.1663,2.1737,2.1925,2.2211,2.2199,2.2384,2.2677,2.2652,2.264,2.2774,2.2433,2.2249,2.2359,2.1951,0.0,0.0,0.0,2.1761,2.1749,2.1661,0.0,0.0,0.0,2.1631,2.1471,2.0799,0.0,0.0,2.2066,2.2374,0.0,0.0,0.0,0.0,0.0,0.0,0.0,0.0,0.0,0.0,0.0,0.0,0.0,0.0,0.0,0.0,1.4772,1.556,1.5624,1.5022,1.4711,1.5067,1.5104,1.5304,1.5716,1.6201,1.6284,1.5882,1.6332,1.636,1.5891,1.6815,0.0,0.0,0.0,1.7226,1.6533,1.6412,1.6412,1.6533,1.6533,1.6863,1.7359,1.7359,1.756,1.7916,1.7953,1.7761,1.7423,1.7469,1.7259,1.6903,1.6927,1.6908,1.6908,1.6908,1.7373,1.8037,1.8104,0.0,0.0,2.0172,2.07,2.1221,2.1221,2.1273,2.1388,2.1388,2.1486,2.1635,2.1635,2.1635,2.1698,2.1698,2.1698,2.1698,2.1698,2.1635,2.1635,2.1635,2.1635,2.1561,2.14,2.1549,2.1635,2.1635,2.1635,2.1635,2.1635,2.1486,2.1388,2.1388,2.1273,0.0,2.14,2.1388,2.1463,2.1635,2.1635,2.1686,2.1862,2.1412,2.1461,2.2123,2.1212,2.125,2.2362,2.1335,2.1419,2.2542,2.1814,2.2016,0.0,0.0,0.0,0.0,0.0,0.0,0.0,0.0,0.0,0.0,0.0,0.0,0.0,0.0,0.0,1.478,1.4772,1.4632,1.5163,1.5103,1.504,1.5322,1.5331,1.5542,1.6109,1.5882,1.6021,1.6862,1.6581,1.6464,1.6652,1.688,1.6849,1.6564,1.6706,1.6673,1.6342,1.6342,1.6342,1.6342,1.6342,0.0,1.6519,1.6519,1.6563,1.6661,1.6973,1.7062,1.7008,1.7347,1.724,1.6911,1.6888,1.6908,1.6908,1.6908,1.7373,1.8104,1.8643,1.9375,2.0172,2.0764,2.1094,2.1221,2.1221,2.1221,0.0,2.1221,2.1285,2.1296,2.1296,2.1348,2.1463,2.1463,2.1463,2.1463,2.1463,2.1348,2.1296,2.1296,2.1296,2.1296,2.1221,2.1336,2.1411,2.1296,2.1296,2.1296,2.1296,2.1285,2.1273,2.1388,2.1388,2.1411,2.1624,2.1474,2.1388,2.1463,2.1348,2.1348,2.1463,2.1432,2.1495,2.1824,2.1561,2.1632,2.2014,2.1375,2.1493,2.2442,2.1924,2.2137,0.0,0.0,0.0,0.0,0.0,0.0,0.0,0.0,0.0,0.0,0.0,1.2658,1.3175,0.0,1.4522,1.5215,1.5274,1.5342,1.5689,1.5689,1.5686,1.5548,1.553,1.5734,1.6257,1.6026,1.6116,1.6705,1.646,1.6423,1.6612,1.6621,1.6551,1.6473,1.6403,1.6263,1.6202,1.607,1.607,1.6202,1.6202,1.6378,1.6634,1.6634,1.6741,1.6963,1.7335,1.7397,1.7237,1.7432,1.7397,1.7175,1.7,1.6801,1.6621,1.6682,1.7432,1.8432,1.8844,1.9704,2.07,2.1094,2.1221,2.1221,2.1221,2.1221,2.1221,2.1221,2.1221,2.1221,2.1221,2.1221,2.1273,2.1273,2.1273,2.1273,2.1273,2.1221,2.1221,2.1221,2.1221,2.1221,2.1221,2.1285,2.1273,2.1221,2.1221,2.1221,2.1221,2.1221,2.1221,2.1273,2.1273,2.1348,2.1423,2.1348,2.1273,2.1273,2.1221,2.1285,2.1388,2.1388,2.1474,2.1698,2.1698,2.1744,2.1813,2.1331,2.1663,2.2631,2.2255,2.2275,0.0,0.0,0.0,0.0,0.0,0.0,0.0,1.095,1.1013,1.119,1.2402,1.3375,1.3142,1.4697,1.5912,1.5417,1.585,1.6211,1.6211,1.6211,1.6087,1.5762,1.5718,1.5919,1.6245,1.6272,1.6272,1.6272,1.6272,1.6272,1.6272,1.6272,1.6272,1.6272,1.6132,1.6061,1.607,1.5867,1.5867,1.607,1.607,1.6298,1.6749,1.674,1.696,1.7367,1.7817,1.781,1.76,1.76,1.7547,1.745,1.7125,1.6764,1.6475,1.6596,1.755,1.8834,1.8967,1.9977,2.1221,2.1221,2.1221,2.1221,2.1221,2.1221,2.1221,2.1221,2.1221,2.1221,2.1221,2.1221,2.1221,2.1221,2.1221,2.1221,2.1221,2.1221,2.1221,2.1221,2.1221,2.1221,2.1221,2.1221,2.1221,2.1221,2.1221,2.1221,2.1221,2.1221,2.1221,2.1221,2.1221,2.1221,2.1221,2.1221,2.1221,2.1221,2.1221,2.1221,2.1336,2.1336,2.1348,2.1371,2.1498,2.1561,2.1434,2.1252,2.1691,2.2661,2.248,2.2544,1.1036,1.0954,1.1065,1.1646,1.1852,1.1784,0.0,1.1675,1.1481,1.1122,1.2071,1.3142,1.3753,1.4545,1.5267,1.5921,1.5929,1.5876,1.5876,1.5876,1.585,1.5807,1.5939,1.6088,1.6132,1.6132,1.6202,1.6272,1.6272,1.6272,1.6272,1.6272,1.6272,1.6132,1.6132,1.6,1.5876,1.5797,1.5797,1.5797,1.5797,1.5893,1.5936,1.5936,1.6134,1.6512,1.7235,1.7716,1.7912,1.7912,1.7794,1.7476,1.7433,1.726,1.7059,1.6723,1.755,1.8834,1.8967,1.9977,2.1221,2.1221,2.1221,2.1221,2.1221,2.1221,2.1221,2.1221,2.1221,2.1221,2.1221,2.1221,2.1221,2.1221,2.1221,2.1221,2.1221,2.1221,2.1221,2.1221,2.1221,2.1221,2.1221,2.1221,2.1221,2.1221,2.1221,2.1221,2.1221,2.1221,2.1221,2.1221,2.1221,2.1221,2.1221,2.1221,2.1221,2.1221,2.1221,2.1221,2.1221,2.1221,2.0892,2.0302,2.0892,2.1031,2.056,2.1078,2.1556,2.1851,2.2541,2.2991,1.1308,1.1655,1.207,1.2269,1.2226,1.2121,1.2134,1.1681,1.1452,1.1707,1.2576,1.3462,1.4178,1.4911,1.5497,1.5859,1.5867,1.5805,1.5805,1.5805,1.5805,1.5805,1.5867,1.5938,1.5938,1.5938,1.5929,1.6008,1.6,1.6,1.6,1.6,1.6008,1.5938,1.5938,1.5867,1.5805,1.5805,1.5805,1.5805,1.6019,1.6114,1.6122,1.6353,1.6653,1.7013,1.7329,1.7689,1.804,1.804,1.7946,1.7775,1.7552,1.745,1.7294,1.6881,1.7773,1.9104,1.906,1.9977,2.1221,2.1221,2.1221,2.1221,2.1221,2.1221,2.1221,2.1221,2.1221,2.1221,2.1221,2.1221,2.1221,2.1221,2.1221,2.1221,2.1221,2.1221,2.1221,2.1221,2.1221,2.1221,2.1221,2.1221,2.1221,2.1221,2.1221,2.1221,2.1221,2.1221,2.1221,2.1221,2.1221,2.1221,2.1221,2.1221,2.1221,2.1221,2.1221,2.1221,2.1221,2.1221,2.1031,2.0764,2.1031,2.1094,2.0892,2.1198,2.1646,2.2092,2.2558,2.2928,1.1508,1.2157,1.2767,1.2796,1.2628,1.2498,1.2622,1.1996,1.1632,1.215,1.3098,1.3962,1.453,1.5275,1.5805,1.5805,1.5805,1.5805,1.5805,1.5805,1.5805,1.5805,1.5805,1.5805,1.5805,1.5805,1.5805,1.5805,1.5805,1.5805,1.5805,1.5805,1.5805,1.5805,1.5805,1.5805,1.5805,1.5899,1.5951,1.5951,1.6328,1.6499,1.6507,1.6893,1.7209,1.7475,1.7578,1.7783,1.804,1.804,1.804,1.8006,1.7732,1.7708,1.77,1.7269,1.7949,1.9023,1.8785,1.9704,2.0892,2.0892,2.1031,2.1221,2.1221,2.1221,2.1221,2.1221,2.1221,2.1221,2.1221,2.1221,2.1221,2.1221,2.1221,2.1221,2.1221,2.1221,2.1221,2.1221,2.1221,2.1221,2.1221,2.1221,2.1221,2.1221,2.1221,2.1221,2.1221,2.1221,2.1221,2.1221,2.1221,2.1221,2.1221,2.1221,2.1221,2.1221,2.1221,2.1221,2.1221,2.1221,2.1094,2.0892,2.1094,2.1031,2.056,2.1083,2.1514,2.1803,2.2298,2.2742,1.179,1.2258,1.2749,1.3431,1.3189,1.2997,1.3389,1.2806,1.2305,1.2298,1.3528,1.4601,1.4601,1.5275,1.5805,1.5805,1.5805,1.5805,1.5805,1.5805,1.5805,1.5805,1.5805,1.5805,1.5805,1.5805,1.5805,1.5805,1.5805,1.5805,1.5805,1.5805,1.5805,1.5805,1.5805,1.5805,1.5805,1.6156,1.6328,1.6319,1.6713,1.6901,1.6918,1.7287,1.7458,1.7492,1.786,1.8031,1.804,1.804,1.804,1.804,1.8023,1.8175,1.8292,1.7909,1.7875,1.8062,1.8047,1.8967,2.0096,2.0096,2.0635,2.1221,2.1221,2.1221,2.1221,2.1221,2.1221,2.1221,2.1221,2.1221,2.1221,2.1221,2.1221,2.1221,2.1221,2.1221,2.1221,2.1221,2.1221,2.1221,2.1221,2.1221,2.1221,2.1221,2.1221,2.1221,2.1221,2.1221,2.1221,2.1221,2.1221,2.1221,2.1221,2.1221,2.1221,2.1221,2.1221,2.1221,2.1221,2.1221,2.0892,2.0172,2.0828,2.0495,1.9044,2.0495,2.0828,2.0226,2.1741,2.2421,1.218,1.2251,1.2458,1.3372,1.2964,1.2572,1.3606,1.2952,1.2445,1.36,1.4243,1.4601,1.4601,1.5275,1.5655,1.5054,1.5426,1.5805,1.5805,1.5805,1.5805,1.5805,1.5805,1.5805,1.5805,1.5805,1.5805,1.5805,1.5805,1.5805,1.5805,1.5805,1.5805,1.5805,1.5805,1.5805,1.5805,1.6165,1.6418,1.6353,1.6978,1.7415,1.7663,1.7792,1.7843,1.7852,1.798,1.804,1.804,1.804,1.804,1.804,1.804,1.804,1.8069,1.7856,1.7693,1.7532,1.7849,1.8478,1.9034,1.9034,1.9628,2.0268,2.0268,2.0677,2.1221,2.1221,2.1221,2.1221,2.1221,2.1221,2.1221,2.1221,2.1221,2.1221,2.1221,2.1221,2.1221,2.1221,2.1221,2.1221,2.1221,2.1221,2.1221,2.1221,2.1221,2.1221,2.1221,2.1221,2.1221,2.1221,2.1221,2.1221,2.1221,2.1221,2.1221,2.1221,2.1221,2.1221,2.1221,2.1221,2.0828,2.0096,2.0366,2.0237,1.9704,2.0237,2.056,2.0828,2.1336,2.1765,1.205,1.2251,1.2578,1.3263,1.2964,1.277,1.3628,1.3171,1.2879,1.4099,1.4609,1.4824,1.4982,1.5426,1.5655,1.5125,1.5426,1.5805,1.5805,1.5805,1.5805,1.5805,1.5805,1.5805,1.5805,1.5805,1.5805,1.5805,1.5805,1.5805,1.5805,1.5805,1.5805,1.5805,1.5805,1.5805,1.5805,1.6302,1.6687,1.6961,1.7441,1.78,1.804,1.804,1.804,1.804,1.804,1.804,1.804,1.804,1.804,1.804,1.804,1.804,1.8006,1.7925,1.751,1.7151,1.7479,1.7834,1.8094,1.8094,1.868,1.9344,1.9333,1.9998,2.0677,2.042,2.0764,2.1158,2.0903,2.1031,2.1221,2.1221,2.1221,2.1221,2.1221,2.1221,2.1221,2.1221,2.0967,2.0828,2.0828,2.0828,2.0828,2.0828,2.1031,2.1221,2.1221,2.1221,2.1221,2.1221,2.1221,2.1221,2.1221,2.1221,2.1221,2.1221,2.1221,2.1221,2.1221,2.1221,2.0967,2.0495,2.0495,2.0366,2.0096,2.0366,2.0624,2.0828,2.1094,2.1336,1.1622,1.2345,1.3042,1.3042,1.3267,1.3462,1.3535,1.3535,1.3608,1.397,1.4625,1.5275,1.5655,1.5726,1.5726,1.5726,1.5726,1.5805,1.5805,1.5805,1.5805,1.5805,1.5805,1.5805,1.5805,1.5797,1.5797,1.5805,1.5805,1.5805,1.5805,1.5805,1.5805,1.5805,1.5805,1.5805,1.5805,1.6542,1.7287,1.8006,1.8031,1.804,1.804,1.804,1.804,1.804,1.804,1.804,1.804,1.804,1.804,1.804,1.804,1.804,1.804,1.8031,1.756,1.7018,1.6931,1.7088,1.7335,1.7335,1.7813,1.8432,1.8402,1.9058,1.9596,1.8957,1.9901,2.0892,2.0226,2.056,2.1094,2.1094,2.1094,2.1094,2.1158,2.1158,2.1158,2.1158,2.0571,2.0096,2.0172,2.0161,2.0161,2.0161,2.0764,2.1221,2.1221,2.1221,2.1221,2.1221,2.1221,2.1221,2.1221,2.1221,2.1221,2.1221,2.1221,2.1221,2.1221,2.1221,2.1158,2.1158,2.1158,2.0828,2.0096,2.0828,2.0828,2.0161,2.0892,2.1158,1.1622,1.2093,1.2646,1.2646,1.2713,1.3032,1.376,1.3608,1.3528,1.4274,1.4633,1.4633,1.4194,1.4561,1.4784,1.4482,1.4991,1.5426,1.5726,1.5805,1.5805,1.5805,1.5805,1.5805,1.5805,1.6132,1.6202,1.5797,1.5805,1.5805,1.5805,1.5805,1.5805,1.5805,1.5805,1.5805,1.5805,1.6542,1.715,1.7612,1.7903,1.804,1.804,1.804,1.804,1.804,1.804,1.804,1.804,1.804,1.804,1.804,1.804,1.8282,1.8683,1.8201,1.8099,1.8082,1.7248,1.6628,1.6202,1.6202,1.6742,1.7482,1.7482,1.8085,1.8834,1.8633,1.8967,1.9299,1.8967,1.9243,1.9628,2.0074,1.9814,1.9835,2.0955,2.0764,2.0366,2.0366,2.0237,2.0302,2.0828,2.0892,2.0892,2.0892,2.1094,2.1221,2.1221,2.1221,2.1221,2.1221,2.1221,2.1221,2.1221,2.1221,2.1221,2.1221,2.1221,2.1221,2.1221,2.1221,2.0955,2.0366,2.0366,2.0302,2.0096,2.0302,2.056,2.0892,2.1094,2.0903,1.1685,1.2028,1.2519,1.2519,1.272,1.3119,1.3702,1.355,1.3542,1.4274,1.4353,1.4274,1.4049,1.4346,1.4633,1.476,1.484,1.5204,1.5929,1.5718,1.5576,1.5805,1.5805,1.5867,1.6132,1.6403,1.6542,1.6491,1.6272,1.607,1.5797,1.5805,1.5805,1.5805,1.5805,1.5882,1.6036,1.6627,1.7107,1.7475,1.786,1.804,1.804,1.804,1.804,1.804,1.804,1.804,1.804,1.804,1.804,1.804,1.804,1.8201,1.8523,1.8121,1.7943,1.7877,1.7428,1.6779,1.6132,1.6132,1.6612,1.7226,1.7226,1.7901,1.8509,1.7978,1.8566,1.9233,1.8509,1.89,1.9562,2.002,1.9901,1.9911,2.0764,2.0764,2.0495,2.0161,2.0096,2.0096,2.0226,2.0495,2.07,2.07,2.0955,2.1221,2.1221,2.1221,2.1221,2.1221,2.1221,2.1221,2.1221,2.1221,2.1221,2.1221,2.1221,2.1221,2.1221,2.1221,2.1031,2.056,2.056,2.056,2.056,2.056,2.0828,2.1221,2.1221,2.1019,1.1856,1.2093,1.2519,1.2519,1.3009,1.3492,1.3492,1.3492,1.3564,1.392,1.3985,1.4137,1.4497,1.4497,1.4776,1.5692,1.5196,1.5133,1.6272,1.5842,1.5559,1.5859,1.5938,1.614,1.6473,1.6673,1.6959,1.7304,1.6959,1.6473,1.5938,1.5876,1.5805,1.5805,1.5805,1.5951,1.6259,1.6644,1.703,1.7398,1.7863,1.806,1.804,1.8112,1.8121,1.804,1.804,1.804,1.804,1.804,1.804,1.804,1.804,1.8031,1.8112,1.798,1.7596,1.7203,1.7432,1.7225,1.6811,1.6742,1.7028,1.7373,1.7373,1.7969,1.8365,1.7304,1.8307,1.9497,1.8375,1.8977,1.9901,2.0313,2.0366,2.0377,2.0635,2.0903,2.0892,2.0366,2.0172,1.9901,1.9375,1.9835,2.0237,2.0237,2.0764,2.1221,2.1221,2.1221,2.1221,2.1221,2.1221,2.1221,2.1221,2.1221,2.1221,2.1221,2.1221,2.1221,2.1221,2.1221,2.1221,2.1221,2.1221,2.1221,2.1221,2.1221,2.1221,2.1221,2.1221,2.121,1.2389,1.2402,1.2519,1.2519,1.3009,1.3492,1.3492,1.3492,1.3492,1.3564,1.3564,1.371,1.4129,1.4201,1.4561,1.5621,1.5692,1.5903,1.689,1.6959,1.6751,1.6473,1.6821,1.683,1.6008,1.7166,1.7647,1.6811,1.7028,1.7028,1.6473,1.607,1.5805,1.5805,1.5805,1.5831,1.5891,1.6251,1.6627,1.7021,1.7923,1.8197,1.804,1.8594,1.8523,1.804,1.804,1.804,1.804,1.804,1.804,1.804,1.804,1.8362,1.8718,1.7917,1.7894,1.8193,1.7066,1.7213,1.792,1.7442,1.7304,1.7373,1.7373,1.751,1.7579,1.7373,1.7706,1.8046,1.7647,1.793,1.8529,1.9309,1.9166,1.9299,2.0764,2.07,2.0431,2.0892,2.0495,2.0226,2.0764,2.0892,2.1031,2.1031,2.1094,2.1221,2.1221,2.1221,2.1221,2.1221,2.1221,2.1221,2.1221,2.1221,2.1221,2.1221,2.1221,2.1221,2.1221,2.1221,2.1221,2.1221,2.1221,2.1221,2.1221,2.1221,2.1221,2.1221,2.1221,2.0892,1.313,1.2901,1.2887,1.3462,1.3424,1.3423,1.3939,1.3912,1.3775,1.3564,1.3783,1.4065,1.4129,1.4274,1.4705,1.5621,1.5683,1.6035,1.7028,1.7088,1.7019,1.7028,1.7235,1.7314,1.7107,1.751,1.7725,1.7501,1.7442,1.7166,1.6603,1.607,1.5805,1.5805,1.5805,1.5805,1.5805,1.6156,1.6422,1.6619,1.7491,1.8021,1.8215,1.8744,1.8984,1.8966,1.8966,1.8966,1.8966,1.8966,1.8966,1.8966,1.8966,1.9016,1.9049,1.8538,1.8377,1.826,1.7775,1.7932,1.8269,1.8259,1.8259,1.8259,1.793,1.8056,1.8259,1.793,1.8124,1.8327,1.7998,1.8337,1.8998,1.9573,1.9639,1.9901,2.0967,2.0764,2.0506,2.1094,2.0892,2.0764,2.1158,2.1221,2.1221,2.1221,2.1221,2.1285,2.1514,2.1588,2.1463,2.1221,2.1221,2.1221,2.1221,2.1221,2.1221,2.1221,2.1221,2.1221,2.1221,2.1221,2.1221,2.1221,2.1221,2.1221,2.1221,2.1221,2.1411,2.1827,2.1827,2.1803,1.3863,1.3574,1.362,1.4456,1.4228,1.3964,1.4664,1.4617,1.4274,1.3855,1.4209,1.4569,1.4346,1.4633,1.5133,1.5974,1.6035,1.6376,1.7373,1.7432,1.7354,1.7579,1.7716,1.7852,1.8066,1.793,1.792,1.8269,1.7725,1.7166,1.6603,1.607,1.5805,1.5805,1.5805,1.5805,1.5805,1.6079,1.6259,1.6345,1.7095,1.7646,1.8127,1.8608,1.9094,1.9381,1.9631,1.9678,1.9747,1.9731,1.9771,1.9762,1.9676,1.9382,1.909,1.8995,1.8552,1.8048,1.8385,1.8419,1.8337,1.8664,1.8865,1.9008,1.8607,1.8741,1.9008,1.8674,1.8875,1.9131,1.8798,1.9198,1.9791,2.0107,2.0495,2.0828,2.1285,2.1019,2.0828,2.1285,2.1285,2.1221,2.1221,2.1285,2.1348,2.1348,2.1463,2.1639,2.2002,2.2063,2.1877,2.1526,2.14,2.1348,2.1348,2.1348,2.1348,2.1348,2.1463,2.1526,2.1526,2.14,2.1348,2.1348,2.1221,2.1221,2.1348,2.1348,2.1702,2.2433,2.2433,2.2725,1.4579,1.4656,1.4898,1.4892,1.5507,1.6008,1.5503,1.5392,1.5188,1.4633,1.4569,1.4713,1.5062,1.5551,1.6114,1.6959,1.7451,1.7998,1.8539,1.8674,1.8539,1.8269,1.8674,1.8529,1.7588,1.8395,1.8741,1.8337,1.7725,1.7166,1.6603,1.607,1.5805,1.5805,1.5805,1.5805,1.5805,1.584,1.6019,1.6426,1.6998,1.7211,1.7054,1.8032,1.8211,1.777,1.8682,1.9073,1.9125,1.9217,1.9288,1.9259,1.8882,1.8722,1.8637,1.8241,1.8052,1.793,1.7631,1.7891,1.8202,1.7716,1.8259,1.9075,1.9075,1.9065,1.9142,1.9407,1.9539,1.9605,1.9846,1.9966,2.0172,2.0442,2.0839,2.1285,2.1765,2.1463,2.1273,2.1765,2.1463,2.1221,2.1221,2.1526,2.1827,2.1827,2.2175,2.2482,2.2531,2.2543,2.2543,2.2482,2.2063,2.1827,2.1827,2.1827,2.1827,2.1827,2.2237,2.2482,2.2482,2.2063,2.1827,2.1827,2.14,2.14,2.1827,2.1827,2.2063,2.2592,2.2592,2.2592,1.5921,1.5663,1.5684,1.6255,1.6059,1.5814,1.6559,1.6258,1.5683,1.5259,1.5213,1.5292,1.5204,1.5833,1.6464,1.6821,1.7579,1.8269,1.8472,1.8808,1.8942,1.8808,1.932,1.9386,1.8529,1.8921,1.8988,1.8337,1.7725,1.7442,1.7647,1.6482,1.5938,1.6272,1.6272,1.6412,1.676,1.676,1.6842,1.6997,1.7518,1.7856,1.8106,1.8803,1.9132,1.929,1.9697,1.985,1.984,1.9885,1.9889,1.9869,1.9773,1.9553,1.9303,1.9114,1.8874,1.8624,1.8454,1.8596,1.8731,1.8529,1.8731,1.9075,1.8741,1.9008,1.9407,1.9539,1.9726,1.9911,2.0042,2.0484,2.0944,2.1325,2.1514,2.1588,2.1526,2.1348,2.1348,2.1827,2.1765,2.1702,2.2002,2.2175,2.2298,2.2298,2.247,2.2725,2.3065,2.3065,2.3185,2.3484,2.2798,2.2298,2.2298,2.2298,2.2298,2.2298,2.2482,2.2592,2.2592,2.2421,2.2298,2.2298,2.2125,2.2113,2.2298,2.2298,2.2665,2.3314,2.3314,2.3492,1.7056,1.68,1.6818,1.755,1.694,1.6457,1.759,1.713,1.6381,1.6149,1.6053,1.5921,1.57,1.6184,1.6673,1.6811,1.7647,1.8337,1.8539,1.8875,1.9075,1.9075,1.9528,1.9649,1.9142,1.9187,1.9054,1.8539,1.7988,1.7862,1.8269,1.7038,1.6421,1.6811,1.6811,1.7028,1.7373,1.7373,1.7373,1.7382,1.7665,1.8018,1.8457,1.8877,1.9278,1.9727,2.0002,2.0135,2.0124,2.0215,2.0224,2.0213,2.0079,1.9831,1.9619,1.9619,1.9354,1.9075,1.9075,1.9075,1.9075,1.9075,1.9075,1.8998,1.8674,1.9008,1.9605,1.9726,2.0053,2.0431,2.0431,2.088,2.1463,2.1815,2.1877,2.1889,2.1839,2.1714,2.1765,2.2261,2.2187,2.2237,2.2531,2.2725,2.2859,2.2859,2.298,2.3173,2.3569,2.3641,2.376,2.4054,2.3484,2.298,2.2859,2.2859,2.2859,2.2859,2.298,2.304,2.304,2.2919,2.2859,2.2859,2.2665,2.2665,2.2859,2.2859,2.322,2.4034,2.393,2.4176,1.7743,1.8112,1.8619,1.851,1.8612,1.871,1.8438,1.7975,1.7537,1.7425,1.6959,1.6603,1.6603,1.6603,1.6742,1.7314,1.793,1.8472,1.9008,1.9075,1.9075,1.9075,1.9142,1.9131,1.9075,1.9075,1.9075,1.9065,1.8607,1.8269,1.8269,1.7716,1.7382,1.7373,1.7373,1.7373,1.7373,1.7373,1.7373,1.7373,1.7382,1.7382,1.7401,1.7807,1.7986,1.8086,1.9072,1.9538,1.9508,1.9735,1.9837,1.9796,1.9261,1.9085,1.9075,1.9075,1.9075,1.9075,1.9075,1.9075,1.9075,1.9075,1.9075,1.9075,1.9065,1.9341,1.9671,1.9977,2.0635,2.1158,2.1158,2.1221,2.1348,2.1765,2.1877,2.2199,2.315,2.2932,2.2725,2.3271,2.2932,2.2592,2.2592,2.3065,2.3403,2.3403,2.376,2.4112,2.4112,2.4112,2.4112,2.4112,2.4112,2.3878,2.3463,2.3403,2.3403,2.3403,2.3819,2.4054,2.4054,2.3641,2.3403,2.3403,2.2859,2.2859,2.3403,2.3403,2.3793,2.4509,2.4216,2.439,1.8578,1.8363,1.829,1.8221,1.8194,1.83,1.8611,1.8392,1.8134,1.8082,1.7562,1.7028,1.6673,1.7226,1.7579,1.695,1.7978,1.8808,1.8607,1.9253,1.9781,1.9781,1.9781,1.9977,2.042,1.9649,1.9075,1.9075,1.8942,1.8875,1.8875,1.8664,1.8395,1.8066,1.7998,1.8192,1.8529,1.8529,1.8529,1.8529,1.8529,1.8529,1.8596,1.867,1.873,1.8741,1.9087,1.9216,1.9206,1.9276,1.9292,1.9282,1.9127,1.9396,1.9781,1.9781,2.0096,2.042,1.9977,2.0096,2.0355,1.9911,2.0096,2.0484,2.0484,2.0042,1.9802,2.0752,2.1135,2.1526,2.2469,2.2714,2.2714,2.2896,2.2957,2.2884,2.2859,2.2725,2.2738,2.3271,2.3271,2.3258,2.3556,2.3747,2.3878,2.3878,2.3995,2.4112,2.4112,2.4447,2.4734,2.4734,2.5048,2.4865,2.3936,2.3878,2.3878,2.3878,2.3995,2.4112,2.4112,2.3936,2.3878,2.3878,2.3734,2.3897,2.4492,2.4492,2.4851,2.5536,2.5439,2.5618,1.927,1.8804,1.8429,1.8429,1.8224,1.8046,1.8407,1.85,1.8599,1.8775,1.8243,1.7773,1.7658,1.7842,1.792,1.7687,1.8509,1.9187,1.9309,2.0031,2.0484,2.0484,2.0484,2.0613,2.106,2.0355,1.9846,1.9846,1.9846,1.9715,1.9462,1.9462,1.9198,1.8607,1.8607,1.8741,1.9075,1.9075,1.9075,1.9075,1.9075,1.9075,1.9075,1.9075,1.9075,1.9075,1.9075,1.9075,0.0,1.9075,1.9075,1.9131,1.9396,1.9715,2.0096,2.0355,2.0741,2.106,2.0613,2.0741,2.0996,2.0613,2.0741,2.106,2.0805,2.0549,2.0549,2.1514,2.1776,2.1963,2.2884,2.3125,2.3138,2.333,2.3403,2.333,2.3173,2.316,2.3233,2.3569,2.3641,2.376,2.4054,2.4112,2.4171,2.439,2.4447,2.4505,2.4708,2.5104,2.5314,2.5314,2.5577,2.5522,2.4821,2.4563,2.4345,2.4112,2.4112,2.4229,2.4447,2.4447,2.4549,2.4708,2.4765,2.4935,2.5314,2.5425,2.5632,2.5918,2.6026,2.6269,0.0,1.9448,1.904,1.904,1.859,1.8164,1.8056,1.8487,0.0,1.9432,1.9018,1.8732,1.927,1.8375,1.7978,1.91,1.9299,1.9759,2.0869,2.1123,2.1187,2.125,2.1187,2.1187,2.1187,2.1123,2.1123,2.1123,2.1123,2.0805,2.0226,2.0161,1.9911,1.9264,1.9198,1.9198,1.9198,1.9198,1.9198,1.9264,1.9264,1.9264,1.9264,1.9264,1.9264,1.9264,1.9264,1.9264,1.9264,1.9198,1.9198,1.9264,1.9846,2.0107,2.0291,2.0805,2.1123,2.125,2.1123,2.1187,2.125,2.125,2.125,2.1123,2.0484,2.0921,2.169,2.2161,2.2347,2.2469,2.2616,2.2665,2.2847,2.3378,2.3463,2.3582,2.4054,2.4112,2.4112,2.4112,2.4112,2.4171,2.4171,2.4229,2.439,2.4948,2.5061,2.5258,2.5783,2.5877,2.5946,2.5946,2.5946,2.5986,2.5972,2.5412,2.4835,2.4287,2.4229,2.4505,2.5061,2.5061,2.5314,2.5837,2.5877,2.5932,2.5986,2.6375,2.6375,2.6094,2.6361,2.6587,2.0771,0.0,1.9186,1.9279,1.9214,1.9093,0.0,1.9444,1.9937,2.0297,2.0199,1.9986,2.0083,1.9738,1.9365,1.9145,1.9552,1.9955,2.0063,2.1089,2.2051,2.2567,2.2187,2.1865,2.1865,2.1376,2.1123,2.1123,2.1123,2.0996,2.0869,2.0869,2.0805,2.0613,2.0096,1.9835,1.9835,1.9835,2.0096,2.0613,2.0613,2.0613,2.0613,2.0613,2.0613,2.0613,2.0613,2.0613,2.0613,2.0107,2.0161,2.0549,1.9649,2.0279,2.1542,2.0666,2.1302,2.2506,2.1439,2.1753,2.2628,2.2628,2.2628,2.2628,2.2433,2.1815,2.125,2.1588,2.2013,2.2567,2.3378,2.3569,2.3747,2.4434,2.4274,2.4112,2.4664,2.4447,2.4112,2.4112,2.4447,2.4778,2.4778,2.5147,2.5467,2.5577,2.5632,2.5823,2.6342,2.6828,2.7115,2.7115,2.747,2.7674,2.7489,2.6328,2.5577,2.5412,2.5494,2.5591,2.5769,2.5863,2.5986,2.6079,2.6916,2.7495,2.7844,2.8403,2.867,2.8685,2.8794,2.8856,2.1093,2.0374,1.9567,1.9423,1.9423,1.9319,1.9056,1.9605,2.0188,2.0404,2.0586,2.07,2.0827,2.1019,2.1043,2.0482,2.1043,2.1483,2.133,2.2039,2.2677,2.3078,2.275,2.2555,2.2555,2.2249,2.2002,2.2002,2.2002,2.1877,2.1553,2.125,2.0933,2.0677,2.0291,2.0226,2.0549,2.0226,2.042,2.1123,2.1123,2.1123,2.1123,2.1123,2.1123,2.1123,2.1123,2.1123,2.106,2.0741,2.0741,2.106,2.0666,2.1152,2.2039,2.1616,2.2187,2.3017,2.2261,2.2506,2.3078,2.3078,2.3078,2.3065,2.275,2.2445,2.2199,2.2273,2.2798,2.3458,2.4073,2.4274,2.4447,2.4892,2.4563,2.4287,2.4892,2.4721,2.462,2.4821,2.5147,2.5467,2.57,2.5943,2.6304,2.6813,2.6916,2.7019,2.7324,2.7655,2.7951,2.81,2.8403,2.8685,2.8984,2.8295,2.7591,2.7051,2.7121,2.7235,2.7325,2.7474,2.7569,2.7674,2.8259,2.8685,2.8902,2.9239,2.9451,2.9496,2.9496,2.968,2.1295,2.1055,2.0529,1.9953,1.9812,1.9658,1.9097,1.9683,2.0386,2.0341,2.0736,2.1223,2.1707,2.2174,2.2506,2.2396,2.2845,2.3263,2.3412,2.3365,2.3365,2.3365,2.3305,2.3245,2.3245,2.3138,2.3078,2.3078,2.3078,2.2871,2.2298,2.1678,2.1123,2.0613,2.0473,2.0741,2.1376,2.0741,2.0741,2.1376,2.1376,2.1376,2.1376,2.1376,2.1376,2.1376,2.1376,2.1376,2.1376,2.1313,2.1313,2.1439,2.1803,2.2051,2.2298,2.2689,2.2944,2.3078,2.3078,2.3078,2.3078,2.3078,2.3138,2.3065,2.2494,2.2871,2.3569,2.3569,2.3839,2.4292,2.4624,2.4751,2.4892,2.516,2.4778,2.4549,2.5258,2.5314,2.5412,2.5918,2.6079,2.6318,2.6784,2.6938,2.728,2.8261,2.8419,2.8482,2.867,2.8717,2.8825,2.9173,2.9201,2.9567,3.0399,3.0439,3.0137,2.9306,2.9076,2.9038,2.927,2.9442,2.9609,2.9848,2.9848,2.9891,2.9976,2.9976,2.9976,2.9976,2.9976,3.0277,2.2177,2.281,2.314,2.1965,2.169,2.1547,2.1042,2.1104,2.1193,2.112,2.154,2.2188,2.3109,2.2908,2.2822,2.3433,2.3564,2.3787,2.461,2.4724,2.4724,2.4724,2.4292,2.3956,2.3956,2.3424,2.3078,2.3078,2.3078,2.3078,2.2944,2.2823,2.2763,2.2628,2.2113,2.2113,2.2823,2.2113,2.2113,2.2823,2.2823,2.2823,2.2823,2.2823,2.2823,2.2823,2.2823,2.2823,2.2763,2.2175,2.231,2.2702,2.1628,2.1939,2.2811,2.1815,2.2137,2.3078,2.3078,2.3078,2.3078,2.3078,2.321,2.333,2.321,2.3721,2.435,2.435,2.4015,2.3852,2.4509,2.4681,2.5021,2.6176,2.596,2.5823,2.6909,2.6709,2.6524,2.6982,2.7465,2.7841,2.7939,2.837,2.8872,2.9416,2.9444,2.9751,3.0492,3.0573,3.0613,3.0654,3.0694,3.092,3.16,3.1636,3.1985,3.2773,3.1351,3.0627,3.107,3.1235,3.1516,3.1911,3.1945,3.213,3.2545,3.2545,3.2545,3.2545,3.2545,3.259,2.26,2.3474,2.4185,2.4079,2.3701,2.3293,2.3079,2.3036,2.2878,2.2465,2.3119,2.3848,2.4354,2.5029,2.5596,2.5891,2.557,2.5341,2.5466,2.548,2.5439,2.5398,2.512,2.4867,2.4624,2.4002,2.3767,2.4105,2.3471,2.3258,2.3603,2.328,2.3027,2.3027,2.3037,2.3204,2.3526,2.3644,2.3505,2.3078,2.3078,2.3078,2.3078,2.3078,2.3078,2.3138,2.3484,2.3662,2.3603,2.3339,2.3339,2.3531,2.2555,2.2567,2.3078,2.2786,2.3148,2.3826,2.4105,2.4266,2.4323,2.4323,2.4394,2.4452,2.4452,2.4794,2.5063,2.5063,2.5063,2.5119,2.5563,2.5863,2.625,2.6975,2.6879,2.6821,2.7709,2.7644,2.7629,2.8196,2.8654,2.9069,2.9339,2.9794,3.0294,3.0704,3.0784,3.0824,3.0965,3.1108,3.1264,3.1433,3.1581,3.1969,3.2751,3.2936,3.3231,3.3625,3.2711,3.2325,3.2654,3.2603,3.2713,3.3051,3.3051,3.3148,3.3368,3.3368,3.3368,3.3368,3.3368,3.3542,2.3116,2.4158,2.5226,2.5913,2.5419,2.475,2.4724,2.4686,2.449,2.3825,2.4676,2.5485,2.5379,2.6778,2.7915,2.7804,2.7304,2.687,2.6681,2.648,2.6261,2.6169,2.6008,2.5767,2.5425,2.4824,2.4654,2.5148,2.4253,2.38,2.4073,2.3551,2.3242,2.3242,2.3677,2.4013,2.4187,2.4697,2.4496,2.3531,2.3531,2.3531,2.3531,2.3531,2.3531,2.359,2.4118,2.4292,2.4292,2.4292,2.435,2.4292,2.3767,2.359,2.3708,2.4234,2.4452,2.4624,2.5204,2.5481,2.5577,2.5713,2.5767,2.5821,2.5821,2.5997,2.6212,2.6212,2.6634,2.7049,2.6797,2.7063,2.7525,2.792,2.7957,2.804,2.87,2.8854,2.9007,2.9597,2.9972,3.0319,3.0744,3.1043,3.1442,3.1933,3.2004,3.1915,3.1666,3.1741,3.1969,3.2338,3.2527,3.2937,3.3789,3.4091,3.4186,3.4052,3.3742,3.3732,3.4071,3.3927,3.3881,3.4035,3.4037,3.4031,3.4031,3.4031,3.4031,3.4031,3.4031,3.4278,2.4028,2.5513,2.7126,2.7178,2.6471,2.5787,2.5712,2.5557,2.531,2.4955,2.5825,2.657,2.6264,2.7088,2.7804,2.7786,2.7674,2.7867,2.8837,2.8148,2.755,2.7585,2.6931,2.6515,2.6477,2.5915,2.5576,2.5644,2.5576,2.5107,2.4176,2.406,2.4002,2.4002,2.406,2.4337,2.4951,2.4951,2.4951,2.4838,2.4838,2.4838,2.4838,2.4838,2.4838,2.4851,2.4894,2.4951,2.4951,2.4951,2.5007,2.5119,2.5063,2.5119,2.5231,2.5287,2.5287,2.5384,2.5847,2.6034,2.6126,2.6549,2.6857,2.6988,2.6988,2.7485,2.8036,2.8036,2.8701,2.913,2.7788,2.7788,2.8372,2.931,2.9532,2.9735,3.0613,3.079,3.0926,3.1418,3.1548,3.166,3.1915,3.2022,3.2213,3.2805,3.2898,3.3009,3.3379,3.3426,3.3532,3.3732,3.3766,3.4005,3.4572,3.4814,3.4948,3.4995,3.4639,3.4641,3.5166,3.5283,3.535,3.5364,3.536,3.5364,3.5364,3.5364,3.5364,3.5364,3.5364,3.5383,2.5112,2.6358,2.7677,2.8164,2.8124,2.7878,2.7614,2.749,2.7233,2.657,2.7604,2.8885,2.9651,3.0554,3.0946,3.0268,3.0104,3.0121,3.0162,2.9884,2.9599,2.9496,2.9271,2.8714,2.7844,2.7255,2.6916,2.6946,2.6275,2.5926,2.6154,2.5901,2.5901,2.6154,2.6079,2.6361,2.7049,2.6805,2.6872,2.7151,2.5686,2.5007,2.5007,2.5301,2.5301,2.5175,2.6169,2.6471,2.625,2.6562,2.6703,2.6703,2.6347,2.6227,2.6332,2.6688,2.6924,2.7092,2.7674,2.7887,2.8003,2.8181,2.8276,2.8387,2.8654,2.89,2.9204,2.9392,2.9943,3.0245,2.9159,2.9396,3.0044,3.041,3.0727,3.1038,3.1363,3.1571,3.1754,3.1933,3.2264,3.2548,3.2645,3.2872,3.3148,3.3515,3.3561,3.3658,3.3938,3.4106,3.4251,3.4367,3.4551,3.4793,3.5182,3.5087,3.5155,3.5509,3.5193,3.5143,3.5456,3.5587,3.5682,3.5816,3.581,3.5802,3.5802,3.5779,3.575,3.5754,3.5701,3.5683,2.606,2.7214,2.8442,2.8985,2.9214,2.9268,2.9031,2.8927,2.8753,2.8225,2.9133,3.0414,3.1737,3.2488,3.2638,3.1917,3.1758,3.1631,3.1394,3.1053,3.078,3.0683,3.0603,3.022,2.9259,2.8774,2.856,2.8607,2.7667,2.734,2.7799,2.74,2.7265,2.7579,2.7575,2.7853,2.8465,2.8176,2.8321,2.881,2.7113,2.6261,2.6197,2.6486,2.6538,2.6371,2.746,2.7758,2.751,2.789,2.8036,2.8069,2.7817,2.7722,2.7786,2.8199,2.8498,2.8777,2.9371,2.9641,2.9729,2.9859,2.9903,2.9972,3.0344,3.0451,3.0516,3.0813,3.123,3.1485,3.0903,3.1014,3.1387,3.1482,3.1809,3.2144,3.2282,3.2482,3.2674,3.2674,3.3057,3.3405,3.3442,3.3705,3.3949,3.4181,3.4236,3.4269,3.4417,3.4605,3.4766,3.4876,3.5115,3.5334,3.5548,3.5357,3.539,3.5774,3.558,3.5521,3.5656,3.5701,3.5807,3.5936,3.5932,3.5948,3.5948,3.5885,3.5873,3.5869,3.581,3.5806,2.6795,2.8183,2.9613,2.9608,2.9602,2.9639,2.978,2.9642,2.9588,2.9848,3.02,3.0774,3.2009,3.2231,3.2231,3.2231,3.2052,3.2072,3.253,3.1578,3.0819,3.0819,3.07,3.0603,3.0603,3.0603,3.0603,3.0603,3.0103,2.9479,2.877,2.8217,2.7911,2.7944,2.8232,2.856,2.8841,2.8841,2.9069,2.961,2.9275,2.8993,2.8732,2.8732,2.8732,2.8732,2.8732,2.8701,2.8623,2.8717,2.8795,2.8982,2.9492,2.9724,2.9724,2.9724,2.9917,3.031,3.0853,3.1004,3.1082,3.1548,3.1714,3.175,3.2039,3.2092,3.2144,3.2345,3.2688,3.2991,3.2991,3.258,3.2196,3.2515,3.2805,3.3118,3.353,3.3752,3.3906,3.3906,3.4067,3.4263,3.4478,3.4499,3.46,3.4869,3.4902,3.4923,3.5003,3.5002,3.5078,3.5281,3.5476,3.5624,3.5682,3.5691,3.5716,3.5783,3.58,3.5784,3.5802,3.5806,3.5796,3.5796,3.5797,3.5811,3.5811,3.5811,3.5799,3.58,3.58,3.58,2.7576,2.8885,3.021,3.0113,3.0134,3.0166,3.021,2.9879,2.9944,3.1297,3.1599,3.2042,3.3536,3.3809,3.3728,3.3442,3.3368,3.332,3.3302,3.3009,3.2769,3.2769,3.2737,3.236,3.1399,3.1436,3.121,3.0435,3.0468,3.0434,3.0203,2.9901,2.9772,2.9923,2.9544,2.9604,3.0201,3.0067,3.0261,3.0818,3.079,3.0319,2.9479,2.9858,2.9901,2.9637,3.0336,3.0533,3.0328,3.0664,3.0841,3.0897,3.1038,3.1133,3.1133,3.1133,3.1274,3.1539,3.1737,3.1863,3.2022,3.216,3.2194,3.2262,3.2627,3.2741,3.2805,3.3148,3.3421,3.3625,3.3625,3.371,3.3732,3.3561,3.3597,3.3705,3.3969,3.4186,3.4304,3.4304,3.4534,3.4699,3.4773,3.4783,3.4861,3.5137,3.5174,3.5269,3.5463,3.5485,3.5511,3.5563,3.569,3.5618,3.5369,3.5354,3.5206,3.4918,3.4883,3.5162,3.5775,3.5793,3.5801,3.5801,3.5794,3.5805,3.5805,3.5747,3.5728,3.5723,3.5723,3.5723,2.8103,2.9199,3.0248,3.0185,3.0271,3.0371,3.0383,3.016,3.0433,3.2097,3.2393,3.281,3.4371,3.4661,3.4578,3.4338,3.4204,3.4086,3.3975,3.3831,3.3716,3.3716,3.3643,3.3243,3.2444,3.2444,3.2228,3.1591,3.1539,3.1576,3.1718,3.1408,3.1278,3.1367,3.107,3.107,3.1367,3.1298,3.1539,3.2074,3.2022,3.1776,3.1313,3.1113,3.0915,3.0706,3.1329,3.1476,3.1308,3.1844,3.1968,3.1878,3.2127,3.223,3.223,3.223,3.2433,3.2713,3.2713,3.2818,3.2991,3.2991,3.3045,3.3201,3.3506,3.3605,3.3676,3.4025,3.4228,3.4333,3.4333,3.4545,3.4643,3.4218,3.4204,3.4326,3.4451,3.464,3.4795,3.4806,3.5007,3.5172,3.5175,3.5184,3.5232,3.5392,3.533,3.5269,3.5295,3.5286,3.5263,3.5264,3.527,3.5197,3.4944,3.4925,3.4794,3.4524,3.4485,3.4737,3.5254,3.5288,3.5288,3.5288,3.5288,3.5288,3.5288,3.5249,3.523,3.523,3.523,3.523,2.838,2.9202,2.9886,2.9932,3.0105,3.0297,3.0351,3.041,3.0859,3.229,3.2662,3.3161,3.4585,3.4908,3.4954,3.494,3.4737,3.4565,3.4543,3.4222,3.3975,3.4006,3.3778,3.3615,3.3587,3.353,3.3491,3.3415,3.2978,3.2836,3.3093,3.2674,3.2429,3.2347,3.2645,3.2695,3.2362,3.2411,3.2706,3.3214,3.3003,3.3141,3.3587,3.2417,3.1878,3.1878,3.1878,3.1878,3.1914,3.2466,3.2515,3.2315,3.2867,3.3082,3.3094,3.3094,3.3354,3.368,3.368,3.3831,3.4006,3.4012,3.4125,3.4314,3.4501,3.4562,3.4601,3.4851,3.499,3.504,3.504,3.5081,3.5051,3.4678,3.4775,3.4954,3.4955,3.5098,3.5262,3.5326,3.5467,3.5589,3.5593,3.5561,3.5546,3.5507,3.5288,3.5039,3.4723,3.4634,3.4591,3.4591,3.4529,3.4504,3.4463,3.4463,3.4442,3.44,3.44,3.44,3.44,3.4444,3.4485,3.4485,3.4485,3.4485,3.4485,3.4485,3.4485,3.4485,3.4485,3.4485,2.8107,2.8925,2.9587,2.9608,2.9844,3.0074,3.0086,3.0086,3.0449,3.1598,3.2449,3.3305,3.4257,3.4993,3.5399,3.5236,3.5172,3.5058,3.4832,3.4725,3.4689,3.4676,3.4632,3.4449,3.4093,3.4195,3.4059,3.36,3.3681,3.3595,3.3198,3.3378,3.3226,3.2713,3.296,3.3003,3.2773,3.2947,3.3105,3.3214,3.3515,3.3697,3.3742,3.3343,3.3202,3.3202,3.3202,3.3202,3.3202,3.3321,3.3429,3.3524,3.3652,3.3799,3.3938,3.3938,3.4102,3.43,3.43,3.447,3.4695,3.4737,3.4791,3.4861,3.4932,3.496,3.4994,3.5028,3.5174,3.5301,3.5301,3.5403,3.5456,3.5315,3.529,3.534,3.5492,3.5527,3.5513,3.5532,3.5535,3.5547,3.5584,3.5338,3.5059,3.4841,3.4773,3.4696,3.4566,3.4523,3.4536,3.4536,3.4521,3.4379,3.4139,3.4115,3.3963,3.3671,3.3643,3.3643,3.3643,3.4199,3.4485,3.4485,3.4485,3.4485,3.4485,3.4485,3.4485,3.4485,3.4485,3.4365,2.8364,2.9051,2.9465,2.9393,2.9557,2.9775,2.9804,2.998,3.0271,3.075,3.1971,3.3214,3.409,3.4961,3.5535,3.5467,3.544,3.5393,3.5244,3.5145,3.5087,3.5097,3.4955,3.4746,3.4508,3.4546,3.4475,3.4162,3.4285,3.4259,3.392,3.4125,3.4073,3.3721,3.385,3.3876,3.3773,3.3894,3.3963,3.3963,3.4246,3.4357,3.4334,3.4031,3.388,3.388,3.388,3.388,3.3887,3.3981,3.4086,3.4186,3.4315,3.4427,3.4534,3.4534,3.4597,3.4696,3.4737,3.4902,3.5092,3.5163,3.5258,3.5333,3.5378,3.5389,3.5369,3.531,3.5382,3.55,3.5452,3.5508,3.5545,3.5513,3.5467,3.547,3.5546,3.5523,3.5511,3.5557,3.5424,3.531,3.535,3.5046,3.4713,3.4402,3.4333,3.424,3.4048,3.3975,3.3975,3.3975,3.3975,3.3913,3.3725,3.3698,3.3606,3.3422,3.3393,3.3316,3.3129,3.3488,3.3795,3.3975,3.3975,3.3926,3.3839,3.3926,3.3907,3.3839,3.3926,3.3882,2.8735,2.9185,2.9314,2.9156,2.9303,2.9476,2.9549,2.9855,3.0109,2.9973,3.1333,3.2859,3.3786,3.4666,3.5324,3.5547,3.5605,3.5605,3.5563,3.5461,3.5364,3.5334,3.5117,3.4956,3.4956,3.4923,3.4868,3.4868,3.4868,3.485,3.4813,3.4832,3.4813,3.4756,3.4775,3.4794,3.4756,3.4794,3.4813,3.4851,3.4943,3.4996,3.5013,3.4642,3.4402,3.4326,3.4326,3.4326,3.433,3.4501,3.4621,3.466,3.4906,3.4996,3.5049,3.5049,3.5049,3.5064,3.5105,3.5232,3.5377,3.5447,3.5574,3.5717,3.5728,3.5705,3.5659,3.5527,3.5491,3.547,3.5435,3.538,3.535,3.5329,3.534,3.5323,3.5332,3.5324,3.5321,3.5342,3.5147,3.4966,3.4899,3.4642,3.4336,3.3919,3.388,3.3742,3.3309,3.3286,3.3256,3.3165,3.3165,3.3165,3.3165,3.3165,3.3147,3.3178,3.3178,3.2988,3.2616,3.2598,3.2763,3.3099,3.3178,3.3165,3.3055,3.3226,3.3256,3.3165,3.3334,3.3364,2.8608,2.8779,2.8797,2.8772,2.9038,2.933,2.9336,2.9416,2.9551,2.9645,3.0681,3.186,3.28,3.3701,3.456,3.5387,3.5611,3.5621,3.5449,3.5595,3.5677,3.549,3.5541,3.5581,3.5581,3.5573,3.5573,3.5573,3.5572,3.548,3.5226,3.5377,3.529,3.4891,3.51,3.5133,3.4955,3.4955,3.497,3.499,3.5155,3.5369,3.5582,3.5524,3.5257,3.4812,3.4812,3.4812,3.4813,3.4902,3.5031,3.5187,3.5303,3.5441,3.5582,3.5582,3.5582,3.5601,3.5597,3.5626,3.5657,3.5723,3.5756,3.578,3.5782,3.5717,3.5593,3.5522,3.5292,3.5072,3.5059,3.4883,3.4713,3.4661,3.4623,3.4708,3.4985,3.5014,3.492,3.475,3.4642,3.4457,3.4024,3.3919,3.3687,3.3069,3.3262,3.3172,3.2384,3.2568,3.2636,3.2248,3.2179,3.2179,3.2179,3.2179,3.2196,3.2282,3.2282,3.2109,3.1774,3.1756,3.1792,3.1827,3.2248,3.2586,3.2844,3.2876,3.3068,3.3364,3.3411,3.3208,2.8622,2.859,2.837,2.821,2.8535,2.8888,2.8795,2.9172,2.9513,2.9492,2.9945,3.076,3.2145,3.3092,3.4028,3.5155,3.5386,3.5461,3.5593,3.5735,3.5767,3.5672,3.5684,3.5691,3.5691,3.5678,3.565,3.5691,3.5677,3.5613,3.5534,3.5605,3.5549,3.5364,3.5465,3.5484,3.5394,3.5394,3.5387,3.5388,3.5476,3.5566,3.5646,3.5684,3.5562,3.5348,3.5348,3.5348,3.5348,3.5391,3.5444,3.5523,3.5566,3.5606,3.5646,3.5591,3.5596,3.5588,3.5583,3.5487,3.5361,3.5403,3.5334,3.524,3.5155,3.5098,3.502,3.4966,3.4833,3.4698,3.4643,3.4484,3.4367,3.4357,3.4265,3.4228,3.4255,3.4442,3.444,3.3966,3.3677,3.3351,3.2937,3.2911,3.2836,3.2466,3.2601,3.2535,3.1881,3.1951,3.1863,3.1336,3.1519,3.161,3.1556,3.1844,3.2021,3.2056,3.2056,3.1897,3.1497,3.1514,3.1401,3.1206,3.1662,3.2022,3.2283,3.2453,3.2519,3.2537,3.2702,3.2568,2.8536,2.8446,2.8183,2.7915,2.8228,2.8567,2.8376,2.8824,2.9237,2.9191,2.9169,2.9659,3.125,3.235,3.3412,3.4623,3.5033,3.5303,3.5588,3.5689,3.5735,3.5697,3.5708,3.5728,3.5728,3.5702,3.5693,3.575,3.5691,3.5703,3.5758,3.5752,3.5756,3.5752,3.5752,3.5752,3.5752,3.5752,3.5753,3.5747,3.5753,3.572,3.5642,3.5708,3.5708,3.5661,3.5671,3.5664,3.5684,3.5704,3.5738,3.5732,3.5744,3.5708,3.5624,3.5505,3.5419,3.5391,3.5301,3.5138,3.4962,3.4971,3.4879,3.4736,3.4609,3.4542,3.4508,3.444,3.4364,3.4274,3.4171,3.4062,3.3972,3.3884,3.3778,3.3671,3.3578,3.3723,3.3766,3.3164,3.2809,3.2492,3.2144,3.2179,3.2162,3.1968,3.2092,3.1968,3.1274,3.1257,3.107,3.0344,3.062,3.078,3.0683,3.1026,3.1325,3.1493,3.1493,3.138,3.1106,3.1106,3.0965,3.0749,3.1072,3.1439,3.1768,3.1967,3.2039,3.1949,3.2004,3.1933,2.8182,2.8262,2.8264,2.8037,2.8299,2.8533,2.8264,2.8298,2.8384,2.8529,2.8402,2.8639,2.981,3.1244,3.2581,3.36,3.4571,3.5184,3.5143,3.5419,3.5563,3.545,3.5636,3.5792,3.5792,3.5845,3.5899,3.5882,3.5899,3.5882,3.5884,3.5882,3.5882,3.5884,3.5884,3.5884,3.5884,3.5884,3.5884,3.5882,3.5884,3.5851,3.5782,3.5786,3.5729,3.5611,3.5605,3.562,3.5623,3.5738,3.5781,3.5801,3.5851,3.5848,3.5758,3.5431,3.5238,3.5088,3.476,3.4645,3.4633,3.462,3.4622,3.4604,3.4543,3.4417,3.4308,3.4213,3.3998,3.3734,3.3734,3.3605,3.3345,3.297,3.2858,3.2903,3.3082,3.3009,3.2777,3.2435,3.2334,3.2248,3.2144,3.2109,3.1968,3.1493,3.177,3.1531,3.0251,3.0352,3.0178,2.9271,2.9196,2.9241,2.9196,2.9241,2.9512,3.0054,3.0097,3.0156,3.0274,3.0274,3.0274,3.0231,3.0274,3.0642,3.1435,3.1435,3.1679,3.2074,3.1522,3.1558,2.8047,2.8065,2.7982,2.7954,2.8065,2.8201,2.8156,2.8183,2.8246,2.835,2.835,2.8484,2.9028,2.9887,3.0941,3.215,3.3201,3.396,3.4273,3.4993,3.5469,3.5449,3.5551,3.5611,3.5611,3.563,3.5655,3.5702,3.5663,3.5659,3.5713,3.5747,3.5797,3.583,3.5887,3.5893,3.5893,3.5893,3.5857,3.5761,3.5719,3.5645,3.5542,3.5495,3.5426,3.5345,3.533,3.5424,3.5529,3.5494,3.547,3.5477,3.5502,3.5476,3.5388,3.5086,3.4944,3.4866,3.4509,3.4304,3.4211,3.4111,3.4006,3.3894,3.3821,3.376,3.3652,3.3382,3.3225,3.3075,3.2858,3.2749,3.2669,3.2502,3.2468,3.2435,3.223,3.2127,3.2056,3.1896,3.164,3.1393,3.1223,3.1261,3.124,3.0982,3.114,3.0868,2.9761,2.9729,2.9419,2.8383,2.8527,2.8701,2.8591,2.8889,2.9166,2.9393,2.9705,2.9897,2.9941,3.0215,3.0401,3.0401,3.0401,3.041,3.0485,3.0885,3.0965,3.0778,3.0914,3.0778,2.7672,2.776,2.776,2.7725,2.7811,2.7915,2.7754,2.7783,2.7823,2.7918,2.7974,2.8084,2.835,2.873,2.9485,3.096,3.2005,3.2801,3.314,3.402,3.4636,3.4684,3.4963,3.5166,3.52,3.5225,3.5303,3.5491,3.5454,3.5499,3.5624,3.5682,3.5718,3.5768,3.5836,3.5875,3.5875,3.5841,3.5775,3.5629,3.5596,3.5444,3.5209,3.5201,3.5109,3.492,3.4921,3.5105,3.5387,3.5234,3.5168,3.5152,3.5086,3.5021,3.4918,3.4641,3.4496,3.4389,3.3969,3.3697,3.357,3.3346,3.3207,3.3099,3.3037,3.3024,3.2975,3.2716,3.2517,3.2366,3.2127,3.1862,3.1627,3.1627,3.1517,3.1401,3.1111,3.1397,3.1603,3.1206,3.0965,3.0658,3.0267,3.0267,3.0309,3.0199,3.0241,3.0011,2.9134,2.9027,2.867,2.7825,2.8008,2.8174,2.8076,2.8415,2.8654,2.8826,2.9104,2.9377,2.9572,2.9837,3.0027,3.0027,3.0027,2.9837,2.9406,3.0326,3.0593,3.0241,3.0426,2.9995,0.0,0.0,0.0,2.7365,2.7565,2.7642,2.712,2.7007,2.704,2.7166,2.7181,2.7307,2.773,2.7789,2.8342,3.0055,3.1102,3.1734,3.1734,3.2493,3.3044,3.3066,3.3888,3.4463,3.4562,3.4624,3.4819,3.5251,3.5277,3.5386,3.5667,3.5697,3.5678,3.5688,3.5756,3.5791,3.5791,3.5718,3.5607,3.5492,3.5476,3.5234,3.4794,3.4923,3.4756,3.4379,3.4321,3.4617,3.5151,3.4947,3.4878,3.4842,3.4642,3.4507,3.4414,3.4083,3.3876,3.367,3.3027,3.2795,3.2731,3.2419,3.2317,3.2317,3.2317,3.2283,3.2283,3.2265,3.1933,3.1556,3.1556,3.0931,3.0286,3.0286,3.0015,2.9793,2.9793,3.0754,3.1359,3.046,3.0267,3.0064,2.9329,2.9178,2.9164,2.912,2.9074,2.8889,2.8336,2.8288,2.811,2.766,2.7625,2.7625,2.7625,2.7625,2.7795,2.8255,2.8288,2.8543,2.9028,2.9074,2.9074,2.9074,2.9074,2.8826,2.8352,2.9777,3.0526,3.0609,3.0027,2.9241,2.7053,0.0,0.0,0.0,0.0,0.0,2.7166,2.7055,2.7007,2.704,2.7135,2.7276,2.76,2.7701,2.7929,2.8515,2.9544,3.035,3.0544,3.139,3.2113,3.2406,3.2555,3.2972,3.3866,3.3692,3.3939,3.4939,3.4887,3.4942,3.5254,3.5407,3.5515,3.555,3.5566,3.5577,3.5577,3.5419,3.5259,3.5139,3.4883,3.4659,3.4439,3.4375,3.4284,3.4179,3.3865,3.3843,3.4059,3.4186,3.4115,3.387,3.3839,3.364,3.3304,3.3069,3.2937,3.288,3.255,3.2453,3.2401,3.2351,3.2317,3.2317,3.2317,3.2057,3.1737,3.1425,3.0954,3.0459,3.011,2.9843,2.9641,2.9641,2.9569,2.9512,2.9512,2.9789,2.9946,2.9717,2.9733,2.9617,2.9074,2.9058,2.9058,2.8826,2.8826,2.8638,2.8207,2.8174,2.8027,2.761,2.7625,2.7625,2.7625,2.7625,2.766,2.781,2.811,2.8352,2.8543,2.8889,2.9074,2.9074,2.9074,2.9028,2.8889,2.9303,2.9287,2.8934,2.881,2.8575,2.6808,2.6906,2.6937,2.7051,0.0,0.0,2.6973,2.6892,2.6842,2.6942,2.704,2.7152,2.7386,2.7478,2.7535,2.7713,2.8315,2.8909,2.9297,3.0173,3.0864,3.1143,3.1395,3.1807,3.2552,3.2414,3.2627,3.3502,3.3458,3.3671,3.432,3.4861,3.5165,3.5205,3.5244,3.5254,3.5287,3.5037,3.4848,3.4756,3.4538,3.4292,3.4049,3.3917,3.3768,3.3616,3.3237,3.3051,3.3112,3.3248,3.3219,3.3112,3.3021,3.2867,3.2627,3.2533,3.2466,3.2451,3.2162,3.2039,3.1986,3.1588,3.1476,3.1439,3.1159,3.0909,3.0613,3.0402,2.9923,2.9416,2.895,2.8795,2.8795,2.8795,2.8795,2.8795,2.8795,2.8575,2.8497,2.8857,2.8779,2.8481,2.7947,2.767,2.749,2.7354,2.7303,2.7253,2.7012,2.6975,2.6886,2.6692,2.6692,2.6692,2.6692,2.6692,2.6692,2.6692,2.7195,2.75,2.75,2.8012,2.8319,2.8319,2.8319,2.8319,2.8319,2.8842,2.8935,2.8638,2.8384,2.8288,2.6364,2.659,2.6724,2.6503,2.6624,0.0,2.6589,2.6572,2.664,2.6826,2.6893,2.6942,2.7135,2.7198,2.723,2.7434,2.7465,2.7659,2.8174,2.8918,2.9458,2.9618,3.0252,3.0776,3.0982,3.0947,3.1144,3.1644,3.171,3.2131,3.3067,3.3998,3.4529,3.4604,3.4678,3.4766,3.4914,3.4602,3.4411,3.4367,3.4338,3.4068,3.3615,3.3515,3.3259,3.2912,3.2486,3.2317,3.2299,3.2214,3.2282,3.2482,3.2299,3.2214,3.2179,3.2179,3.2179,3.2092,3.175,3.1565,3.1359,3.0526,3.0251,3.0123,2.954,2.9361,2.9316,2.9225,2.8904,2.8463,2.8039,2.7905,2.7905,2.7855,2.7855,2.7905,2.7855,2.7291,2.7093,2.7898,2.759,2.7019,2.6322,2.5728,2.5398,2.5342,2.5342,2.5342,2.5398,2.5398,2.5398,2.5398,2.5398,2.5398,2.5398,2.5398,2.5453,2.5508,2.6014,2.6336,2.6404,2.6893,2.7181,2.7181,2.7115,2.7115,2.7115,2.8319,2.8889,2.8889,2.84,2.8158,2.568,2.5791,2.5901,2.6063,2.6154,0.0,2.633,2.6434,2.6554,2.6657,2.6691,2.6808,2.699,2.704,2.704,2.7105,2.7184,2.74,2.7847,2.8028,2.8287,2.8629,2.8703,2.917,3.0265,3.0085,3.0374,3.152,3.1712,3.1874,3.2086,3.2323,3.276,3.3414,3.3456,3.3757,3.4433,3.4218,3.4087,3.4087,3.385,3.3522,3.3129,3.3111,3.2876,3.2486,3.1967,3.1806,3.1861,3.1393,3.147,3.1878,3.1806,3.1657,3.1389,3.1295,3.1257,3.1218,3.1078,3.0764,3.0402,3.0208,2.9892,2.954,2.9451,2.9134,2.8732,2.8125,2.781,2.7625,2.7386,2.7335,2.7218,2.6774,2.6997,2.7218,2.6721,2.6496,2.6443,2.652,2.6279,2.5943,2.5508,2.5398,2.5342,2.5119,2.5063,2.5119,2.5231,2.5231,2.5287,2.5398,2.5398,2.5398,2.5398,2.5398,2.5618,2.6068,2.6229,2.651,2.7011,2.7115,2.7181,2.7181,2.6736,2.6457,2.6457,2.7188,2.756,2.756,2.7458,2.7408,2.5285,2.5546,2.5787,2.5917,2.6043,0.0,0.0,2.6347,2.6434,2.652,2.6572,2.6623,2.6775,2.6809,2.6842,2.6926,2.6859,2.6923,2.7413,2.7487,2.7572,2.7872,2.788,2.8198,2.906,2.9008,2.9179,2.9853,3.0399,3.0693,3.0693,3.126,3.1784,3.2191,3.221,3.2413,3.2845,3.3015,3.3121,3.3148,3.3198,3.3081,3.2848,3.2417,3.2144,3.1967,3.1507,3.1372,3.147,3.1078,3.1117,3.1372,3.1295,3.1061,3.074,3.0617,3.0393,3.0166,3.0081,2.9892,2.9613,2.9239,2.8965,2.8701,2.8384,2.8158,2.7879,2.7509,2.7335,2.7284,2.7233,2.7181,2.7063,2.6457,2.651,2.6563,2.596,2.5563,2.5287,2.5231,2.4824,2.4483,2.4624,2.4439,2.4208,2.4047,2.4047,2.4105,2.4163,2.415,2.415,2.4266,2.4266,2.4266,2.4266,2.4266,2.4381,2.4654,2.5007,2.5342,2.5618,2.6244,2.6698,2.6974,2.6418,2.6096,2.6096,2.6418,2.663,2.6736,2.6736,2.6736,2.4855,2.5208,2.553,2.5567,2.5696,2.5844,0.0,0.0,0.0,2.6241,2.6277,2.6329,2.6434,2.6382,2.6367,2.6522,2.6386,2.6333,2.6604,2.6785,2.7046,2.7361,2.7344,2.7482,2.7996,2.8091,2.8174,2.8201,2.8891,2.9332,2.9314,3.0204,3.0761,3.0925,3.0899,3.0998,3.1195,3.16,3.183,3.1888,3.2268,3.2388,3.2241,3.1666,3.1363,3.1338,3.0885,3.074,3.0838,3.0675,3.0617,3.0601,3.0658,3.0535,3.0192,2.9935,2.9613,2.9255,2.9148,2.9057,2.8856,2.8273,2.7997,2.7864,2.7372,2.7181,2.7181,2.7181,2.7078,2.6959,2.6959,2.6855,2.6616,2.5946,2.5892,2.5837,2.5161,2.4567,2.4176,2.4176,2.3543,2.3198,2.3839,2.3484,2.3078,2.3078,2.3078,2.3078,2.3078,2.3078,2.3078,2.3078,2.3078,2.3078,2.3078,2.3078,2.3138,2.3305,2.3884,2.435,2.4465,2.5495,2.6233,2.6621,2.6165,2.5784,2.555,2.566,2.5811,2.6068,2.6176,2.6176,2.3967,2.4177,2.4261,2.4426,2.4508,2.4574,2.4744,0.0,2.5269,2.5313,0.0,2.5626,2.5917,0.0,0.0,2.5309,2.5723,2.5711,2.4749,2.5549,2.6539,2.7386,2.6922,2.6839,2.7672,2.7858,2.8,2.8174,2.8253,2.8307,2.8371,2.847,2.8873,2.9572,2.944,2.9692,3.0416,3.0389,3.0349,3.0349,3.0929,3.1045,3.0748,3.0883,3.0794,3.0418,2.9848,2.9585,2.9585,2.9257,2.918,2.9284,2.9832,3.0005,2.9859,2.9207,2.8887,2.8856,2.8717,2.8401,2.803,2.7947,2.763,2.7269,2.7233,2.7144,2.7003,2.7003,2.6553,2.6056,2.6056,2.5646,2.5063,2.4253,2.4469,2.4697,2.3975,2.3754,2.3695,2.3695,2.3185,2.286,2.3138,2.3125,2.3078,2.3078,2.3078,2.3078,2.3078,2.3078,2.3078,2.3078,2.3078,2.3078,2.3078,2.3078,2.3365,2.3956,2.4567,2.5133,2.566,2.634,2.65,2.6002,2.5948,2.5384,2.4305,2.4851,2.5133,2.5175,2.5701,2.5646,2.3508,2.3666,2.3764,2.3991,2.4173,2.4282,2.4348,2.4608,2.4823,2.4847,0.0,0.0,0.0,0.0,0.0,0.0,2.4891,2.4909,2.5003,2.4853,2.5166,2.6195,2.6385,2.659,2.7132,2.7255,2.7269,2.7175,2.7361,2.75,2.7439,2.7512,2.7759,2.8217,2.8157,2.8268,2.8601,2.9008,2.9074,2.8778,2.9212,2.9208,2.8755,2.905,2.9113,2.9033,2.9214,2.93,2.9255,2.9042,2.8934,2.8856,2.8701,2.8701,2.881,2.8401,2.8128,2.7849,2.773,2.7545,2.7357,2.7306,2.7115,2.687,2.6539,2.6659,2.6727,2.6042,2.5879,2.577,2.5342,2.5231,2.4951,2.3917,2.4092,2.4208,2.3305,2.3078,2.3078,2.3078,2.2848,2.2739,2.2848,2.2848,2.2848,2.2848,2.2848,2.2848,2.2848,2.2848,2.2848,2.2848,2.2848,2.2848,2.2848,2.309,2.3271,2.3271,2.393,2.4553,2.509,2.5825,2.6056,2.5646,2.5342,2.4894,2.4234,2.4221,2.4034,2.3813,2.4523,2.4694,2.2875,2.3069,2.3128,2.3362,2.3535,2.3649,2.3649,2.3876,2.4074,2.4074,2.4116,0.0,0.0,0.0,2.4024,2.407,0.0,2.4112,2.4602,2.4296,2.442,2.5449,2.5908,2.6158,2.6282,2.659,2.6623,2.6317,2.674,2.6935,2.6757,2.6871,2.6967,2.7129,2.708,2.7049,2.7049,2.7482,2.7504,2.711,2.7458,2.7394,2.7049,2.7324,2.7604,2.7852,2.8247,2.8514,2.8639,2.8512,2.8369,2.8209,2.765,2.7565,2.77,2.7615,2.7393,2.7093,2.6989,2.6884,2.6832,2.6779,2.6727,2.6553,2.5988,2.6096,2.6258,2.5175,2.5007,2.5007,2.4399,2.4284,2.4111,2.3195,2.3267,2.328,2.2469,2.2297,2.2297,2.2297,2.2297,2.2297,2.2297,2.2494,2.269,2.269,2.269,2.269,2.269,2.269,2.269,2.269,2.269,2.2751,2.286,2.3103,2.3163,2.2969,2.359,2.4092,2.4496,2.5133,2.53,2.4881,2.4754,2.4368,2.3826,2.3708,2.3352,2.2848,2.3662,2.3943,2.1949,2.203,2.2077,2.2217,2.2263,2.2263,2.2263,2.2526,2.274,2.274,2.2875,2.3009,2.3216,2.286,2.2553,2.2471,2.3131,0.0,0.0,2.3759,2.4887,2.5693,2.5566,2.5325,2.5096,2.5875,2.6317,2.6021,2.6505,2.6691,2.6437,2.6402,2.6437,2.6437,2.6229,2.6123,2.6123,2.5635,2.5411,2.5373,2.5719,2.5863,2.5853,2.6112,2.6627,2.7178,2.6684,2.6763,2.7269,2.7144,2.6989,2.6884,2.6832,2.6832,2.6832,2.6832,2.6832,2.6832,2.6779,2.6592,2.6351,2.6712,2.6592,2.6229,2.5728,2.5618,2.5508,2.4754,2.3891,2.3195,2.3148,2.247,2.1678,2.1502,2.1514,2.1451,2.1285,2.1221,2.1221,2.1221,2.1221,2.1221,2.1221,2.2049,2.269,2.269,2.269,2.269,2.269,2.269,2.269,2.269,2.269,2.286,2.3343,2.2982,2.2969,2.3518,2.3989,2.4337,2.4469,2.4526,2.4253,2.3695,2.4239,2.3904,2.2739,2.3292,2.3305,2.2739,2.3471,2.3577,2.0631,2.0495,2.0383,2.0782,2.0881,2.093,2.1091,2.1382,2.1561,2.1561,2.1609,2.1752,2.2095,2.2016,2.1993,2.2226,2.252,2.2682,0.0,2.3127,2.3507,2.3548,2.4261,2.4736,2.4752,2.5166,2.5335,2.502,2.5465,2.5652,2.5427,2.5411,2.5503,2.5721,2.5481,2.5368,2.546,2.5044,2.4632,2.4236,2.4372,2.424,2.391,2.4537,2.4923,2.5191,2.5761,2.6061,2.6141,2.6313,2.634,2.6233,2.6233,2.6233,2.6233,2.6418,2.6244,2.592,2.5453,2.5204,2.5148,2.5217,2.5204,2.4966,2.4182,2.4226,2.4271,2.2977,2.2615,2.2603,2.2101,2.1928,2.1803,2.14,2.1514,2.1639,2.1285,2.1221,2.1221,2.1221,2.1221,2.1221,2.1221,2.1474,2.1737,2.1737,2.1737,2.1737,2.1737,2.1737,2.1851,2.2261,2.1975,2.2099,2.3138,2.2641,2.2738,2.3884,2.3859,2.3741,2.3577,2.4483,2.4439,2.3305,2.3564,2.3446,2.286,2.2519,2.2261,2.2149,2.2187,2.2445,1.9569,1.9374,1.9254,1.9594,1.9633,1.9633,2.0016,2.0156,2.0257,2.0257,2.037,2.0434,2.0445,2.067,2.0881,2.1002,2.1369,2.1813,0.0,2.248,2.2495,2.2278,2.3216,2.3849,2.3706,2.4333,2.4511,2.3937,2.4486,2.4728,2.4446,2.4364,2.4405,2.4608,2.4405,2.4323,2.4405,2.4214,2.3864,2.3493,2.3363,2.3172,2.2902,2.3262,2.358,2.3934,2.4552,2.4927,2.5083,2.5342,2.5394,2.5299,2.519,2.5106,2.5217,2.5906,2.5851,2.5398,2.4697,2.4284,2.4097,2.42,2.4026,2.3618,2.287,2.2917,2.2952,2.1604,2.1467,2.1557,2.1049,2.1049,2.1112,2.07,2.088,2.1008,2.0711,2.0646,2.0646,2.0646,2.0646,2.0646,2.0646,2.0646,2.0775,2.1158,2.1221,2.1285,2.1514,2.1526,2.1765,2.2372,2.2137,2.2087,2.2689,2.2665,2.2847,2.3386,2.3075,2.2895,2.275,2.3551,2.3479,2.2457,2.2616,2.2677,2.2469,2.1963,2.1714,2.1827,2.1577,2.1714]},{"header":{"parameterUnit":"m.s-1","parameterCategory":1,"la1":30.6,"la2":29.2853,"lo1":-89.7004,"lo2":-87.6739,"dy":0.0162,"dx":0.0183,"nx":112,"ny":82,"refTime":"2023-10-06T06:00:00:Z","depth":0,"parameterNumber":3,"parameterNumberName":"V-component_of_WINDS"},"data":[0.0,0.0,0.0,0.0,0.0,0.0,0.0,0.0,0.0,0.0,0.0,0.0,0.0,0.0,0.0,0.0,0.0,0.0,0.0,0.0,0.0,0.0,0.0,0.0,0.0,0.0,0.0,0.0,0.0,0.0,0.0,0.0,0.0,0.0,0.0,0.0,0.0,0.0,0.0,0.0,0.0,0.0,0.0,0.0,0.0,0.0,0.0,0.0,0.0,0.0,0.0,0.0,0.0,0.0,0.0,0.0,0.0,0.0,0.0,0.0,0.0,0.0,0.0,0.0,0.0,0.0,0.0,0.0,0.0,0.0,0.0,0.0,0.0,0.0,0.0,0.0,0.0,0.0,0.0,0.0,0.0,0.0,0.0,0.0,0.0,0.0,0.0,0.0,0.0,0.0,-2.9351,-2.933,-2.9166,-2.906,-2.9038,-2.8915,-2.8839,-2.8815,0.0,0.0,0.0,0.0,0.0,0.0,0.0,0.0,0.0,0.0,0.0,0.0,0.0,0.0,0.0,0.0,0.0,0.0,0.0,0.0,0.0,0.0,0.0,0.0,0.0,0.0,0.0,0.0,0.0,0.0,0.0,0.0,0.0,0.0,0.0,0.0,0.0,0.0,0.0,0.0,0.0,0.0,0.0,0.0,0.0,0.0,0.0,0.0,0.0,0.0,0.0,0.0,0.0,0.0,0.0,0.0,0.0,0.0,0.0,0.0,0.0,0.0,0.0,0.0,0.0,0.0,0.0,0.0,0.0,0.0,0.0,0.0,0.0,0.0,0.0,0.0,0.0,0.0,0.0,0.0,0.0,0.0,0.0,0.0,0.0,0.0,0.0,0.0,0.0,0.0,0.0,0.0,0.0,0.0,0.0,0.0,0.0,0.0,0.0,0.0,0.0,0.0,0.0,0.0,-2.9101,-2.898,-2.8957,-2.8863,-2.8694,-2.8662,-2.8587,-2.8484,0.0,0.0,0.0,0.0,0.0,0.0,0.0,0.0,0.0,0.0,0.0,0.0,0.0,0.0,0.0,0.0,0.0,0.0,0.0,0.0,0.0,0.0,0.0,0.0,0.0,0.0,0.0,0.0,0.0,0.0,0.0,0.0,0.0,0.0,0.0,0.0,0.0,0.0,0.0,0.0,0.0,0.0,0.0,0.0,0.0,0.0,0.0,0.0,0.0,0.0,0.0,0.0,0.0,0.0,0.0,0.0,0.0,0.0,0.0,0.0,0.0,0.0,0.0,0.0,0.0,0.0,0.0,0.0,0.0,0.0,0.0,0.0,0.0,0.0,0.0,0.0,0.0,0.0,0.0,0.0,0.0,0.0,0.0,0.0,0.0,0.0,0.0,0.0,0.0,0.0,0.0,0.0,0.0,0.0,0.0,0.0,0.0,0.0,0.0,0.0,0.0,0.0,0.0,-2.9052,-2.8915,-2.8761,-2.8687,-2.8587,-2.8484,-2.8414,-2.8353,-2.83,-2.7994,0.0,0.0,0.0,0.0,0.0,0.0,0.0,0.0,0.0,0.0,0.0,0.0,0.0,0.0,0.0,0.0,0.0,0.0,0.0,0.0,0.0,0.0,0.0,0.0,0.0,0.0,0.0,0.0,0.0,0.0,0.0,0.0,0.0,0.0,0.0,0.0,0.0,0.0,0.0,0.0,0.0,0.0,0.0,0.0,0.0,0.0,0.0,0.0,0.0,0.0,0.0,0.0,0.0,0.0,0.0,0.0,0.0,0.0,0.0,0.0,0.0,0.0,0.0,0.0,0.0,0.0,0.0,0.0,0.0,0.0,0.0,0.0,0.0,0.0,0.0,0.0,0.0,0.0,0.0,0.0,0.0,0.0,0.0,0.0,0.0,0.0,0.0,0.0,0.0,0.0,0.0,0.0,0.0,0.0,0.0,0.0,0.0,0.0,0.0,0.0,0.0,0.0,-2.8834,-2.8785,-2.8612,-2.851,-2.8432,-2.8406,-2.8121,-2.8004,-2.8146,-2.7968,0.0,0.0,0.0,0.0,0.0,0.0,0.0,0.0,0.0,0.0,0.0,0.0,0.0,0.0,0.0,0.0,0.0,0.0,0.0,0.0,0.0,0.0,0.0,0.0,0.0,0.0,0.0,0.0,0.0,0.0,0.0,0.0,0.0,0.0,0.0,0.0,0.0,0.0,0.0,0.0,0.0,0.0,0.0,0.0,0.0,0.0,0.0,0.0,0.0,0.0,0.0,0.0,0.0,0.0,0.0,0.0,0.0,0.0,0.0,0.0,0.0,0.0,0.0,0.0,0.0,0.0,0.0,0.0,0.0,0.0,0.0,0.0,0.0,0.0,0.0,0.0,0.0,0.0,0.0,0.0,0.0,0.0,0.0,0.0,0.0,0.0,0.0,0.0,0.0,0.0,0.0,0.0,0.0,0.0,0.0,0.0,0.0,0.0,0.0,0.0,0.0,0.0,-2.8612,-2.8612,-2.8587,-2.8587,-2.8536,-2.8406,-2.7705,-2.7494,-2.7989,-2.7305,0.0,0.0,0.0,0.0,0.0,0.0,0.0,0.0,0.0,0.0,0.0,0.0,0.0,0.0,0.0,0.0,0.0,0.0,0.0,0.0,0.0,0.0,0.0,0.0,0.0,0.0,0.0,0.0,0.0,0.0,0.0,0.0,0.0,0.0,0.0,0.0,0.0,0.0,0.0,0.0,0.0,0.0,0.0,0.0,0.0,0.0,0.0,0.0,0.0,0.0,0.0,0.0,0.0,0.0,0.0,0.0,0.0,0.0,0.0,0.0,0.0,0.0,0.0,0.0,0.0,0.0,0.0,0.0,0.0,0.0,0.0,0.0,0.0,0.0,0.0,0.0,0.0,0.0,0.0,0.0,0.0,0.0,0.0,0.0,0.0,0.0,0.0,0.0,0.0,0.0,0.0,0.0,0.0,0.0,0.0,0.0,0.0,0.0,0.0,0.0,0.0,0.0,-2.8299,-2.8219,-2.8073,-2.7961,-2.7847,-2.7742,-2.7049,-2.6722,-2.6865,0.0,0.0,0.0,0.0,0.0,0.0,0.0,0.0,0.0,0.0,0.0,0.0,0.0,0.0,0.0,0.0,0.0,0.0,0.0,0.0,0.0,0.0,0.0,0.0,0.0,0.0,0.0,0.0,0.0,0.0,0.0,0.0,0.0,0.0,0.0,0.0,0.0,0.0,0.0,0.0,0.0,0.0,0.0,0.0,0.0,0.0,0.0,0.0,0.0,0.0,0.0,0.0,0.0,0.0,0.0,0.0,0.0,0.0,0.0,0.0,0.0,0.0,0.0,0.0,0.0,0.0,0.0,0.0,0.0,0.0,0.0,0.0,0.0,0.0,0.0,0.0,0.0,0.0,0.0,0.0,0.0,0.0,0.0,0.0,0.0,0.0,0.0,0.0,0.0,0.0,0.0,0.0,0.0,0.0,0.0,0.0,0.0,0.0,0.0,0.0,0.0,0.0,-2.7992,-2.7964,-2.7897,-2.773,-2.7582,-2.7444,-2.7382,-2.664,-2.6328,-2.6606,0.0,0.0,0.0,0.0,0.0,0.0,0.0,0.0,0.0,0.0,0.0,0.0,0.0,0.0,0.0,0.0,0.0,0.0,0.0,0.0,0.0,0.0,0.0,0.0,0.0,0.0,0.0,0.0,0.0,0.0,0.0,0.0,0.0,0.0,0.0,0.0,0.0,0.0,0.0,0.0,0.0,0.0,0.0,0.0,0.0,0.0,0.0,0.0,0.0,0.0,0.0,0.0,0.0,0.0,0.0,0.0,0.0,0.0,0.0,0.0,0.0,0.0,0.0,0.0,0.0,0.0,0.0,0.0,0.0,0.0,0.0,0.0,0.0,0.0,0.0,0.0,0.0,0.0,0.0,0.0,0.0,0.0,0.0,0.0,0.0,0.0,0.0,0.0,0.0,0.0,0.0,0.0,0.0,0.0,0.0,0.0,0.0,0.0,0.0,0.0,0.0,0.0,-2.7683,-2.7683,-2.7683,-2.7701,-2.756,-2.75,-2.7496,-2.655,-2.6398,0.0,0.0,0.0,0.0,0.0,0.0,0.0,0.0,0.0,0.0,0.0,0.0,0.0,0.0,0.0,0.0,0.0,0.0,0.0,0.0,0.0,0.0,0.0,0.0,0.0,0.0,0.0,0.0,0.0,0.0,0.0,0.0,0.0,0.0,0.0,0.0,0.0,0.0,0.0,0.0,0.0,0.0,0.0,0.0,0.0,0.0,0.0,0.0,0.0,0.0,0.0,0.0,0.0,0.0,0.0,0.0,0.0,0.0,0.0,0.0,0.0,0.0,0.0,0.0,0.0,0.0,0.0,0.0,0.0,0.0,0.0,0.0,0.0,0.0,0.0,0.0,0.0,0.0,0.0,0.0,0.0,0.0,0.0,0.0,0.0,0.0,0.0,0.0,0.0,0.0,0.0,0.0,0.0,0.0,0.0,0.0,0.0,0.0,0.0,0.0,0.0,0.0,0.0,-2.7307,-2.7307,-2.7276,-2.7004,-2.6971,-2.6906,-2.6792,-2.6194,-2.5868,-2.5993,0.0,0.0,0.0,0.0,0.0,0.0,0.0,0.0,0.0,0.0,0.0,0.0,0.0,0.0,0.0,0.0,0.0,0.0,0.0,0.0,0.0,0.0,0.0,0.0,0.0,0.0,0.0,0.0,0.0,0.0,0.0,0.0,0.0,0.0,0.0,0.0,0.0,0.0,0.0,0.0,0.0,0.0,0.0,0.0,0.0,0.0,0.0,0.0,0.0,0.0,0.0,0.0,0.0,0.0,0.0,0.0,0.0,0.0,0.0,0.0,0.0,0.0,0.0,0.0,0.0,0.0,0.0,0.0,0.0,0.0,0.0,0.0,0.0,0.0,0.0,0.0,0.0,0.0,0.0,0.0,0.0,0.0,0.0,0.0,0.0,0.0,0.0,0.0,0.0,0.0,0.0,0.0,0.0,0.0,0.0,0.0,0.0,0.0,0.0,0.0,0.0,0.0,-2.6908,-2.6973,-2.6923,-2.6725,-2.6674,-2.6657,-2.6589,-2.6169,-2.5933,-2.5966,0.0,0.0,0.0,0.0,0.0,0.0,0.0,0.0,0.0,0.0,0.0,0.0,0.0,0.0,0.0,0.0,0.0,0.0,0.0,0.0,0.0,0.0,0.0,0.0,0.0,0.0,0.0,0.0,0.0,0.0,0.0,0.0,0.0,0.0,0.0,0.0,0.0,0.0,0.0,0.0,0.0,0.0,0.0,0.0,0.0,0.0,0.0,0.0,0.0,0.0,0.0,0.0,0.0,0.0,0.0,0.0,0.0,0.0,0.0,0.0,0.0,0.0,0.0,0.0,0.0,0.0,0.0,0.0,0.0,0.0,0.0,0.0,0.0,0.0,0.0,0.0,0.0,0.0,0.0,0.0,0.0,0.0,0.0,0.0,0.0,0.0,0.0,0.0,0.0,0.0,0.0,0.0,0.0,0.0,0.0,0.0,0.0,0.0,0.0,0.0,0.0,0.0,-2.679,-2.6826,-2.686,-2.6911,-2.686,-2.6842,-2.6911,-2.6604,-2.6553,-2.6826,0.0,0.0,0.0,0.0,0.0,0.0,0.0,0.0,0.0,0.0,0.0,0.0,0.0,0.0,0.0,0.0,0.0,0.0,0.0,0.0,0.0,0.0,0.0,0.0,0.0,0.0,0.0,0.0,0.0,0.0,0.0,0.0,0.0,0.0,0.0,0.0,0.0,0.0,0.0,0.0,0.0,0.0,0.0,0.0,0.0,0.0,0.0,0.0,0.0,0.0,0.0,0.0,0.0,0.0,0.0,0.0,0.0,0.0,0.0,0.0,-2.6643,-2.668,0.0,0.0,0.0,0.0,0.0,0.0,0.0,0.0,0.0,0.0,0.0,0.0,0.0,0.0,0.0,0.0,0.0,0.0,0.0,0.0,0.0,0.0,0.0,0.0,0.0,0.0,0.0,0.0,0.0,0.0,0.0,0.0,0.0,0.0,0.0,0.0,0.0,0.0,0.0,0.0,-2.8209,-2.7973,-2.7994,-2.8448,-2.8501,-2.8465,-2.8376,-2.7765,-2.7377,-2.727,-2.6532,0.0,0.0,0.0,0.0,0.0,0.0,0.0,0.0,0.0,0.0,0.0,0.0,0.0,0.0,0.0,0.0,0.0,0.0,0.0,0.0,0.0,0.0,0.0,0.0,0.0,0.0,0.0,0.0,0.0,0.0,0.0,0.0,0.0,0.0,0.0,0.0,0.0,0.0,0.0,0.0,0.0,0.0,0.0,0.0,0.0,0.0,0.0,0.0,0.0,0.0,0.0,0.0,0.0,0.0,0.0,0.0,0.0,0.0,0.0,-2.6823,-2.6536,0.0,0.0,0.0,0.0,0.0,0.0,0.0,0.0,0.0,0.0,0.0,0.0,0.0,0.0,0.0,0.0,0.0,0.0,0.0,0.0,0.0,0.0,0.0,0.0,0.0,0.0,0.0,0.0,0.0,0.0,0.0,0.0,0.0,0.0,0.0,0.0,0.0,0.0,0.0,0.0,-2.8379,-2.8089,-2.8089,-2.8624,-2.8455,-2.8285,-2.8207,-2.7805,-2.7613,-2.7722,-2.682,0.0,0.0,0.0,0.0,0.0,0.0,0.0,0.0,0.0,0.0,0.0,0.0,0.0,0.0,0.0,0.0,0.0,0.0,0.0,0.0,0.0,0.0,0.0,0.0,0.0,0.0,0.0,0.0,0.0,0.0,0.0,0.0,0.0,0.0,0.0,0.0,0.0,0.0,0.0,0.0,0.0,0.0,0.0,0.0,0.0,0.0,0.0,0.0,0.0,0.0,0.0,0.0,0.0,-2.6626,-2.6964,-2.7598,-2.7374,-2.7805,-2.8652,-2.7495,-2.6913,-2.679,-2.6872,0.0,0.0,0.0,0.0,0.0,0.0,0.0,0.0,0.0,0.0,0.0,0.0,0.0,0.0,0.0,0.0,0.0,0.0,0.0,0.0,0.0,0.0,-2.7623,-2.7669,-2.745,-2.7268,-2.7418,0.0,0.0,0.0,0.0,0.0,0.0,0.0,0.0,0.0,0.0,0.0,-2.833,-2.8045,-2.802,-2.8523,-2.8225,-2.7978,-2.7978,-2.775,-2.7793,-2.8134,-2.7122,-2.6726,0.0,0.0,0.0,0.0,0.0,0.0,0.0,0.0,0.0,0.0,0.0,0.0,0.0,0.0,0.0,0.0,0.0,0.0,0.0,0.0,0.0,0.0,0.0,0.0,0.0,0.0,0.0,0.0,0.0,0.0,0.0,0.0,-2.4353,-2.4467,0.0,0.0,0.0,0.0,0.0,0.0,0.0,0.0,0.0,0.0,0.0,0.0,0.0,-2.7396,-2.7373,-2.7875,-2.8116,-2.8116,-2.7604,-2.7444,-2.759,-2.7543,-2.8006,-2.88,-2.9188,0.0,-2.7915,-2.839,0.0,0.0,0.0,0.0,0.0,0.0,0.0,0.0,0.0,0.0,0.0,0.0,0.0,0.0,0.0,0.0,0.0,0.0,0.0,0.0,0.0,0.0,-2.6826,-2.7042,-2.7056,-2.7193,-2.7789,-2.7576,-2.7264,-2.7332,-2.7332,-2.7332,0.0,0.0,0.0,0.0,0.0,0.0,-2.9343,-2.8987,-2.8942,-2.9518,-2.9562,-2.9518,-2.9518,-2.8893,-2.8495,-2.8452,-2.7708,-2.7008,-2.6471,-2.6102,0.0,0.0,0.0,0.0,0.0,0.0,0.0,0.0,0.0,0.0,0.0,0.0,0.0,0.0,0.0,0.0,0.0,0.0,0.0,0.0,0.0,0.0,0.0,0.0,0.0,0.0,0.0,0.0,0.0,-2.405,-2.4116,-2.4257,-2.4621,-2.5046,0.0,0.0,0.0,0.0,0.0,0.0,0.0,0.0,0.0,-2.6732,-2.7361,-2.7692,-2.7594,-2.7987,-2.8192,-2.8228,-2.7954,-2.8088,-2.8558,-2.8363,-2.8785,-2.9629,-2.9629,-2.9374,-2.9057,-2.9883,-3.0102,-2.9905,0.0,0.0,0.0,0.0,-2.9952,-3.0231,-3.0057,-3.0206,-3.0418,-3.0418,0.0,0.0,0.0,0.0,0.0,0.0,0.0,-2.8558,-2.8526,-2.8202,-2.792,-2.8062,-2.7919,-2.7883,-2.814,-2.8061,-2.795,-2.8039,-2.8084,-2.8173,-2.8411,-2.8754,0.0,0.0,0.0,-2.8935,-2.9257,-2.892,-2.8826,-2.9348,-2.9182,-2.9013,-2.9013,-2.873,-2.8632,-2.8796,-2.7939,-2.7434,-2.7544,-2.6513,-2.5835,0.0,0.0,0.0,0.0,0.0,0.0,0.0,0.0,0.0,0.0,0.0,0.0,0.0,0.0,0.0,0.0,0.0,0.0,0.0,0.0,0.0,0.0,0.0,0.0,0.0,0.0,0.0,0.0,-2.4112,-2.4454,-2.4625,-2.5216,-2.5702,0.0,0.0,0.0,0.0,0.0,0.0,-2.6841,-2.7397,-2.7607,-2.7396,-2.7636,-2.7725,-2.7742,-2.8035,-2.8227,-2.8294,-2.8404,-2.8771,-2.9354,-2.9092,-2.9499,-3.0363,-3.0054,-3.0091,-3.0398,-3.0892,-3.0926,-3.0645,-3.0809,-3.0727,-3.0434,-3.0197,-3.0349,-3.0668,-3.0459,-3.0772,-3.119,-3.1055,-3.0935,-3.0757,-3.0182,0.0,0.0,0.0,0.0,-2.9259,-2.938,-2.9106,-2.8779,-2.8779,-2.8573,-2.8411,-2.8411,-2.8411,-2.8429,-2.8574,-2.8606,-2.8716,-2.9106,-2.9198,0.0,-2.8779,-2.8732,-2.8826,-2.892,-2.8621,-2.8525,-2.8873,-2.8621,-2.8411,-2.8411,-2.8411,-2.8525,-2.892,-2.814,-2.7829,-2.818,-2.6879,-2.6045,-2.5869,0.0,0.0,0.0,0.0,0.0,0.0,0.0,0.0,0.0,0.0,0.0,0.0,0.0,0.0,0.0,0.0,0.0,0.0,0.0,0.0,0.0,0.0,0.0,0.0,0.0,0.0,0.0,0.0,0.0,-2.5296,-2.5112,0.0,0.0,0.0,0.0,-2.7642,-2.777,-2.7718,-2.7474,-2.7482,-2.756,-2.7672,-2.7613,-2.7741,-2.8075,-2.8535,-2.8754,-2.8772,-2.9223,-2.9437,-2.9471,-2.9471,-2.992,-3.0698,-3.0974,-3.1512,-3.2074,-3.0975,-3.0486,-3.0482,-3.1182,-3.1435,-3.1435,-3.1397,-3.1359,-3.1283,-3.1244,-3.1218,-3.1151,-3.0699,-3.0225,-2.9793,-2.9303,-2.912,0.0,0.0,-2.8795,-2.8589,-2.8997,-2.8779,-2.846,-2.846,-2.8396,-2.8411,-2.8411,-2.8411,-2.8396,-2.8396,-2.8396,-2.8396,-2.8284,0.0,-2.8396,-2.8235,-2.8332,-2.846,-2.8444,-2.8396,-2.8411,-2.8444,-2.8396,-2.8411,-2.8411,-2.8411,-2.8396,-2.8444,-2.8365,-2.8073,-2.7458,-2.7272,-2.652,-2.5277,-2.5404,0.0,0.0,0.0,0.0,0.0,0.0,0.0,0.0,0.0,0.0,0.0,0.0,0.0,0.0,0.0,0.0,0.0,0.0,0.0,0.0,0.0,0.0,0.0,0.0,0.0,0.0,0.0,0.0,-2.5527,-2.6074,0.0,-2.7051,-2.6826,-2.6837,-2.7269,-2.6905,-2.6757,-2.6891,-2.6939,-2.7019,-2.7307,-2.7806,-2.8129,-2.8285,-2.8925,-2.9242,-2.9242,-2.9402,-2.9782,-3.0265,-3.0265,-3.0679,-3.1403,-3.153,-3.1758,-3.193,-3.1526,-3.1441,-3.1637,-3.1915,-3.1839,-3.1559,-3.1559,-3.1521,-3.1423,-3.1423,-3.1423,-3.1308,-3.0723,-3.0081,-2.9425,-2.9182,-2.8873,-2.8668,-2.8668,-2.8541,-2.8444,-2.8621,-2.8541,-2.8411,-2.8411,-2.8411,-2.8411,-2.8411,-2.8411,-2.8411,-2.8411,-2.8411,-2.8396,-2.8348,-2.8348,-2.8235,-2.7845,-2.7795,-2.7695,-2.7327,-2.7327,-2.7327,-2.7327,-2.763,-2.7845,-2.7845,-2.8186,-2.8411,-2.8411,-2.8411,-2.8288,-2.8057,-2.7579,-2.6901,-2.5993,-2.5514,-2.5065,0.0,0.0,0.0,0.0,0.0,0.0,0.0,0.0,0.0,0.0,0.0,0.0,0.0,0.0,0.0,0.0,0.0,0.0,0.0,0.0,0.0,0.0,0.0,0.0,0.0,-2.5773,-2.6111,-2.6095,-2.6762,-2.7195,-2.7227,-2.6987,-2.6839,-2.7002,-2.6539,-2.6383,-2.6742,-2.6808,-2.7046,-2.7513,-2.8015,-2.8442,-2.8782,-2.9523,-2.9903,-2.9903,-3.0162,-3.0558,-3.1058,-3.1058,-3.1334,-3.18,-3.18,-3.18,-3.18,-3.18,-3.1929,-3.2126,-3.2126,-3.1948,-3.1671,-3.1671,-3.1596,-3.1538,-3.1517,-3.1291,-3.0942,-3.0543,-2.9837,-2.9121,-2.9029,-2.8763,-2.8444,-2.8444,-2.8444,-2.8411,-2.8411,-2.8411,-2.8411,-2.8411,-2.8411,-2.8411,-2.8411,-2.8411,-2.8411,-2.8411,-2.8411,-2.8411,-2.8411,-2.8411,-2.8235,-2.7845,-2.7795,-2.7695,-2.7327,-2.7312,-2.7363,-2.7363,-2.768,-2.7944,-2.7879,-2.822,-2.8444,-2.8411,-2.8411,-2.8411,-2.8411,-2.798,-2.7315,-2.6417,-2.5393,-2.4741,-2.4402,0.0,0.0,0.0,0.0,0.0,0.0,0.0,0.0,0.0,0.0,0.0,0.0,0.0,0.0,0.0,0.0,0.0,0.0,0.0,0.0,0.0,0.0,0.0,-2.7007,-2.7007,-2.7007,-2.7007,-2.7007,-2.7023,-2.707,-2.6791,-2.6742,-2.7087,-2.6859,-2.6842,-2.7122,-2.7207,-2.7609,-2.8404,-2.8424,-2.8757,-2.9541,-3.0334,-3.0713,-3.0731,-3.1455,-3.18,-3.18,-3.18,-3.18,-3.18,-3.18,-3.18,-3.18,-3.18,-3.18,-3.18,-3.18,-3.18,-3.18,-3.18,-3.1709,-3.1579,-3.15,-3.0861,-3.0123,-3.0081,-2.9499,-2.8794,-2.8794,-2.8684,-2.8621,-2.8621,-2.8493,-2.8396,-2.8396,-2.8411,-2.8411,-2.8411,-2.8411,-2.8411,-2.8411,-2.8411,-2.8396,-2.8396,-2.8396,-2.8411,-2.8411,-2.8411,-2.8411,-2.8411,-2.8396,0.0,-2.8348,-2.8477,-2.8573,-2.8525,-2.8684,-2.8684,-2.8573,-2.8573,-2.8525,-2.8396,-2.8411,-2.8396,-2.8396,-2.8411,-2.778,-2.6441,-2.5032,-2.4247,-2.4126,0.0,0.0,0.0,0.0,0.0,0.0,0.0,0.0,0.0,0.0,0.0,0.0,0.0,0.0,0.0,0.0,0.0,0.0,0.0,0.0,0.0,-2.7654,-2.7565,-2.7072,-2.7055,-2.7055,-2.7007,-2.7055,-2.6973,-2.6775,-2.6691,-2.6792,-2.7157,-2.7083,-2.7494,-2.8439,-2.8482,-2.8744,-2.9162,-2.9726,-3.0137,-3.0368,-3.111,-3.1489,-3.1489,-3.1696,-3.18,-3.18,-3.18,-3.18,-3.18,-3.18,-3.18,-3.18,-3.18,-3.18,-3.18,-3.18,-3.18,-3.18,-3.18,-3.18,-3.1709,-3.1334,-3.0845,-3.0309,-2.9881,-2.9364,-2.8842,-2.8826,-2.8747,-2.8747,-2.8747,-2.87,-2.87,-2.87,-2.8636,-2.8541,-2.8541,-2.8541,-2.8541,-2.8541,-2.8636,-2.87,-2.87,-2.87,-2.8652,-2.8541,-2.8541,-2.8429,-2.8091,-2.8027,-2.7879,-2.7515,-2.75,-2.7464,-2.7363,-2.773,-2.7944,-2.783,-2.8301,-2.8573,-2.8541,-2.8652,-2.87,-2.87,-2.8589,-2.8091,-2.7134,-2.6257,-2.5329,0.0,0.0,0.0,0.0,0.0,0.0,0.0,0.0,0.0,0.0,0.0,0.0,0.0,0.0,0.0,0.0,0.0,0.0,0.0,0.0,0.0,0.0,-2.8727,-2.8495,-2.8097,-2.7564,-2.7272,-2.7533,-2.7633,-2.7703,-2.7811,-2.7742,-2.7791,-2.8125,-2.8051,-2.8325,-2.9158,-2.9338,-2.9581,-3.0006,-3.0623,-3.1018,-3.1199,-3.1668,-3.1893,-3.1856,-3.1856,-3.1992,-3.2265,-3.2265,-3.2438,-3.2748,-3.2748,-3.2559,-3.2265,-3.2265,-3.2076,-3.18,0.0,0.0,0.0,0.0,-3.1671,-3.1466,-3.1201,-3.0707,-3.014,-2.9793,-2.9364,-2.8982,-2.8967,-2.8873,-2.8858,-2.8858,-2.8826,-2.8794,-2.8794,-2.8747,-2.8684,-2.8684,-2.8684,-2.8684,-2.8684,-2.8747,-2.8794,-2.8794,-2.8794,0.0,-2.8748,-2.8716,-2.8573,-2.8301,-2.8286,-2.814,-2.7879,-2.7849,-2.7834,-2.775,-2.8076,-2.8222,-2.811,-2.8479,0.0,0.0,0.0,-2.8747,-2.8732,-2.8357,0.0,0.0,0.0,-2.6008,-2.525,-2.4897,0.0,0.0,-2.1684,-2.114,0.0,0.0,0.0,0.0,0.0,0.0,0.0,0.0,0.0,0.0,0.0,0.0,0.0,0.0,0.0,0.0,-2.9954,-2.9574,-2.954,-2.8401,-2.7814,-2.8487,-2.8556,-2.8782,-2.9403,-2.9228,-2.9227,-2.9558,-2.9312,-2.9363,-2.973,-3.0026,0.0,0.0,0.0,-3.1562,-3.193,-3.2037,-3.2037,-3.193,-3.193,-3.2221,-3.2821,-3.2821,-3.3201,-3.3874,-3.3943,-3.358,-3.2942,-3.3028,-3.2631,-3.1958,-3.1834,-3.18,-3.18,-3.18,-3.1504,-3.1083,-3.1044,0.0,0.0,-2.9766,-2.9425,-2.9075,-2.9075,-2.9013,-2.8904,-2.8904,-2.8905,-2.8842,-2.8842,-2.8842,-2.8794,-2.8794,-2.8794,-2.8794,-2.8794,-2.8842,-2.8842,-2.8842,-2.8842,-2.8873,-2.892,-2.8858,-2.8842,-2.8842,-2.8842,-2.8842,-2.8842,-2.8905,-2.8904,-2.8904,-2.9013,0.0,-2.892,-2.8904,-2.8873,-2.8842,-2.8842,-2.8779,-2.8621,-2.8031,-2.7969,-2.8444,-2.7273,-2.6596,-2.6415,-2.5314,-2.4104,-2.2839,-2.2295,-2.1541,0.0,0.0,0.0,0.0,0.0,0.0,0.0,0.0,0.0,0.0,0.0,0.0,0.0,0.0,0.0,-2.9972,-2.9954,-3.0001,-2.9758,-2.9482,-2.936,-2.9434,-2.9451,-2.9385,-2.9212,-2.9403,-2.9661,-2.9955,-3.0223,-3.0642,-3.1317,-3.1416,-3.1522,-3.165,-3.1752,-3.1858,-3.2073,-3.2073,-3.2073,-3.2073,-3.2073,0.0,-3.2246,-3.2246,-3.2332,-3.2524,-3.3132,-3.3306,-3.3202,-3.3862,-3.3654,-3.2835,-3.2098,-3.18,-3.18,-3.18,-3.1504,-3.1044,-3.0723,-3.0267,-2.9766,-2.938,-2.9167,-2.9075,-2.9075,-2.9075,0.0,-2.9075,-2.9029,-2.9045,-2.9045,-2.8982,-2.8873,-2.8873,-2.8873,-2.8873,-2.8873,-2.8982,-2.9045,-2.9045,-2.9045,-2.9045,-2.9075,-2.8967,-2.8936,-2.9045,-2.9045,-2.9045,-2.9045,-2.9029,-2.9013,-2.8904,-2.8904,-2.8936,-2.8826,-2.8889,-2.8904,-2.8873,-2.8982,-2.8982,-2.8873,-2.8701,-2.8654,-2.87,-2.8482,-2.7812,-2.6705,-2.6872,-2.5615,-2.2937,-2.2213,-2.1471,0.0,0.0,0.0,0.0,0.0,0.0,0.0,0.0,0.0,0.0,0.0,-3.1728,-3.2004,0.0,-3.1501,-3.1194,-3.1144,-3.111,-3.0958,-3.0958,-3.0785,-3.0351,-3.0316,-3.0387,-3.0575,-3.0785,-3.0959,-3.1089,-3.1286,-3.1548,-3.1912,-3.1929,-3.1965,-3.1984,-3.202,-3.2091,-3.2144,-3.2232,-3.2232,-3.2144,-3.2144,-3.2317,-3.2647,-3.2647,-3.2856,-3.3291,-3.4022,-3.4144,-3.383,-3.4213,-3.4144,-3.3709,-3.2832,-3.2275,-3.1929,-3.1875,-3.1449,-3.0828,-3.0601,-3.0054,-2.9425,-2.9167,-2.9075,-2.9075,-2.9075,-2.9075,-2.9075,-2.9075,-2.9075,-2.9075,-2.9075,-2.9075,-2.9013,-2.9013,-2.9013,-2.9013,-2.9013,-2.9075,-2.9075,-2.9075,-2.9075,-2.9075,-2.9075,-2.9029,-2.9013,-2.9075,-2.9075,-2.9075,-2.9075,-2.9075,-2.9075,-2.9013,-2.9013,-2.8982,-2.8951,-2.8982,-2.9013,-2.9013,-2.9075,-2.9029,-2.8904,-2.8904,-2.8889,-2.8794,-2.8794,-2.8466,-2.7794,-2.7674,-2.6514,-2.4482,-2.3658,-2.2471,0.0,0.0,0.0,0.0,0.0,0.0,0.0,-3.18,-3.2212,-3.273,-3.252,-3.2491,-3.3364,-3.2816,-3.2266,-3.2506,-3.2318,-3.2161,-3.2161,-3.2161,-3.1917,-3.1272,-3.1184,-3.1411,-3.2056,-3.2108,-3.2108,-3.2108,-3.2108,-3.2108,-3.2108,-3.2108,-3.2108,-3.2108,-3.2179,-3.2214,-3.2232,-3.2354,-3.2354,-3.2232,-3.2232,-3.2511,-3.3049,-3.3032,-3.3467,-3.4269,-3.5157,-3.5335,-3.4917,-3.4917,-3.4812,-3.462,-3.3975,-3.326,-3.2509,-3.2052,-3.1338,-3.0584,-3.0502,-2.9897,-2.9075,-2.9075,-2.9075,-2.9075,-2.9075,-2.9075,-2.9075,-2.9075,-2.9075,-2.9075,-2.9075,-2.9075,-2.9075,-2.9075,-2.9075,-2.9075,-2.9075,-2.9075,-2.9075,-2.9075,-2.9075,-2.9075,-2.9075,-2.9075,-2.9075,-2.9075,-2.9075,-2.9075,-2.9075,-2.9075,-2.9075,-2.9075,-2.9075,-2.9075,-2.9075,-2.9075,-2.9075,-2.9075,-2.9075,-2.9075,-2.8967,-2.8967,-2.8982,-2.9014,-2.892,-2.8873,-2.8967,-2.8202,-2.7269,-2.6184,-2.5409,-2.3653,-2.8379,-2.8724,-2.9205,-3.0739,-3.1078,-3.1104,0.0,-3.2518,-3.358,-3.3,-3.3164,-3.3364,-3.3202,-3.2862,-3.2555,-3.2284,-3.2301,-3.2371,-3.2371,-3.2371,-3.2318,-3.2231,-3.2144,-3.2092,-3.2179,-3.2179,-3.2144,-3.2108,-3.2108,-3.2108,-3.2108,-3.2108,-3.2108,-3.2179,-3.2179,-3.2267,-3.2371,-3.2388,-3.2388,-3.2388,-3.2388,-3.2406,-3.2494,-3.2494,-3.2897,-3.3669,-3.5142,-3.6124,-3.6724,-3.6724,-3.6282,-3.5633,-3.5545,-3.4999,-3.403,-3.247,-3.1338,-3.0584,-3.0502,-2.9897,-2.9075,-2.9075,-2.9075,-2.9075,-2.9075,-2.9075,-2.9075,-2.9075,-2.9075,-2.9075,-2.9075,-2.9075,-2.9075,-2.9075,-2.9075,-2.9075,-2.9075,-2.9075,-2.9075,-2.9075,-2.9075,-2.9075,-2.9075,-2.9075,-2.9075,-2.9075,-2.9075,-2.9075,-2.9075,-2.9075,-2.9075,-2.9075,-2.9075,-2.9075,-2.9075,-2.9075,-2.9075,-2.9075,-2.9075,-2.9075,-2.9075,-2.9075,-2.9289,-2.9677,-2.9289,-2.9213,-2.9499,-2.9011,-2.8093,-2.6864,-2.616,-2.444,-2.8524,-2.8489,-2.8783,-3.0559,-3.1038,-3.1372,-3.2454,-3.3449,-3.3981,-3.3522,-3.3415,-3.3321,-3.3001,-3.2719,-3.2489,-3.2336,-3.2354,-3.2406,-3.2406,-3.2406,-3.2406,-3.2406,-3.2354,-3.2319,-3.2319,-3.2319,-3.2301,-3.2284,-3.2267,-3.2267,-3.2267,-3.2267,-3.2284,-3.2319,-3.2319,-3.2354,-3.2406,-3.2406,-3.2406,-3.2406,-3.2845,-3.3038,-3.3055,-3.3529,-3.4144,-3.4881,-3.553,-3.6268,-3.6987,-3.6987,-3.6794,-3.6443,-3.5987,-3.558,-3.5069,-3.331,-3.2064,-3.1175,-3.0651,-2.9897,-2.9075,-2.9075,-2.9075,-2.9075,-2.9075,-2.9075,-2.9075,-2.9075,-2.9075,-2.9075,-2.9075,-2.9075,-2.9075,-2.9075,-2.9075,-2.9075,-2.9075,-2.9075,-2.9075,-2.9075,-2.9075,-2.9075,-2.9075,-2.9075,-2.9075,-2.9075,-2.9075,-2.9075,-2.9075,-2.9075,-2.9075,-2.9075,-2.9075,-2.9075,-2.9075,-2.9075,-2.9075,-2.9075,-2.9075,-2.9075,-2.9075,-2.9075,-2.9213,-2.938,-2.9213,-2.9167,-2.9289,-2.9044,-2.8466,-2.7649,-2.7244,-2.6029,-2.8844,-2.864,-2.8844,-3.0702,-3.1256,-3.1729,-3.3314,-3.3876,-3.4023,-3.3842,-3.3465,-3.3093,-3.2827,-3.2573,-3.2406,-3.2406,-3.2406,-3.2406,-3.2406,-3.2406,-3.2406,-3.2406,-3.2406,-3.2406,-3.2406,-3.2406,-3.2406,-3.2406,-3.2406,-3.2406,-3.2406,-3.2406,-3.2406,-3.2406,-3.2406,-3.2406,-3.2406,-3.2599,-3.2704,-3.2704,-3.3476,-3.3828,-3.3845,-3.4635,-3.5285,-3.5829,-3.6039,-3.6461,-3.6987,-3.6987,-3.6987,-3.6917,-3.6355,-3.6106,-3.5892,-3.4449,-3.3059,-3.1817,-3.0957,-3.0054,-2.9289,-2.9289,-2.9213,-2.9075,-2.9075,-2.9075,-2.9075,-2.9075,-2.9075,-2.9075,-2.9075,-2.9075,-2.9075,-2.9075,-2.9075,-2.9075,-2.9075,-2.9075,-2.9075,-2.9075,-2.9075,-2.9075,-2.9075,-2.9075,-2.9075,-2.9075,-2.9075,-2.9075,-2.9075,-2.9075,-2.9075,-2.9075,-2.9075,-2.9075,-2.9075,-2.9075,-2.9075,-2.9075,-2.9075,-2.9075,-2.9075,-2.9075,-2.9167,-2.9289,-2.9167,-2.9213,-2.9499,-2.9152,-2.8811,-2.8543,-2.8158,-2.7345,-2.9551,-2.9593,-2.9853,-3.1451,-3.204,-3.2371,-3.314,-3.3578,-3.3807,-3.3788,-3.3273,-3.2795,-3.2795,-3.2573,-3.2406,-3.2406,-3.2406,-3.2406,-3.2406,-3.2406,-3.2406,-3.2406,-3.2406,-3.2406,-3.2406,-3.2406,-3.2406,-3.2406,-3.2406,-3.2406,-3.2406,-3.2406,-3.2406,-3.2406,-3.2406,-3.2406,-3.2406,-3.3125,-3.3476,-3.3459,-3.4266,-3.4653,-3.4688,-3.5443,-3.5794,-3.5864,-3.6619,-3.697,-3.6987,-3.6987,-3.6987,-3.6987,-3.6952,-3.6856,-3.6689,-3.592,-3.4337,-3.2417,-3.1416,-3.0502,-2.9793,-2.9793,-2.947,-2.9075,-2.9075,-2.9075,-2.9075,-2.9075,-2.9075,-2.9075,-2.9075,-2.9075,-2.9075,-2.9075,-2.9075,-2.9075,-2.9075,-2.9075,-2.9075,-2.9075,-2.9075,-2.9075,-2.9075,-2.9075,-2.9075,-2.9075,-2.9075,-2.9075,-2.9075,-2.9075,-2.9075,-2.9075,-2.9075,-2.9075,-2.9075,-2.9075,-2.9075,-2.9075,-2.9075,-2.9075,-2.9075,-2.9075,-2.9289,-2.9766,-2.9335,-2.9544,-3.0477,-2.9544,-2.9335,-2.9705,-2.8591,-2.8061,-2.8694,-2.9215,-2.9891,-3.0754,-3.1689,-3.2538,-3.3051,-3.3522,-3.3734,-3.3243,-3.2952,-3.2795,-3.2795,-3.2573,-3.2457,-3.2654,-3.2523,-3.2406,-3.2406,-3.2406,-3.2406,-3.2406,-3.2406,-3.2406,-3.2406,-3.2406,-3.2406,-3.2406,-3.2406,-3.2406,-3.2406,-3.2406,-3.2406,-3.2406,-3.2406,-3.2406,-3.2406,-3.3143,-3.3476,-3.3529,-3.4811,-3.5706,-3.6215,-3.6478,-3.6584,-3.6601,-3.6865,-3.6987,-3.6987,-3.6987,-3.6987,-3.6987,-3.6987,-3.6987,-3.6843,-3.6011,-3.4913,-3.3679,-3.2535,-3.1369,-3.046,-3.046,-3.0081,-2.9629,-2.9629,-2.9393,-2.9075,-2.9075,-2.9075,-2.9075,-2.9075,-2.9075,-2.9075,-2.9075,-2.9075,-2.9075,-2.9075,-2.9075,-2.9075,-2.9075,-2.9075,-2.9075,-2.9075,-2.9075,-2.9075,-2.9075,-2.9075,-2.9075,-2.9075,-2.9075,-2.9075,-2.9075,-2.9075,-2.9075,-2.9075,-2.9075,-2.9075,-2.9075,-2.9075,-2.9075,-2.9075,-2.9075,-2.9335,-2.9793,-2.9633,-2.9722,-3.0054,-2.9722,-2.9499,-2.9335,-2.8967,-2.8622,-2.8388,-2.9215,-3.0179,-3.0503,-3.1689,-3.2839,-3.3105,-3.3437,-3.355,-3.3014,-3.2813,-3.2716,-3.2687,-3.2523,-3.2457,-3.2621,-3.2523,-3.2406,-3.2406,-3.2406,-3.2406,-3.2406,-3.2406,-3.2406,-3.2406,-3.2406,-3.2406,-3.2406,-3.2406,-3.2406,-3.2406,-3.2406,-3.2406,-3.2406,-3.2406,-3.2406,-3.2406,-3.3424,-3.4214,-3.4776,-3.5759,-3.6496,-3.6987,-3.6987,-3.6987,-3.6987,-3.6987,-3.6987,-3.6987,-3.6987,-3.6987,-3.6987,-3.6987,-3.6987,-3.6917,-3.6348,-3.5507,-3.4399,-3.3222,-3.2008,-3.1027,-3.1027,-3.0633,-3.0218,-3.0201,-2.9789,-2.9393,-2.9572,-2.938,-2.9121,-2.9305,-2.9213,-2.9075,-2.9075,-2.9075,-2.9075,-2.9075,-2.9075,-2.9075,-2.9075,-2.9259,-2.9335,-2.9335,-2.9335,-2.9335,-2.9335,-2.9213,-2.9075,-2.9075,-2.9075,-2.9075,-2.9075,-2.9075,-2.9075,-2.9075,-2.9075,-2.9075,-2.9075,-2.9075,-2.9075,-2.9075,-2.9075,-2.9259,-2.9544,-2.9544,-2.9633,-2.9793,-2.9633,-2.9454,-2.9335,-2.9167,-2.8967,-2.8587,-2.962,-3.0725,-3.0725,-3.2029,-3.3321,-3.3291,-3.3291,-3.3262,-3.3111,-3.2848,-3.2573,-3.2457,-3.2422,-3.2422,-3.2422,-3.2422,-3.2406,-3.2406,-3.2406,-3.2406,-3.2406,-3.2406,-3.2406,-3.2406,-3.2388,-3.2388,-3.2406,-3.2406,-3.2406,-3.2406,-3.2406,-3.2406,-3.2406,-3.2406,-3.2406,-3.2406,-3.3915,-3.5443,-3.6917,-3.697,-3.6987,-3.6987,-3.6987,-3.6987,-3.6987,-3.6987,-3.6987,-3.6987,-3.6987,-3.6987,-3.6987,-3.6987,-3.6987,-3.6987,-3.697,-3.6004,-3.4508,-3.3591,-3.2478,-3.1435,-3.1435,-3.1167,-3.0828,-3.0778,-3.0352,-3.0031,-3.0485,-2.9924,-2.9289,-2.9705,-2.9499,-2.9167,-2.9167,-2.9167,-2.9167,-2.9121,-2.9121,-2.9121,-2.9121,-2.9515,-2.9793,-2.9766,-2.975,-2.975,-2.975,-2.938,-2.9075,-2.9075,-2.9075,-2.9075,-2.9075,-2.9075,-2.9075,-2.9075,-2.9075,-2.9075,-2.9075,-2.9075,-2.9075,-2.9075,-2.9075,-2.9121,-2.9121,-2.9121,-2.9335,-2.9793,-2.9335,-2.9335,-2.975,-2.9289,-2.9121,-2.8587,-2.9745,-3.0912,-3.0912,-3.2274,-3.3512,-3.322,-3.3262,-3.3273,-3.3024,-3.2866,-3.2866,-3.3037,-3.2898,-3.282,-3.2912,-3.2705,-3.2523,-3.2422,-3.2406,-3.2406,-3.2406,-3.2406,-3.2406,-3.2406,-3.2179,-3.2144,-3.2388,-3.2406,-3.2406,-3.2406,-3.2406,-3.2406,-3.2406,-3.2406,-3.2406,-3.2406,-3.3915,-3.5162,-3.611,-3.6707,-3.6987,-3.6987,-3.6987,-3.6987,-3.6987,-3.6987,-3.6987,-3.6987,-3.6987,-3.6987,-3.6987,-3.6987,-3.6869,-3.6667,-3.6908,-3.5715,-3.4007,-3.4219,-3.335,-3.2144,-3.2144,-3.1821,-3.1376,-3.1376,-3.101,-3.0584,-3.0707,-3.0502,-3.0293,-3.0502,-3.0351,-3.0081,-2.9761,-2.9935,-2.9968,-2.9243,-2.938,-2.9633,-2.9633,-2.9722,-2.9677,-2.9335,-2.9289,-2.9289,-2.9289,-2.9167,-2.9075,-2.9075,-2.9075,-2.9075,-2.9075,-2.9075,-2.9075,-2.9075,-2.9075,-2.9075,-2.9075,-2.9075,-2.9075,-2.9075,-2.9075,-2.9243,-2.9633,-2.9633,-2.9677,-2.9793,-2.9677,-2.9499,-2.9289,-2.9167,-2.9305,-2.8562,-2.9771,-3.0985,-3.0985,-3.2292,-3.352,-3.3286,-3.3327,-3.3309,-3.3024,-3.3011,-3.3024,-3.3099,-3.2993,-3.2866,-3.2766,-3.2752,-3.2606,-3.2301,-3.2405,-3.2473,-3.2406,-3.2406,-3.2354,-3.2179,-3.202,-3.1948,-3.2018,-3.2108,-3.2232,-3.2388,-3.2406,-3.2406,-3.2406,-3.2406,-3.2564,-3.288,-3.4091,-3.5074,-3.5829,-3.6619,-3.6987,-3.6987,-3.6987,-3.6987,-3.6987,-3.6987,-3.6987,-3.6987,-3.6987,-3.6987,-3.6987,-3.6987,-3.6908,-3.6748,-3.6948,-3.5793,-3.4159,-3.4391,-3.3471,-3.2179,-3.2179,-3.1912,-3.1562,-3.1562,-3.1162,-3.0804,-3.114,-3.0747,-3.0335,-3.0804,-3.0543,-3.0123,-2.9821,-2.9924,-2.9941,-2.938,-2.938,-2.9544,-2.975,-2.9793,-2.9793,-2.9705,-2.9544,-2.9425,-2.9425,-2.9243,-2.9075,-2.9075,-2.9075,-2.9075,-2.9075,-2.9075,-2.9075,-2.9075,-2.9075,-2.9075,-2.9075,-2.9075,-2.9075,-2.9075,-2.9075,-2.9213,-2.9499,-2.9499,-2.9499,-2.9499,-2.9499,-2.9335,-2.9075,-2.9075,-2.9198,-2.8448,-2.9745,-3.0985,-3.0985,-3.2198,-3.3393,-3.3393,-3.3393,-3.3364,-3.3196,-3.3147,-3.3104,-3.2948,-3.2948,-3.2802,-3.2352,-3.2588,-3.2639,-3.2108,-3.2301,-3.2438,-3.2336,-3.2319,-3.2196,-3.1984,-3.1858,-3.1728,-3.1542,-3.1728,-3.1984,-3.2319,-3.2371,-3.2406,-3.2406,-3.2406,-3.2704,-3.3336,-3.4126,-3.4916,-3.5671,-3.6422,-3.6825,-3.6987,-3.693,-3.6948,-3.6987,-3.6987,-3.6987,-3.6987,-3.6987,-3.6987,-3.6987,-3.6987,-3.697,-3.693,-3.6865,-3.5878,-3.4504,-3.4213,-3.309,-3.1785,-3.1821,-3.1691,-3.1504,-3.1504,-3.1123,-3.0868,-3.1542,-3.0925,-3.0166,-3.0885,-3.0518,-2.9924,-2.9694,-2.9633,-2.9649,-2.947,-2.9305,-2.9289,-2.9633,-2.9766,-2.9924,-3.0267,-2.9968,-2.9722,-2.9722,-2.938,-2.9075,-2.9075,-2.9075,-2.9075,-2.9075,-2.9075,-2.9075,-2.9075,-2.9075,-2.9075,-2.9075,-2.9075,-2.9075,-2.9075,-2.9075,-2.9075,-2.9075,-2.9075,-2.9075,-2.9075,-2.9075,-2.9075,-2.9075,-2.9075,-2.9059,-2.8156,-2.9575,-3.0985,-3.0985,-3.2198,-3.3393,-3.3393,-3.3393,-3.3393,-3.3364,-3.3364,-3.3304,-3.3086,-3.3055,-3.2898,-3.2386,-3.2352,-3.2249,-3.1765,-3.1728,-3.1839,-3.1984,-3.1802,-3.1819,-3.2284,-3.1617,-3.1351,-3.1785,-3.1691,-3.1691,-3.1984,-3.2232,-3.2406,-3.2406,-3.2406,-3.2458,-3.2581,-3.3318,-3.4091,-3.4898,-3.5366,-3.6103,-3.6987,-3.669,-3.6748,-3.6987,-3.6987,-3.6987,-3.6987,-3.6987,-3.6987,-3.6987,-3.6987,-3.6829,-3.6539,-3.6134,-3.5118,-3.3859,-3.3676,-3.2545,-3.1196,-3.1466,-3.1542,-3.1504,-3.1504,-3.1428,-3.1389,-3.1504,-3.1295,-3.11,-3.1351,-3.1213,-3.0838,-3.0309,-3.0377,-3.0293,-2.938,-2.9425,-2.9589,-2.9289,-2.9544,-2.9705,-2.938,-2.9289,-2.9213,-2.9213,-2.9167,-2.9075,-2.9075,-2.9075,-2.9075,-2.9075,-2.9075,-2.9075,-2.9075,-2.9075,-2.9075,-2.9075,-2.9075,-2.9075,-2.9075,-2.9075,-2.9075,-2.9075,-2.9075,-2.9075,-2.9075,-2.9075,-2.9075,-2.9075,-2.9075,-2.9289,-2.784,-2.8976,-3.0176,-3.0415,-3.1624,-3.281,-3.3039,-3.3178,-3.3256,-3.3364,-3.3274,-3.3135,-3.3086,-3.3024,-3.2834,-3.2386,-3.2335,-3.2162,-3.1691,-3.1637,-3.1674,-3.1691,-3.1579,-3.1559,-3.1671,-3.1428,-3.1329,-3.1411,-3.1466,-3.1617,-3.1894,-3.2232,-3.2406,-3.2406,-3.2406,-3.2406,-3.2406,-3.3125,-3.367,-3.4073,-3.5081,-3.5754,-3.6138,-3.6394,-3.6468,-3.6433,-3.6433,-3.6433,-3.6433,-3.6433,-3.6433,-3.6433,-3.6433,-3.6143,-3.5638,-3.5423,-3.4381,-3.3111,-3.2909,-3.202,-3.1015,-3.0998,-3.0998,-3.0998,-3.1213,-3.1117,-3.0998,-3.1213,-3.1078,-3.0958,-3.1173,-3.0975,-3.0551,-3.014,-3.0097,-2.9924,-2.9259,-2.938,-2.956,-2.9167,-2.9289,-2.938,-2.9121,-2.9075,-2.9075,-2.9075,-2.9075,-2.9029,-2.8811,-2.8779,-2.8873,-2.9075,-2.9075,-2.9075,-2.9075,-2.9075,-2.9075,-2.9075,-2.9075,-2.9075,-2.9075,-2.9075,-2.9075,-2.9075,-2.9075,-2.9075,-2.9075,-2.9075,-2.8936,-2.8574,-2.8574,-2.8543,-2.7504,-2.83,-2.9207,-2.9804,-3.0863,-3.1923,-3.2553,-3.283,-3.3024,-3.3244,-3.3073,-3.2916,-3.2993,-3.2866,-3.2639,-3.2214,-3.2162,-3.1967,-3.1504,-3.1449,-3.147,-3.1389,-3.1312,-3.1235,-3.1134,-3.1213,-3.1196,-3.1015,-3.1329,-3.1617,-3.1894,-3.2232,-3.2406,-3.2406,-3.2406,-3.2406,-3.2406,-3.2967,-3.3336,-3.3512,-3.4666,-3.52,-3.5196,-3.5937,-3.6101,-3.5882,-3.5968,-3.6054,-3.5994,-3.5779,-3.5668,-3.5651,-3.5497,-3.5147,-3.4616,-3.4445,-3.3642,-3.2559,-3.2167,-3.1584,-3.0975,-3.0757,-3.0634,-3.0568,-3.0814,-3.0733,-3.0568,-3.0773,-3.0651,-3.0468,-3.0675,-3.0426,-3.0044,-2.981,-2.9544,-2.9335,-2.9029,-2.9198,-2.9335,-2.9029,-2.9029,-2.9075,-2.9075,-2.9029,-2.8982,-2.8982,-2.8873,-2.8716,-2.8415,-2.8367,-2.8511,-2.8826,-2.892,-2.8982,-2.8982,-2.8982,-2.8982,-2.8982,-2.8873,-2.8826,-2.8826,-2.892,-2.8982,-2.8982,-2.9075,-2.9075,-2.8982,-2.8982,-2.8669,-2.8076,-2.8076,-2.7815,-2.7132,-2.771,-2.8466,-2.9545,-3.0108,-3.0751,-3.214,-3.2453,-3.257,-3.2866,-3.2916,-3.2852,-3.2672,-3.242,-3.2144,-3.1728,-3.1483,-3.1173,-3.0855,-3.0773,-3.0855,-3.1015,-3.0773,-3.0838,-3.1406,-3.0918,-3.0733,-3.0975,-3.1329,-3.1617,-3.1894,-3.2232,-3.2406,-3.2406,-3.2406,-3.2406,-3.2406,-3.2476,-3.2845,-3.3493,-3.336,-3.3778,-3.4774,-3.5201,-3.5548,-3.5836,-3.6273,-3.6444,-3.635,-3.5393,-3.4976,-3.4924,-3.424,-3.3949,-3.3796,-3.3077,-3.2735,-3.2513,-3.1807,-3.1303,-3.1055,-3.1312,-3.0998,-3.0526,-3.0526,-3.051,-3.0485,-3.0316,-3.0231,-3.0189,-2.9984,-2.9881,-2.9766,-2.9605,-2.935,-2.9029,-2.8622,-2.8873,-2.9013,-2.8622,-2.8873,-2.9075,-2.9075,-2.8826,-2.8574,-2.8574,-2.8255,-2.8012,-2.7947,-2.7963,-2.7963,-2.8012,-2.8367,-2.8574,-2.8574,-2.8574,-2.8574,-2.8574,-2.8207,-2.8012,-2.8012,-2.8367,-2.8574,-2.8574,-2.892,-2.892,-2.8574,-2.8574,-2.8367,-2.7898,-2.7898,-2.7898,-2.6367,-2.6724,-2.7165,-2.7872,-2.8972,-3.0058,-3.0657,-3.1567,-3.2335,-3.2537,-3.2623,-3.2608,-3.2606,-3.2283,-3.1966,-3.1802,-3.1389,-3.1015,-3.0895,-3.0692,-3.0609,-3.0692,-3.0326,-3.0284,-3.0838,-3.0576,-3.0535,-3.0975,-3.1329,-3.1466,-3.1351,-3.2001,-3.2319,-3.2108,-3.2108,-3.2037,-3.1856,-3.1856,-3.2012,-3.2305,-3.2603,-3.2887,-3.3174,-3.3748,-3.3989,-3.3922,-3.4117,-3.4209,-3.4192,-3.3758,-3.3597,-3.3564,-3.3235,-3.2866,-3.2446,-3.2127,-3.1724,-3.1304,-3.1019,-3.0797,-3.0716,-3.0838,-3.0716,-3.0526,-3.0733,-3.0568,-3.0316,-3.0231,-3.0087,-2.9941,-2.9853,-2.9528,-2.9227,-2.8951,-2.8811,-2.8779,-2.8826,-2.8982,-2.8982,-2.8574,-2.8622,-2.8669,-2.8415,-2.8255,-2.8158,-2.8158,-2.7997,-2.7815,-2.761,-2.761,-2.7509,-2.7255,-2.778,-2.8158,-2.8158,-2.8158,-2.8158,-2.8158,-2.8012,-2.7898,-2.7898,-2.8061,-2.8158,-2.8158,-2.8319,-2.8304,-2.8158,-2.8158,-2.7864,-2.7297,-2.7297,-2.7144,-2.5647,-2.5746,-2.5897,-2.6515,-2.7644,-2.8793,-2.942,-3.0588,-3.1636,-3.2039,-3.2197,-3.2284,-3.237,-3.2109,-3.1858,-3.1785,-3.1351,-3.0975,-3.0855,-3.0651,-3.0526,-3.0526,-3.0215,-3.0113,-3.0485,-3.041,-3.0493,-3.0855,-3.1157,-3.1252,-3.1015,-3.1709,-3.2054,-3.1785,-3.1785,-3.1691,-3.1504,-3.1504,-3.1504,-3.1521,-3.2034,-3.2173,-3.1968,-3.2696,-3.2892,-3.267,-3.28,-3.2857,-3.284,-3.2508,-3.2365,-3.2348,-3.2133,-3.1735,-3.1246,-3.1246,-3.0974,-3.0526,-3.0526,-3.0526,-3.0526,-3.0526,-3.0526,-3.0551,-3.0773,-3.0568,-3.0189,-3.0087,-2.987,-2.9589,-2.9589,-2.9273,-2.8873,-2.8559,-2.8511,-2.8527,-2.859,-2.8685,-2.8622,-2.8238,-2.8271,-2.8207,-2.7947,-2.7815,-2.773,-2.773,-2.763,-2.7494,-2.7233,-2.7196,-2.7093,-2.6832,-2.7255,-2.763,-2.773,-2.773,-2.773,-2.773,-2.763,-2.758,-2.758,-2.768,-2.773,-2.773,-2.7864,-2.7864,-2.773,-2.773,-2.7429,-2.6692,-2.6811,-2.6616,-2.5105,-2.4816,-2.4708,-2.583,-2.6093,-2.6598,-2.8803,-2.9621,-3.0222,-3.1274,-3.1728,-3.1894,-3.1894,-3.1894,-3.1821,-3.1559,-3.1213,-3.0895,-3.0568,-3.0526,-3.0526,-3.0526,-3.0485,-3.0468,-3.0526,-3.0526,-3.0526,-3.051,-3.0814,-3.1015,-3.1015,-3.1312,-3.1521,-3.1504,-3.1504,-3.1504,-3.1504,-3.1504,-3.1504,-3.1504,-3.1521,-3.1521,-3.1555,-3.229,-3.2615,-3.2627,-3.3034,-3.3169,-3.3119,-3.2048,-3.1593,-3.1527,-3.0824,-3.0543,-3.0526,-3.0526,-3.0526,-3.0526,-3.0526,-3.0526,-3.0526,-3.0526,-3.0526,-3.0526,-3.051,-3.0359,-3.0146,-2.9897,-2.947,-2.9121,-2.9121,-2.9075,-2.8982,-2.8622,-2.8511,-2.8286,-2.759,-2.7695,-2.7815,-2.7488,-2.7695,-2.7898,-2.7898,-2.761,-2.7401,-2.7401,-2.7093,-2.6779,-2.6779,-2.6779,-2.6779,-2.6779,-2.6779,-2.6989,-2.735,-2.7401,-2.7401,-2.7401,-2.7041,-2.6832,-2.6832,-2.7196,-2.7401,-2.7401,-2.773,-2.773,-2.7401,-2.7401,-2.7011,-2.6283,-2.6659,-2.65,-2.4542,-2.4704,-2.4831,-2.5195,-2.5863,-2.6503,-2.6953,-2.8321,-2.9593,-2.9945,-3.0883,-3.1691,-3.1858,-3.1562,-3.1389,-3.1711,-3.114,-3.0692,-3.0814,-3.0368,-3.0027,-3.0027,-3.0027,-2.9897,-2.9572,-3.0113,-3.0526,-3.0526,-3.0609,-3.0651,-3.0651,-3.0757,-3.0918,-3.1134,-3.1173,-3.1038,-3.0838,-3.0838,-3.0838,-3.0838,-3.0838,-3.0838,-3.0797,-3.1072,-3.1173,-3.1189,-3.13,-3.1358,-3.1341,-3.0999,-3.0874,-3.0858,-3.0609,-3.03,-3.0027,-3.0027,-2.9793,-2.9572,-2.9897,-2.9793,-2.9617,-2.9941,-2.9793,-2.9528,-2.9528,-2.9853,-3.006,-2.9364,-2.909,-2.8826,-2.8122,-2.7925,-2.7925,-2.7775,-2.7725,-2.776,-2.773,-2.7815,-2.783,-2.7488,-2.7488,-2.7473,-2.7218,-2.7078,-2.6989,-2.6989,-2.6884,-2.6779,-2.6779,-2.6447,-2.6179,-2.6179,-2.5825,-2.5974,-2.6937,-2.6989,-2.6989,-2.6989,-2.6884,-2.6779,-2.6779,-2.6937,-2.6989,-2.6989,-2.7063,-2.6893,-2.6379,-2.6379,-2.596,-2.5204,-2.5329,-2.5175,-2.3903,-2.4395,-2.4679,-2.4679,-2.5314,-2.6013,-2.6166,-2.7171,-2.8233,-2.8911,-2.9916,-3.0784,-3.121,-3.1218,-3.1196,-3.1261,-3.0804,-3.041,-3.0309,-2.9837,-2.9528,-2.9528,-2.9528,-2.9438,-2.912,-2.9617,-2.9984,-2.9984,-2.9984,-3.007,-3.0258,-3.0258,-3.0426,-3.0814,-3.0814,-3.0733,-3.0526,-3.0526,-3.0526,-3.0526,-3.0526,-3.0526,-3.0526,-3.0526,-3.0526,-3.0526,-3.0526,-3.0526,0.0,-3.0526,-3.0526,-3.0468,-3.03,-3.007,-2.9793,-2.9617,-2.9348,-2.912,-2.9438,-2.9348,-2.9166,-2.9438,-2.9348,-2.912,-2.9303,-2.9483,-2.9483,-2.8811,-2.8637,-2.8494,-2.776,-2.756,-2.7575,-2.7437,-2.7401,-2.7437,-2.7494,-2.7479,-2.7444,-2.7233,-2.7196,-2.7093,-2.6832,-2.6779,-2.6727,-2.65,-2.6447,-2.6394,-2.615,-2.577,-2.5536,-2.5536,-2.5245,-2.53,-2.6042,-2.634,-2.6568,-2.6779,-2.6779,-2.6674,-2.6447,-2.6447,-2.6326,-2.615,-2.6096,-2.5934,-2.5536,-2.5425,-2.5189,-2.4811,-2.4697,-2.4496,0.0,-2.3909,-2.4261,-2.4261,-2.4558,-2.5116,-2.6149,-2.6158,0.0,-2.8142,-2.8869,-2.9403,-3.0103,-3.0885,-3.114,-3.0418,-3.0293,-2.9995,-2.9257,-2.9074,-2.9028,-2.8982,-2.9028,-2.9028,-2.9028,-2.9074,-2.9074,-2.9074,-2.9074,-2.9303,-2.9705,-2.975,-2.9941,-3.0384,-3.0426,-3.0426,-3.0426,-3.0426,-3.0426,-3.0384,-3.0384,-3.0384,-3.0384,-3.0384,-3.0384,-3.0384,-3.0384,-3.0384,-3.0384,-3.0426,-3.0426,-3.0384,-2.9984,-2.981,-2.9661,-2.9303,-2.9074,-2.8982,-2.9074,-2.9028,-2.8982,-2.8982,-2.8982,-2.9074,-2.9528,-2.9196,-2.8654,-2.8365,-2.822,-2.8122,-2.7929,-2.7864,-2.7715,-2.7372,-2.735,-2.7248,-2.6832,-2.6779,-2.6779,-2.6779,-2.6779,-2.6727,-2.6727,-2.6674,-2.65,-2.5948,-2.5839,-2.5591,-2.5007,-2.4881,-2.4838,-2.4838,-2.4838,-2.4768,-2.4754,-2.5412,-2.6056,-2.6621,-2.6674,-2.6394,-2.5839,-2.5839,-2.5536,-2.4951,-2.4881,-2.4824,-2.4768,-2.4381,-2.4381,-2.4654,-2.4368,-2.415,-2.2372,0.0,-2.412,-2.4021,-2.4048,-2.4219,0.0,-2.4887,-2.5518,-2.6572,-2.7548,-2.8542,-2.9496,-2.9962,-3.0251,-3.0344,-3.0107,-2.9865,-2.9745,-2.9027,-2.8352,-2.7993,-2.8271,-2.8496,-2.8496,-2.8889,-2.9074,-2.9074,-2.9074,-2.9166,-2.9257,-2.9257,-2.9303,-2.9438,-2.9793,-2.9968,-2.9968,-2.9968,-2.9793,-2.9438,-2.9438,-2.9438,-2.9438,-2.9438,-2.9438,-2.9438,-2.9438,-2.9438,-2.9438,-2.981,-2.975,-2.9483,-3.0113,-2.9645,-2.8717,-2.9377,-2.8919,-2.8042,-2.8842,-2.8606,-2.7944,-2.7944,-2.7944,-2.7944,-2.8076,-2.8559,-2.8982,-2.8779,-2.8431,-2.7993,-2.7372,-2.7233,-2.7078,-2.6433,-2.6606,-2.6779,-2.6218,-2.6447,-2.6779,-2.6779,-2.6447,-2.6111,-2.6111,-2.5701,-2.5356,-2.5245,-2.5189,-2.4937,-2.4244,-2.3735,-2.3467,-2.3467,-2.305,-2.2712,-2.266,-2.4231,-2.5245,-2.5412,-2.5273,-2.5148,-2.4993,-2.4867,-2.4768,-2.4641,-2.3605,-2.2867,-2.2347,-2.1794,-2.1506,-2.142,-2.1307,-2.1255,-2.1278,-2.2628,-2.3736,-2.3879,-2.3879,-2.3964,-2.4173,-2.421,-2.449,-2.5422,-2.6349,-2.7346,-2.8275,-2.8667,-2.8963,-2.9387,-2.8963,-2.8639,-2.8826,-2.8336,-2.7879,-2.7625,-2.7845,-2.7978,-2.7978,-2.8222,-2.8415,-2.8415,-2.8415,-2.8511,-2.8732,-2.8982,-2.9212,-2.9393,-2.9661,-2.9705,-2.9483,-2.9705,-2.9572,-2.9074,-2.9074,-2.9074,-2.9074,-2.9074,-2.9074,-2.9074,-2.9074,-2.9074,-2.912,-2.9348,-2.9348,-2.912,-2.9377,-2.898,-2.8336,-2.8685,-2.8271,-2.7675,-2.8238,-2.8042,-2.7625,-2.7625,-2.7625,-2.761,-2.7845,-2.8091,-2.8286,-2.8253,-2.778,-2.7225,-2.6736,-2.6606,-2.6447,-2.6002,-2.634,-2.6621,-2.6002,-2.6165,-2.6286,-2.6042,-2.5701,-2.5356,-2.5036,-2.4727,-2.4315,-2.3722,-2.3605,-2.3487,-2.3132,-2.2797,-2.2433,-2.2152,-2.1794,-2.1323,-2.0579,-2.1516,-2.2443,-2.3001,-2.2858,-2.2752,-2.2827,-2.2648,-2.2625,-2.2712,-2.198,-2.142,-2.1095,-2.076,-2.0526,-2.0462,-2.0462,-2.0019,-2.012,-2.1425,-2.27,-2.3362,-2.3507,-2.3636,-2.4116,-2.3666,-2.3452,-2.4566,-2.5379,-2.6091,-2.6805,-2.7382,-2.7792,-2.803,-2.759,-2.7238,-2.7291,-2.7357,-2.7357,-2.7357,-2.7408,-2.7458,-2.7458,-2.7575,-2.7625,-2.7625,-2.7625,-2.7745,-2.8158,-2.8638,-2.9074,-2.9438,-2.9512,-2.9348,-2.8889,-2.9348,-2.9348,-2.8889,-2.8889,-2.8889,-2.8889,-2.8889,-2.8889,-2.8889,-2.8889,-2.8889,-2.8889,-2.8935,-2.8935,-2.8842,-2.8543,-2.8352,-2.8158,-2.7894,-2.771,-2.7625,-2.7625,-2.7625,-2.7625,-2.7625,-2.7575,-2.761,-2.8027,-2.7745,-2.7233,-2.7233,-2.6945,-2.651,-2.6176,-2.6082,-2.6002,-2.5715,-2.6111,-2.6326,-2.5591,-2.5536,-2.5412,-2.4811,-2.4641,-2.4328,-2.3696,-2.3521,-2.3094,-2.1882,-2.1708,-2.1658,-2.1506,-2.1444,-2.1232,-2.0617,-2.0542,-1.9943,-1.8537,-1.8471,-1.874,-1.949,-1.9797,-1.9957,-1.9929,-1.9673,-1.9598,-1.9662,-1.9662,-1.9597,-1.9467,-1.9467,-1.9467,-1.9467,-1.9467,-1.8736,-1.9024,-1.9396,-1.9851,-2.1397,-2.1785,-2.1927,-2.2466,-2.2434,-2.2726,-2.3978,-2.4779,-2.5301,-2.5553,-2.6822,-2.7685,-2.7195,-2.7108,-2.6886,-2.6162,-2.6054,-2.6054,-2.6054,-2.651,-2.6841,-2.6841,-2.7306,-2.7625,-2.7625,-2.7625,-2.7625,-2.771,-2.781,-2.786,-2.7944,-2.8304,-2.8304,-2.781,-2.8304,-2.8304,-2.781,-2.781,-2.781,-2.781,-2.781,-2.781,-2.781,-2.781,-2.781,-2.786,-2.8255,-2.8174,-2.791,-2.8701,-2.8463,-2.7795,-2.8559,-2.8334,-2.7625,-2.7625,-2.7625,-2.7625,-2.7625,-2.7539,-2.7437,-2.7539,-2.7049,-2.6457,-2.6457,-2.6788,-2.6959,-2.6283,-2.6122,-2.5797,-2.4624,-2.4851,-2.4937,-2.3702,-2.3839,-2.3987,-2.3352,-2.2842,-2.2445,-2.2323,-2.1868,-2.1267,-2.0406,-2.0331,-1.9879,-1.8685,-1.8552,-1.8485,-1.8419,-1.8352,-1.7852,-1.645,-1.6381,-1.5687,-1.4165,-1.667,-1.7772,-1.6782,-1.6347,-1.5885,-1.5392,-1.5323,-1.5068,-1.449,-1.449,-1.449,-1.449,-1.449,-1.434,-1.742,-1.7529,-1.7652,-1.8477,-1.9022,-1.9459,-1.9712,-1.9762,-2.0152,-2.1412,-2.2423,-2.313,-2.3111,-2.396,-2.461,-2.4356,-2.4693,-2.5011,-2.5135,-2.5149,-2.5218,-2.5287,-2.5563,-2.5863,-2.6176,-2.6774,-2.6982,-2.6654,-2.724,-2.7473,-2.7152,-2.7378,-2.7565,-2.7565,-2.7455,-2.7289,-2.7063,-2.696,-2.7159,-2.7625,-2.7625,-2.7625,-2.7625,-2.7625,-2.7625,-2.7575,-2.7255,-2.71,-2.7152,-2.7327,-2.7327,-2.7188,-2.7978,-2.7993,-2.7625,-2.7765,-2.7464,-2.693,-2.6654,-2.6481,-2.6428,-2.6428,-2.639,-2.6336,-2.6336,-2.6014,-2.5728,-2.5728,-2.5728,-2.5673,-2.5231,-2.4867,-2.4372,-2.3657,-2.3677,-2.3625,-2.2639,-2.2687,-2.2675,-2.2029,-2.1397,-2.083,-2.0448,-1.9814,-1.9114,-1.8449,-1.8315,-1.8247,-1.7968,-1.76,-1.7241,-1.689,-1.6528,-1.5765,-1.4411,-1.3475,-1.2839,-1.2739,-1.4308,-1.5159,-1.5054,-1.5117,-1.4736,-1.386,-1.386,-1.373,-1.3397,-1.3397,-1.3397,-1.3397,-1.3397,-1.3382,-1.5813,-1.5838,-1.5763,-1.5802,-1.6586,-1.733,-1.7232,-1.7286,-1.763,-1.8614,-1.9805,-2.073,-2.0921,-2.1492,-2.2007,-2.2116,-2.2608,-2.3153,-2.3606,-2.3948,-2.4275,-2.4403,-2.4573,-2.4883,-2.5315,-2.5932,-2.6094,-2.5591,-2.6467,-2.6901,-2.6736,-2.7093,-2.7333,-2.7333,-2.6879,-2.6553,-2.6395,-2.6026,-2.6269,-2.7188,-2.7188,-2.7188,-2.7188,-2.7188,-2.7188,-2.7137,-2.6669,-2.651,-2.651,-2.651,-2.6457,-2.651,-2.6982,-2.7137,-2.7034,-2.6563,-2.6336,-2.6176,-2.5536,-2.5259,-2.5134,-2.4939,-2.4883,-2.4827,-2.4827,-2.467,-2.4443,-2.4443,-2.3981,-2.3513,-2.3917,-2.3526,-2.2892,-2.2408,-2.2238,-2.2006,-2.1237,-2.106,-2.0882,-2.0246,-1.9651,-1.9038,-1.8382,-1.7833,-1.7161,-1.6358,-1.6219,-1.6349,-1.666,-1.6347,-1.5765,-1.4993,-1.4482,-1.3727,-1.2466,-1.0995,-1.0697,-1.2142,-1.2198,-1.2111,-1.2149,-1.26,-1.2499,-1.1719,-1.1471,-1.1304,-1.1304,-1.1304,-1.1304,-1.1304,-1.1304,-1.1303,-1.458,-1.4361,-1.4046,-1.4073,-1.5206,-1.6192,-1.5757,-1.597,-1.6358,-1.6439,-1.7666,-1.8952,-1.9702,-2.1068,-2.2116,-2.2201,-2.231,-2.2068,-2.0951,-2.2091,-2.3015,-2.2942,-2.3618,-2.4084,-2.4155,-2.47,-2.5024,-2.4981,-2.5024,-2.5549,-2.6616,-2.6721,-2.6774,-2.6774,-2.6721,-2.6443,-2.5837,-2.5837,-2.5837,-2.5946,-2.5946,-2.5946,-2.5946,-2.5946,-2.5946,-2.596,-2.5892,-2.5837,-2.5837,-2.5837,-2.5783,-2.5673,-2.5728,-2.5673,-2.5563,-2.5508,-2.5508,-2.5384,-2.4743,-2.449,-2.4363,-2.3696,-2.3346,-2.3255,-2.3255,-2.2758,-2.2201,-2.2201,-2.1335,-2.0778,-2.2603,-2.2603,-2.177,-2.0523,-2.0202,-1.9868,-1.8485,-1.8228,-1.8035,-1.7326,-1.7129,-1.6922,-1.6349,-1.614,-1.5711,-1.4434,-1.4219,-1.4011,-1.3317,-1.3251,-1.2872,-1.2111,-1.1957,-1.1626,-1.0901,-0.9818,-0.9774,-1.1118,-0.9933,-0.8316,-0.628,-0.6619,-0.6791,-0.6714,-0.56,-0.5049,-0.5049,-0.5049,-0.5049,-0.5049,-0.5049,-0.5052,-1.191,-1.1529,-1.1112,-1.1522,-1.1721,-1.205,-1.2877,-1.3186,-1.3578,-1.4427,-1.5223,-1.6094,-1.7119,-1.7111,-1.7331,-1.8639,-1.8903,-1.8913,-1.9031,-1.95,-1.9965,-2.0083,-2.0306,-2.1054,-2.2347,-2.2971,-2.3398,-2.3631,-2.4288,-2.4603,-2.4389,-2.4687,-2.4687,-2.4389,-2.4641,-2.4368,-2.3513,-2.382,-2.3774,-2.3395,-2.5022,-2.5783,-2.5783,-2.5412,-2.5412,-2.5618,-2.4403,-2.4045,-2.4372,-2.3916,-2.3729,-2.3729,-2.4037,-2.4138,-2.4024,-2.3716,-2.3508,-2.3344,-2.2712,-2.2482,-2.2274,-2.2017,-2.1894,-2.1782,-2.13,-2.0997,-2.064,-2.02,-1.9445,-1.9083,-2.0703,-2.0298,-1.9325,-1.8818,-1.8372,-1.792,-1.7385,-1.6964,-1.6618,-1.6358,-1.5649,-1.5005,-1.4791,-1.4378,-1.373,-1.2698,-1.2464,-1.2084,-1.1273,-1.0754,-1.0553,-1.0836,-1.0235,-0.8917,-0.6521,-0.5322,-0.4239,-0.3107,-0.5653,-0.7791,-0.9005,-0.8216,-0.6051,-0.2426,-0.1877,-0.1641,-0.1641,0.039,0.1483,0.1405,0.0389,-0.0078,-0.8783,-0.8515,-0.8089,-0.8106,-0.8446,-0.8948,-0.9503,-1.0173,-1.0822,-1.1475,-1.2592,-1.3941,-1.5394,-1.4806,-1.4617,-1.6,-1.6356,-1.6642,-1.7045,-1.7658,-1.8131,-1.8255,-1.8388,-1.8975,-2.0392,-2.0905,-2.123,-2.146,-2.2504,-2.284,-2.2311,-2.289,-2.3081,-2.2735,-2.2832,-2.2555,-2.1842,-2.2212,-2.2027,-2.1318,-2.3259,-2.4275,-2.4429,-2.4058,-2.4,-2.4271,-2.294,-2.2578,-2.288,-2.2384,-2.2201,-2.2128,-2.2226,-2.225,-2.2201,-2.1834,-2.1475,-2.11,-2.047,-2.0182,-2.0052,-1.9857,-1.9792,-1.9651,-1.8961,-1.8752,-1.8609,-1.788,-1.7222,-1.6917,-1.7842,-1.7726,-1.722,-1.7005,-1.6471,-1.5939,-1.5658,-1.5147,-1.4633,-1.4633,-1.3693,-1.2823,-1.267,-1.2184,-1.1607,-1.0777,-1.006,-0.9665,-0.9788,-0.8708,-0.7867,-0.7732,-0.6667,-0.5123,-0.2876,-0.1544,0.0232,0.2737,-0.0621,-0.3969,-0.685,-0.6054,-0.3684,0.0314,0.0627,0.0784,0.0784,0.3061,0.4484,0.4961,0.3843,0.329,-0.5451,-0.5478,-0.5155,-0.3898,-0.5754,-0.739,-0.5654,-0.7048,-0.8415,-0.7442,-0.9886,-1.2826,-1.4587,-1.4944,-1.4944,-1.4944,-1.546,-1.5643,-1.4996,-1.6702,-1.8063,-1.8063,-1.8265,-1.8388,-1.8388,-1.8388,-1.8388,-1.8388,-1.927,-2.0072,-2.0711,-2.1651,-2.2201,-2.2128,-2.1663,-2.1327,-2.1244,-2.1244,-2.083,-1.9878,-2.0403,-2.0968,-2.1553,-2.1553,-2.1553,-2.1553,-2.1553,-2.153,-2.1569,-2.1542,-2.1502,-2.125,-2.0364,-1.9955,-1.9955,-1.9955,-1.9521,-1.8757,-1.8083,-1.79,-1.7765,-1.7129,-1.6862,-1.6793,-1.6149,-1.6,-1.5852,-1.5255,-1.4554,-1.4004,-1.4004,-1.4934,-1.579,-1.5076,-1.4434,-1.3803,-1.3039,-1.2285,-1.1675,-1.1675,-1.1069,-1.0312,-0.9643,-0.9567,-0.9271,-0.8452,-0.6942,-0.663,-0.8727,-0.7042,-0.4696,-0.2235,-0.0929,-0.0233,-0.0311,0.0935,0.2733,0.487,0.5031,0.4077,0.2033,0.1563,0.1328,0.1328,0.2111,0.2504,0.2504,0.2504,0.3368,0.5031,0.5031,0.5031,-0.4553,-0.3995,-0.3309,-0.3298,-0.3101,-0.2772,-0.2245,-0.5336,-0.8304,-0.824,-0.8986,-1.0026,-1.1059,-1.123,-1.1531,-1.2503,-1.2809,-1.3041,-1.3455,-1.4011,-1.4419,-1.4419,-1.449,-1.5176,-1.6871,-1.6803,-1.73,-1.8926,-1.8762,-1.8742,-1.9149,-1.9511,-1.9706,-1.9619,-2.0116,-2.0062,-1.9333,-1.9433,-1.9093,-1.8335,-1.8228,-1.8854,-2.0072,-1.9576,-1.9511,-1.9803,-1.8864,-1.8619,-1.8951,-1.8516,-1.8257,-1.82,-1.792,-1.7794,-1.7794,-1.7794,-1.7425,-1.6858,-1.6609,-1.6323,-1.5878,-1.5685,-1.5615,-1.5475,-1.4783,-1.4577,-1.4434,-1.373,-1.2997,-1.2405,-1.2405,-1.1937,-1.1697,-1.2464,-1.2478,-1.2184,-1.1366,-1.0697,-1.0243,-1.0243,-0.9658,-0.8812,-0.7471,-0.7235,-0.654,-0.4548,-0.3542,-0.2931,-0.2713,-0.2093,-0.1085,0.0466,0.2261,0.3979,0.5286,0.5758,0.6605,0.7901,0.8053,0.6835,0.4155,0.3999,0.3921,0.3921,0.4157,0.4238,0.4238,0.4231,0.4545,0.5021,0.5021,0.5021,-0.0368,0.0127,0.0594,0.079,0.0396,-0.0133,-0.0663,-0.3037,-0.5229,-0.5804,-0.6443,-0.7124,-0.8014,-0.8642,-0.9427,-1.0335,-1.0703,-1.1075,-1.1533,-1.2063,-1.2439,-1.2439,-1.2746,-1.36,-1.5043,-1.5043,-1.5545,-1.6886,-1.6858,-1.6789,-1.6688,-1.7142,-1.7338,-1.7298,-1.7668,-1.7668,-1.7298,-1.726,-1.6858,-1.6079,-1.6053,-1.6278,-1.6825,-1.7513,-1.7939,-1.8178,-1.7366,-1.7179,-1.7444,-1.6489,-1.6289,-1.6507,-1.593,-1.572,-1.572,-1.572,-1.5296,-1.4736,-1.4736,-1.4355,-1.375,-1.375,-1.3519,-1.3078,-1.2444,-1.2231,-1.2091,-1.1385,-1.0628,-1.0007,-1.0007,-0.9095,-0.8718,-1.0461,-1.0703,-1.0168,-0.907,-0.8236,-0.7555,-0.6923,-0.6173,-0.5413,-0.4397,-0.4164,-0.3548,-0.201,-0.0385,0.1309,0.2855,0.3787,0.4486,0.5192,0.614,0.7161,0.8309,0.8385,0.8675,0.9251,0.9321,0.85,0.6773,0.67,0.67,0.67,0.67,0.67,0.67,0.6692,0.6689,0.6689,0.6689,0.6689,0.5388,0.5346,0.5404,0.6567,0.4298,0.1455,0.0199,0.0133,-0.0067,-0.148,-0.2929,-0.4292,-0.5246,-0.6707,-0.7829,-0.8067,-0.858,-0.902,-0.9256,-1.0381,-1.1286,-1.1378,-1.2211,-1.282,-1.2893,-1.3039,-1.3193,-1.3331,-1.4083,-1.4363,-1.3962,-1.4633,-1.5122,-1.5342,-1.4791,-1.4728,-1.5263,-1.5114,-1.4561,-1.3673,-1.3924,-1.3643,-1.2893,-1.5376,-1.6507,-1.6507,-1.6507,-1.6507,-1.6437,-1.5226,-1.5076,-1.55,-1.4291,-1.3787,-1.3708,-1.3708,-1.3222,-1.2592,-1.2592,-1.2063,-1.1378,-1.1298,-1.076,-1.0002,-0.9487,-0.9261,-0.919,-0.8609,-0.7757,-0.7049,-0.7049,-0.6423,-0.6259,-0.8245,-0.8509,-0.7829,-0.6242,-0.5245,-0.4173,-0.2703,-0.1704,-0.1087,-0.0932,-0.0621,-0.0233,0.0232,0.2932,0.5628,0.7698,0.9442,1.0576,1.0576,0.982,0.9326,0.9476,0.9476,0.9552,0.9702,0.9702,0.9702,0.9702,0.9471,0.9321,0.9321,0.9321,0.9321,0.9321,0.9321,0.9321,0.9321,0.9321,0.9321,0.5146,0.5754,0.6222,0.6496,0.614,0.5574,0.517,0.517,0.3941,-0.0483,-0.1417,-0.1527,-0.202,-0.2447,-0.3019,-0.3703,-0.393,-0.4693,-0.6692,-0.7223,-0.7849,-0.921,-0.9523,-0.9959,-1.0668,-1.0536,-1.0902,-1.1898,-1.1844,-1.2145,-1.3245,-1.2729,-1.3172,-1.4736,-1.4076,-1.3924,-1.4506,-1.4155,-1.3882,-1.3673,-1.2698,-1.2265,-1.2198,-1.3302,-1.3753,-1.3753,-1.3753,-1.3753,-1.3753,-1.3462,-1.3084,-1.2618,-1.2331,-1.1803,-1.1273,-1.1273,-1.0834,-1.0323,-1.0323,-0.9884,-0.9216,-0.858,-0.8192,-0.7888,-0.7186,-0.6954,-0.6881,-0.6809,-0.565,-0.4491,-0.4491,-0.3409,-0.2246,-0.2315,-0.3554,-0.4496,-0.3496,-0.264,-0.1939,-0.1551,-0.0931,-0.0078,0.1243,0.2549,0.4227,0.6536,0.7471,0.817,0.8859,0.9331,0.9578,0.9578,0.9412,0.9777,1.0846,1.092,1.1446,1.2505,1.2579,1.2579,1.2579,1.0456,0.9321,0.9321,0.9321,0.9321,0.9321,0.9321,0.9321,0.9321,0.9321,0.9611,0.7335,0.7716,0.7757,0.7876,0.7713,0.7493,0.7293,0.6715,0.5474,0.3029,0.1955,0.1378,0.0893,0.0,-0.0931,-0.1704,-0.1857,-0.232,-0.3627,-0.416,-0.4775,-0.5637,-0.6874,-0.7862,-0.8364,-0.9015,-0.9723,-1.0444,-1.0237,-1.0392,-1.1267,-1.076,-1.0989,-1.2024,-1.1656,-1.1582,-1.1877,-1.1588,-1.1446,-1.1446,-1.0634,-1.034,-1.0415,-1.1304,-1.1749,-1.1749,-1.1749,-1.1749,-1.1668,-1.1452,-1.1075,-1.0697,-1.0409,-1.0034,-0.9658,-0.9658,-0.9432,-0.9135,-0.8661,-0.8058,-0.7379,-0.6517,-0.5979,-0.5517,-0.4658,-0.4424,-0.4264,-0.3555,-0.2474,-0.1395,-0.1083,0.0077,0.1241,0.1551,-0.031,-0.1626,-0.0155,0.0543,0.1085,0.1863,0.271,0.3555,0.4419,0.5708,0.7378,0.9622,1.0007,1.0387,1.1063,1.1286,1.1286,1.1286,1.1286,1.1594,1.2358,1.2432,1.2732,1.3419,1.3492,1.363,1.3977,1.2604,1.1636,1.1286,1.1286,1.1434,1.1569,1.1434,1.1428,1.1569,1.1434,1.1501,0.9894,0.9907,0.9454,0.9685,0.9099,0.8452,0.8195,0.7167,0.64,0.692,0.5525,0.4035,0.3477,0.2044,0.0771,0.0078,-0.0078,-0.0233,-0.0466,-0.1393,-0.2163,-0.2316,-0.4545,-0.6007,-0.6007,-0.7423,-0.8371,-0.8371,-0.8371,-0.8447,-0.8599,-0.8523,-0.8599,-0.8827,-0.8751,-0.8675,-0.8827,-0.8675,-0.8599,-0.8528,-0.8228,-0.7999,-0.7923,-0.8798,-0.9622,-1.0168,-1.0168,-1.0168,-1.0088,-0.9487,-0.9115,-0.8964,-0.83,-0.7999,-0.7851,-0.7851,-0.7851,-0.7693,-0.6824,-0.6133,-0.5366,-0.4431,-0.3661,-0.2968,-0.1951,-0.1637,-0.1323,0.0,0.1084,0.2014,0.2556,0.3641,0.4575,0.473,0.3014,0.1851,0.3324,0.3791,0.4337,0.5835,0.6912,0.7592,0.7897,0.8798,0.9927,1.1514,1.1749,1.2198,1.3542,1.3702,1.3775,1.3992,1.3992,1.3992,1.3992,1.3992,1.3985,1.3912,1.3912,1.4258,1.495,1.4942,1.4673,1.4049,1.3912,1.3992,1.4201,1.3848,1.3775,1.3992,1.3637,1.3564,1.0483,1.0975,1.0982,1.0829,1.0212,0.953,0.932,0.9064,0.8753,0.8571,0.7154,0.5905,0.5636,0.5338,0.5011,0.4737,0.4215,0.3587,0.2634,0.0854,-0.0701,-0.1627,-0.3188,-0.4133,-0.4133,-0.4368,-0.4525,-0.4525,-0.4683,-0.5065,-0.5816,-0.5366,-0.5668,-0.7099,-0.6426,-0.6353,-0.6874,-0.6874,-0.6798,-0.6801,-0.612,-0.5286,-0.4448,-0.4598,-0.6217,-0.8922,-0.8922,-0.8922,-0.8841,-0.8058,-0.7287,-0.6601,-0.5829,-0.506,-0.4448,-0.4448,-0.4448,-0.4292,-0.3428,-0.3117,-0.2728,-0.1169,-0.0624,-0.0234,0.1171,0.1794,0.2255,0.2952,0.4411,0.579,0.5867,0.6939,0.8094,0.8642,0.8552,0.7854,0.6405,0.6569,0.7343,0.8023,0.8798,0.9718,1.1137,1.1514,1.2178,1.3867,1.3608,1.3825,1.5446,1.51,1.5046,1.5816,1.5956,1.5956,1.5956,1.5956,1.5877,1.5658,1.5658,1.5922,1.6453,1.6531,1.6462,1.6392,1.5728,1.5108,1.4537,1.4466,1.4122,1.3564,1.3499,1.384,1.0559,1.1406,1.2042,1.2266,1.1384,1.0514,1.0766,0.9761,0.8882,0.9017,0.8375,0.7741,0.7495,0.7564,0.7311,0.612,0.5684,0.5063,0.3663,0.2734,0.1953,0.148,0.0,-0.0935,-0.0935,-0.1792,-0.2571,-0.3044,-0.273,-0.3037,-0.4363,-0.3742,-0.3893,-0.5049,-0.4748,-0.475,-0.4974,-0.4974,-0.4737,-0.4267,-0.4356,-0.3738,-0.2336,-0.2887,-0.413,-0.5915,-0.5915,-0.5915,-0.5915,-0.5526,-0.4902,-0.4126,-0.3738,-0.3115,-0.2336,-0.1943,-0.1865,-0.1632,-0.0466,0.0232,0.0849,0.2165,0.2858,0.3471,0.4706,0.5245,0.5625,0.6718,0.7563,0.833,0.8637,0.9401,1.0099,1.034,1.064,1.0628,1.0066,0.9552,0.9632,1.0873,1.1678,1.2635,1.3981,1.414,1.4363,1.5226,1.5029,1.5171,1.6332,1.6192,1.6323,1.7192,1.6936,1.6807,1.6867,1.6489,1.6228,1.6158,1.6158,1.6428,1.7101,1.7111,1.7316,1.7745,1.6835,1.614,1.5745,1.5392,1.5251,1.5259,1.4903,1.51,1.0954,1.171,1.2474,1.3017,1.2128,1.1253,1.1826,1.0634,0.95,0.9767,0.9831,0.978,0.948,0.92,0.8563,0.7044,0.6572,0.6066,0.5002,0.4382,0.3992,0.4146,0.2575,0.156,0.156,0.0234,-0.0857,-0.1483,-0.0935,-0.1169,-0.2422,-0.1874,-0.1796,-0.25,-0.25,-0.25,-0.25,-0.25,-0.2187,-0.1561,-0.2187,-0.1716,-0.0389,-0.1013,-0.1559,-0.2103,-0.2807,-0.312,-0.3122,-0.2888,-0.2421,-0.1873,-0.1639,-0.1013,-0.0233,0.0465,0.085,0.1159,0.2778,0.3693,0.437,0.5304,0.5993,0.6673,0.7673,0.8054,0.8364,0.9632,1.0179,1.0479,1.0938,1.1397,1.1781,1.1916,1.2211,1.2505,1.2806,1.2191,1.1957,1.3484,1.4181,1.4893,1.5852,1.5869,1.5948,1.6289,1.6088,1.6289,1.7425,1.7415,1.7668,1.8777,1.8398,1.8131,1.8255,1.7823,1.7453,1.7189,1.7189,1.7394,1.7959,1.7959,1.824,1.8751,1.7939,1.7248,1.6802,1.6376,1.6237,1.6455,1.6219,1.6271,1.2035,1.1997,1.2143,1.2704,1.2158,1.16,1.2143,1.2012,1.1757,1.1454,1.1764,1.2009,1.1667,1.0152,0.8806,0.8377,0.7664,0.7318,0.7791,0.5848,0.4603,0.514,0.3431,0.2189,0.2189,0.1565,0.1175,0.1096,0.1175,0.1096,0.1018,0.1096,0.1096,0.1018,0.1018,0.1018,0.1018,0.1018,0.1018,0.1096,0.1018,0.1409,0.2032,0.1954,0.2264,0.2568,-0.0155,-0.1322,-0.1244,-0.0546,-0.0156,-0.0078,0.0782,0.1487,0.2109,0.31,0.3859,0.4619,0.6442,0.7127,0.7283,0.8152,0.8392,0.8548,0.9256,0.9788,1.0162,1.087,1.1706,1.2445,1.2445,1.29,1.3557,1.425,1.4458,1.4307,1.3787,1.4011,1.4593,1.5384,1.5596,1.5728,1.5939,1.6009,1.6289,1.7189,1.6715,1.712,1.9365,1.9058,1.9225,2.0782,2.0921,2.0858,2.0921,2.0858,2.0473,1.9704,1.9639,1.9584,1.9473,1.9473,1.9473,1.9539,1.9473,1.8777,1.7335,1.7335,1.6844,1.6079,1.6849,1.678,1.2634,1.2642,1.2826,1.2887,1.2642,1.2336,1.2389,1.2328,1.2135,1.1888,1.1888,1.1872,1.1361,1.1249,1.0805,0.9676,0.913,0.8388,0.7285,0.6249,0.5538,0.5535,0.4838,0.4373,0.4373,0.4217,0.3826,0.3359,0.3748,0.3591,0.2497,0.2578,0.2425,0.1878,0.1488,0.1332,0.1332,0.1332,0.1722,0.2657,0.2419,0.3119,0.4758,0.4516,0.4743,0.544,0.4416,0.3177,0.2017,0.256,0.3103,0.3651,0.3966,0.4513,0.5289,0.6503,0.703,0.7411,0.8925,0.9756,1.0215,1.0673,1.1131,1.1588,1.1977,1.2204,1.2498,1.315,1.3593,1.3954,1.4458,1.4752,1.4974,1.5242,1.5313,1.5384,1.572,1.593,1.6158,1.6515,1.7001,1.7491,1.7755,1.7687,1.7765,1.825,1.7978,1.8365,2.0074,2.0052,2.0504,2.2075,2.1889,2.1628,2.1741,2.1376,2.0996,2.0677,2.0226,1.9977,1.9911,1.9528,1.9274,1.9274,1.9274,1.9187,1.8957,1.8375,1.824,1.8402,1.821,1.8402,1.3571,1.339,1.339,1.3373,1.3191,1.3017,1.3312,1.3252,1.3122,1.287,1.2749,1.2504,1.1888,1.2343,1.2213,1.051,1.0014,0.9328,0.7956,0.762,0.7362,0.7135,0.7034,0.6915,0.6842,0.6608,0.6066,0.4988,0.5378,0.5068,0.3744,0.375,0.3597,0.3051,0.2427,0.2116,0.2116,0.2349,0.2973,0.4059,0.382,0.4902,0.7003,0.6524,0.6904,0.7982,0.8062,0.6824,0.4737,0.5266,0.5806,0.6357,0.6503,0.7046,0.7901,0.9039,0.9648,1.0024,1.1366,1.2265,1.2718,1.3135,1.3585,1.4049,1.4194,1.4274,1.4338,1.4824,1.5163,1.5438,1.593,1.641,1.6817,1.6817,1.7023,1.7316,1.7872,1.7404,1.707,1.7745,1.824,1.8787,1.9375,1.9375,1.9309,1.9518,1.9452,1.977,2.0974,2.1089,2.1604,2.2836,2.258,2.231,2.2433,2.2002,2.169,2.1428,2.1049,2.0666,2.042,2.0031,1.9781,1.9781,1.9781,2.0031,2.059,1.932,1.8931,1.9452,1.9198,1.9759,0.0,0.0,0.0,1.4094,1.3743,1.3631,1.4725,1.497,1.4911,1.4597,1.4529,1.4291,1.345,1.3329,1.2693,1.0791,1.0331,1.0158,1.0158,1.0089,1.0024,0.9952,0.9717,0.9476,0.9261,0.8713,0.7719,0.6136,0.5983,0.5684,0.4854,0.4779,0.4776,0.4698,0.4153,0.3841,0.3841,0.4465,0.5004,0.5384,0.5619,0.6769,0.8756,0.8143,0.8746,1.0265,1.0657,0.9357,0.6992,0.7588,0.7812,0.7884,0.8477,0.9165,0.9868,1.0828,1.1582,1.2338,1.4019,1.4601,1.4744,1.5463,1.5675,1.5675,1.5675,1.5745,1.5745,1.5737,1.6271,1.6867,1.6867,1.7948,1.9017,1.9017,1.9585,2.0096,2.0096,1.8479,1.7472,1.9034,1.9375,1.9617,2.0632,2.0812,2.0899,2.106,2.1123,2.1376,2.2039,2.2101,2.2359,2.3005,2.3078,2.3078,2.3078,2.3078,2.2811,2.2175,2.2101,2.1803,2.1187,2.1123,2.1123,2.1123,2.1123,2.1428,2.2051,2.0085,1.9075,1.8942,1.9781,2.0858,1.4765,0.0,0.0,0.0,0.0,0.0,1.4597,1.4843,1.497,1.4911,1.4656,1.435,1.3761,1.3511,1.3172,1.2399,1.1861,1.1348,1.0816,1.0579,1.0125,0.9216,0.9335,0.9299,0.868,0.9186,0.9094,0.7986,0.8295,0.8147,0.7173,0.6483,0.5864,0.5392,0.5157,0.5079,0.5079,0.5848,0.6535,0.7149,0.8053,0.9125,1.0201,1.0346,1.0645,1.1105,1.1909,1.1736,1.0902,1.0697,1.092,1.1415,1.1569,1.2078,1.2868,1.3613,1.3981,1.4212,1.5092,1.5392,1.5455,1.5604,1.5675,1.5675,1.5675,1.607,1.6609,1.7151,1.7871,1.8665,1.9367,1.9846,2.0182,2.0182,2.0322,2.0473,2.0473,1.9998,1.9727,2.0139,2.015,2.0355,2.1123,2.1112,2.1112,2.1428,2.1428,2.1678,2.2237,2.231,2.2494,2.3065,2.3078,2.3078,2.3078,2.3078,2.3005,2.2823,2.2359,2.2051,2.1803,2.1376,2.1123,2.1123,2.1123,2.1187,2.1376,2.0805,2.0794,2.1215,2.1416,2.1729,1.5245,1.4991,1.4855,1.4688,0.0,0.0,1.4951,1.5137,1.5264,1.5088,1.4911,1.4666,1.4181,1.4001,1.3803,1.3442,1.3129,1.257,1.1688,1.1431,1.1081,1.027,1.0504,1.0565,1.003,1.0532,1.0444,0.9212,0.9515,0.9338,0.8557,0.7888,0.7314,0.6923,0.6612,0.6454,0.6381,0.7447,0.8206,0.8666,0.9497,1.0484,1.1558,1.1761,1.2124,1.2652,1.3513,1.386,1.3715,1.3433,1.3506,1.3715,1.3932,1.4291,1.4783,1.5084,1.5226,1.5305,1.5948,1.6237,1.6298,1.6973,1.7179,1.7248,1.7629,1.8026,1.8485,1.8905,1.9619,2.0406,2.1227,2.1502,2.1502,2.1502,2.1502,2.1502,2.1502,2.1729,2.1768,2.1353,2.1393,2.1756,2.2531,2.2809,2.2965,2.3157,2.3217,2.3276,2.3585,2.3657,2.3787,2.4034,2.4034,2.4034,2.4034,2.4034,2.4034,2.4034,2.3433,2.3075,2.3075,2.2482,2.2125,2.2125,2.2125,2.2125,2.2125,2.1439,2.1313,2.1678,2.1978,2.2101,1.6077,1.5584,1.5274,1.5846,1.5526,0.0,1.5662,1.573,1.5614,1.5332,1.5215,1.5088,1.4656,1.4538,1.4478,1.413,1.407,1.364,1.2544,1.2499,1.2428,1.2042,1.2299,1.2356,1.2048,1.219,1.1567,1.0053,0.9846,0.967,0.9248,0.8951,0.8769,0.8869,0.8245,0.7867,0.774,0.911,0.9948,1.0099,1.0335,1.1316,1.282,1.2698,1.3353,1.4482,1.5321,1.5675,1.5666,1.5886,1.5658,1.5147,1.5666,1.5886,1.5956,1.5956,1.5956,1.6088,1.6793,1.7139,1.7472,1.889,1.9365,1.9562,2.0398,2.0655,2.0719,2.0846,2.129,2.1939,2.2604,2.28,2.28,2.286,2.286,2.28,2.286,2.3412,2.3551,2.2592,2.2845,2.3487,2.4439,2.5063,2.5398,2.5453,2.5453,2.5453,2.5398,2.5398,2.5398,2.5398,2.5398,2.5398,2.5398,2.5398,2.5342,2.5287,2.4794,2.4452,2.4408,2.3897,2.3628,2.3628,2.3675,2.3675,2.3675,2.2125,2.1376,2.1376,2.199,2.2298,1.7078,1.6909,1.674,1.6524,1.6343,0.0,1.6056,1.5961,1.5798,1.5624,1.5488,1.5245,1.4961,1.4911,1.4911,1.4793,1.4606,1.4112,1.3208,1.3144,1.2816,1.1932,1.2258,1.2157,1.124,1.1927,1.1888,1.0623,1.0227,0.9974,0.9886,0.9574,0.9471,0.9739,0.9593,0.968,0.9873,1.0789,1.1323,1.1323,1.207,1.2952,1.3977,1.397,1.4466,1.5321,1.6376,1.6645,1.6498,1.7491,1.7354,1.6507,1.6645,1.701,1.7579,1.7706,1.7774,1.7842,1.8124,1.8576,1.909,1.9431,1.9879,2.0398,2.0526,2.0974,2.1553,2.2372,2.2823,2.3078,2.339,2.345,2.3556,2.4002,2.378,2.3556,2.406,2.4279,2.4337,2.4195,2.4399,2.4727,2.5287,2.5398,2.5453,2.5673,2.5728,2.5673,2.5563,2.5563,2.5508,2.5398,2.5398,2.5398,2.5398,2.5398,2.5175,2.4738,2.4567,2.4292,2.3793,2.3675,2.3628,2.3628,2.4073,2.435,2.435,2.3531,2.3125,2.3125,2.3245,2.3305,1.7623,1.7312,1.6987,1.6751,1.6591,0.0,0.0,1.6066,1.5961,1.5856,1.573,1.5604,1.5381,1.5323,1.5264,1.5156,1.5196,1.5001,1.4043,1.3855,1.3597,1.2923,1.3,1.2776,1.1963,1.2239,1.2236,1.1609,1.1441,1.1323,1.1323,1.084,1.0635,1.0771,1.0777,1.0845,1.091,1.1853,1.2301,1.2229,1.3245,1.4042,1.4625,1.5376,1.5939,1.6376,1.7285,1.7569,1.7354,1.8124,1.8056,1.7569,1.7706,1.8114,1.8654,1.8854,1.9177,1.9497,1.9628,1.9879,2.0257,2.076,2.1141,2.153,2.1978,2.2298,2.2677,2.3185,2.345,2.3509,2.3569,2.3628,2.3734,2.435,2.4292,2.4234,2.4851,2.5231,2.5508,2.5563,2.5932,2.6254,2.6176,2.6322,2.6534,2.6707,2.6707,2.6654,2.6602,2.6587,2.6587,2.6481,2.6481,2.6481,2.6481,2.6481,2.6375,2.6094,2.5783,2.5453,2.5175,2.458,2.4144,2.3865,2.4421,2.4765,2.4765,2.4421,2.4189,2.4073,2.4073,2.4073,1.8224,1.7733,1.7301,1.7245,1.7088,1.6864,0.0,0.0,0.0,1.6239,1.6181,1.6134,1.5961,1.6009,1.5921,1.539,1.5776,1.5901,1.5052,1.4847,1.4532,1.4016,1.4007,1.3777,1.2981,1.2728,1.2544,1.2482,1.2562,1.2526,1.2519,1.205,1.1808,1.1871,1.1938,1.1899,1.1819,1.2767,1.3185,1.3046,1.4198,1.4931,1.5292,1.666,1.7385,1.755,1.8375,1.8654,1.8529,1.8798,1.8854,1.8844,1.8787,1.8988,1.942,1.9814,2.0257,2.0771,2.0887,2.1014,2.1255,2.2089,2.247,2.2665,2.3378,2.3628,2.3628,2.3628,2.3747,2.3852,2.3852,2.3969,2.4176,2.4838,2.4894,2.4951,2.5605,2.6229,2.6616,2.6616,2.7203,2.7524,2.6945,2.7255,2.7625,2.7625,2.7625,2.7625,2.7625,2.7625,2.7625,2.7625,2.7625,2.7625,2.7625,2.7625,2.7575,2.7408,2.6878,2.6457,2.6351,2.5384,2.4677,2.4287,2.4721,2.5118,2.5328,2.5216,2.5034,2.4738,2.4624,2.4624,1.9408,1.9146,1.904,1.8827,1.8721,1.8602,1.8309,0.0,1.7611,1.7479,0.0,1.7123,1.6751,0.0,0.0,1.5815,1.6073,1.6458,1.6537,1.6276,1.5555,1.4181,1.4923,1.5031,1.3571,1.3139,1.2834,1.2544,1.2653,1.2677,1.2484,1.2453,1.2554,1.2858,1.3108,1.3453,1.3701,1.409,1.4313,1.4313,1.5002,1.5648,1.6349,1.7562,1.8412,1.91,1.9944,2.0333,2.0333,2.0869,2.091,2.0696,1.9933,1.9672,1.9857,2.0737,2.1181,2.1255,2.1444,2.1892,2.2396,2.2531,2.298,2.3497,2.3569,2.37,2.3891,2.3891,2.4332,2.4835,2.4835,2.5203,2.5728,2.6467,2.624,2.6026,2.6745,2.6967,2.7019,2.7019,2.7509,2.7855,2.7575,2.756,2.7625,2.7625,2.7625,2.7625,2.7625,2.7625,2.7625,2.7625,2.7625,2.7625,2.7625,2.7625,2.7357,2.6841,2.6229,2.5687,2.5216,2.4563,2.439,2.4892,2.4948,2.5495,2.6525,2.596,2.5687,2.5618,2.5147,2.5203,1.9901,1.9683,1.9503,1.9254,1.9056,1.8886,1.8768,1.8459,1.8201,1.8135,0.0,0.0,0.0,0.0,0.0,0.0,1.7673,1.785,1.7104,1.7727,1.7622,1.6053,1.5853,1.5507,1.4579,1.4264,1.4195,1.4373,1.4016,1.3786,1.3906,1.3717,1.3614,1.361,1.3733,1.3864,1.4027,1.4305,1.4655,1.5061,1.6109,1.6948,1.7707,1.8956,1.9637,1.986,2.0456,2.0707,2.0771,2.1101,2.1215,2.1255,2.1432,2.1432,2.1318,2.1892,2.2274,2.2652,2.2859,2.3113,2.3365,2.3424,2.3675,2.3982,2.4319,2.4216,2.4171,2.4821,2.4991,2.5104,2.5453,2.5563,2.5837,2.6797,2.664,2.6534,2.7408,2.7625,2.7625,2.7625,2.784,2.7955,2.784,2.784,2.784,2.784,2.784,2.784,2.784,2.784,2.784,2.784,2.784,2.784,2.784,2.764,2.7488,2.7488,2.6811,2.6215,2.5756,2.5048,2.4835,2.5203,2.5453,2.5892,2.6563,2.6549,2.6692,2.6916,2.6297,2.6136,2.0597,2.032,2.0194,1.9953,1.9748,1.9581,1.9581,1.9334,1.915,1.915,1.9097,0.0,0.0,0.0,1.9024,1.8553,0.0,1.9008,1.7875,1.8643,1.8738,1.7246,1.6585,1.6187,1.5948,1.5429,1.5371,1.5891,1.5129,1.4777,1.5138,1.4895,1.4718,1.4501,1.4551,1.461,1.461,1.4999,1.5482,1.6049,1.7241,1.8132,1.8677,1.9943,2.0519,2.061,2.1093,2.1389,2.1581,2.1779,2.1966,2.2139,2.2895,2.3027,2.2834,2.2967,2.3292,2.376,2.3878,2.3995,2.4054,2.4112,2.4171,2.4332,2.4878,2.4765,2.4593,2.5618,2.5783,2.5783,2.6279,2.6385,2.6544,2.7399,2.7363,2.7378,2.8122,2.8284,2.8284,2.8284,2.8284,2.8284,2.8284,2.8152,2.802,2.802,2.802,2.802,2.802,2.802,2.802,2.802,2.802,2.797,2.7855,2.7655,2.7604,2.774,2.7137,2.664,2.6269,2.5687,2.5522,2.5877,2.5972,2.6361,2.693,2.7034,2.7342,2.784,2.71,2.6826,2.1664,2.1554,2.1506,2.1361,2.1313,2.1313,2.1313,2.1006,2.0746,2.0746,2.0597,2.0446,2.0181,2.0584,2.0486,1.9192,1.9409,0.0,0.0,1.873,1.8081,1.6845,1.7002,1.7324,1.7654,1.6564,1.5891,1.626,1.5613,1.5332,1.5728,1.5786,1.5728,1.5728,1.6073,1.6244,1.6244,1.6968,1.7302,1.7357,1.843,1.8963,1.9043,2.0127,2.0897,2.1522,2.2193,2.2857,2.3497,2.37,2.3878,2.3995,2.4054,2.4054,2.4054,2.4054,2.4054,2.4054,2.4112,2.4261,2.4465,2.4157,2.4261,2.4567,2.5063,2.5175,2.5287,2.5972,2.6768,2.7399,2.7464,2.7997,2.8638,2.8795,2.8811,2.8858,2.9029,2.9075,2.9075,2.9075,2.9075,2.9075,2.9075,2.8477,2.802,2.802,2.802,2.802,2.802,2.802,2.802,2.802,2.802,2.7855,2.7452,2.7755,2.774,2.7174,2.6759,2.6443,2.624,2.6187,2.6467,2.7019,2.6453,2.6782,2.7955,2.7393,2.7408,2.7955,2.724,2.7122,2.2712,2.2862,2.3039,2.268,2.2589,2.2543,2.242,2.2142,2.1941,2.1941,2.1894,2.1752,2.1431,2.1541,2.1424,2.0726,2.0726,2.0693,0.0,2.0016,1.9812,1.9672,1.8785,1.8221,1.8232,1.7622,1.7413,1.7929,1.7257,1.6978,1.7313,1.7302,1.7202,1.6944,1.7268,1.7435,1.7335,1.7863,1.8394,1.885,1.9214,1.9629,2.0152,2.0772,2.1192,2.142,2.2493,2.3158,2.3537,2.4218,2.4563,2.4677,2.4677,2.4677,2.4677,2.4421,2.458,2.4921,2.5342,2.5536,2.5591,2.555,2.5536,2.5741,2.6505,2.6438,2.6371,2.7505,2.7803,2.7788,2.8288,2.8448,2.8543,2.892,2.8811,2.8716,2.9029,2.9075,2.9075,2.9075,2.9075,2.9075,2.9075,2.8889,2.8716,2.8716,2.8716,2.8716,2.8716,2.8716,2.8605,2.8238,2.851,2.8414,2.7575,2.7959,2.783,2.6878,2.6849,2.6953,2.7122,2.6254,2.6322,2.7408,2.7108,2.721,2.7855,2.8057,2.8238,2.835,2.8271,2.8091,2.3634,2.3819,2.3991,2.3664,2.3606,2.3606,2.3333,2.3187,2.3098,2.3098,2.3024,2.2995,2.2906,2.2756,2.2589,2.2423,2.2128,2.1718,0.0,2.1055,2.1068,2.1326,2.0181,1.9399,1.9542,1.8756,1.8555,1.9384,1.862,1.8298,1.8673,1.878,1.8727,1.8459,1.8727,1.8833,1.8727,1.9004,1.9411,1.9888,2.0042,2.0321,2.0712,2.113,2.1419,2.1551,2.2498,2.3042,2.339,2.4366,2.4846,2.497,2.5411,2.5659,2.555,2.4908,2.4964,2.5398,2.6026,2.6385,2.6529,2.6409,2.6567,2.6931,2.762,2.7555,2.7475,2.867,2.8748,2.8607,2.9104,2.9104,2.9058,2.9425,2.9273,2.9182,2.9441,2.9486,2.9486,2.9486,2.9486,2.9486,2.9486,2.9486,2.9396,2.9121,2.9075,2.9029,2.8811,2.8826,2.8622,2.8125,2.8334,2.8398,2.7894,2.7864,2.7715,2.7261,2.75,2.765,2.7845,2.7093,2.7129,2.8107,2.7929,2.7879,2.8122,2.8494,2.8685,2.8574,2.8764,2.8685]}]]